[[{"header":{"parameterUnit":"m.s-1","parameterCategory":1,"la1":31.0,"la2":29.5877,"lo1":-88.7671,"lo2":-86.6584,"dx":0.0162,"dy":0.0185,"nx":115,"ny":88,"refTime":"2022-11-18T06:00:00:Z","depth":0,"parameterNumber":2,"parameterNumberName":"U-component_of_WINDS"},"data":[0.0,0.0,0.0,0.0,0.0,0.0,0.0,0.0,0.0,0.0,0.0,0.0,0.0,0.0,0.0,0.0,0.0,0.0,0.0,0.0,0.0,0.0,0.0,0.0,0.0,0.0,0.0,0.0,0.0,0.0,0.0,0.0,0.0,0.0,0.0,0.0,0.0,0.0,0.0,0.0,0.0,0.0,0.0,0.0,0.0,0.0,0.0,0.0,0.0,0.0,0.0,0.0,0.0,0.0,0.0,0.0,0.0,0.0,0.0,0.0,0.0,0.0,0.0,0.0,0.0,0.0,0.0,0.0,0.0,0.0,0.0,0.0,0.0,0.0,0.0,0.0,0.0,0.0,0.0,0.0,0.0,0.0,0.0,0.0,0.0,0.0,0.0,0.0,0.0,0.0,0.0,0.0,0.0,0.0,0.0,0.0,0.0,0.0,0.0,0.0,0.0,0.0,0.0,0.0,0.0,0.0,0.0,0.0,0.0,0.0,0.0,0.0,0.0,0.0,0.0,0.0,0.0,0.0,0.0,0.0,0.0,0.0,0.0,0.0,0.0,0.0,0.0,0.0,0.0,0.0,0.0,0.0,0.0,0.0,0.0,0.0,0.0,0.0,0.0,0.0,0.0,0.0,0.0,0.0,0.0,0.0,0.0,0.0,0.0,0.0,0.0,0.0,0.0,0.0,0.0,0.0,0.0,0.0,0.0,0.0,0.0,0.0,0.0,0.0,0.0,0.0,0.0,0.0,0.0,0.0,0.0,0.0,0.0,0.0,0.0,0.0,0.0,0.0,0.0,0.0,0.0,0.0,0.0,0.0,0.0,0.0,0.0,0.0,0.0,0.0,0.0,0.0,0.0,0.0,0.0,0.0,0.0,0.0,0.0,0.0,0.0,0.0,0.0,0.0,0.0,0.0,0.0,0.0,0.0,0.0,0.0,0.0,0.0,0.0,0.0,0.0,0.0,0.0,0.0,0.0,0.0,0.0,0.0,0.0,0.0,0.0,0.0,0.0,0.0,0.0,0.0,0.0,0.0,0.0,0.0,0.0,0.0,0.0,0.0,0.0,0.0,0.0,0.0,0.0,0.0,0.0,0.0,0.0,0.0,0.0,0.0,0.0,0.0,0.0,0.0,0.0,0.0,0.0,0.0,0.0,0.0,0.0,0.0,0.0,0.0,0.0,0.0,0.0,0.0,0.0,0.0,0.0,0.0,0.0,0.0,0.0,0.0,0.0,0.0,0.0,0.0,0.0,0.0,0.0,0.0,0.0,0.0,0.0,0.0,0.0,0.0,0.0,0.0,0.0,0.0,0.0,0.0,0.0,0.0,0.0,0.0,0.0,0.0,0.0,0.0,0.0,0.0,0.0,0.0,0.0,0.0,0.0,0.0,0.0,0.0,0.0,0.0,0.0,0.0,0.0,0.0,0.0,0.0,0.0,0.0,0.0,0.0,0.0,0.0,0.0,0.0,0.0,0.0,0.0,0.0,0.0,0.0,0.0,0.0,0.0,0.0,0.0,0.0,0.0,0.0,0.0,0.0,0.0,0.0,0.0,0.0,0.0,0.0,0.0,0.0,0.0,0.0,0.0,0.0,0.0,0.0,0.0,0.0,0.0,0.0,0.0,0.0,0.0,0.0,0.0,0.0,0.0,0.0,0.0,0.0,0.0,0.0,0.0,0.0,0.0,0.0,0.0,0.0,0.0,0.0,0.0,0.0,0.0,0.0,0.0,0.0,0.0,0.0,0.0,0.0,0.0,0.0,0.0,0.0,0.0,0.0,0.0,0.0,0.0,0.0,0.0,0.0,0.0,0.0,0.0,0.0,0.0,0.0,0.0,0.0,0.0,0.0,0.0,0.0,0.0,0.0,0.0,0.0,0.0,0.0,0.0,0.0,0.0,0.0,0.0,0.0,0.0,0.0,0.0,0.0,0.0,0.0,0.0,0.0,0.0,0.0,0.0,0.0,0.0,0.0,0.0,0.0,0.0,0.0,0.0,0.0,0.0,0.0,0.0,0.0,0.0,0.0,0.0,0.0,0.0,0.0,0.0,0.0,0.0,0.0,0.0,0.0,0.0,0.0,0.0,0.0,0.0,0.0,0.0,0.0,0.0,0.0,0.0,0.0,0.0,0.0,0.0,0.0,0.0,0.0,0.0,0.0,0.0,0.0,0.0,0.0,0.0,0.0,0.0,0.0,0.0,0.0,0.0,0.0,0.0,0.0,0.0,0.0,0.0,0.0,0.0,0.0,0.0,0.0,0.0,0.0,0.0,0.0,0.0,0.0,0.0,0.0,0.0,0.0,0.0,0.0,0.0,0.0,0.0,0.0,0.0,0.0,0.0,0.0,0.0,0.0,0.0,0.0,0.0,0.0,0.0,0.0,0.0,0.0,0.0,0.0,0.0,0.0,0.0,0.0,0.0,0.0,0.0,0.0,0.0,0.0,0.0,0.0,0.0,0.0,0.0,0.0,0.0,0.0,0.0,0.0,0.0,0.0,0.0,0.0,0.0,0.0,0.0,0.0,0.0,0.0,0.0,0.0,0.0,0.0,0.0,0.0,0.0,0.0,0.0,0.0,0.0,0.0,0.0,0.0,0.0,0.0,0.0,0.0,0.0,0.0,0.0,0.0,0.0,0.0,0.0,0.0,0.0,0.0,0.0,0.0,0.0,0.0,0.0,0.0,0.0,0.0,0.0,0.0,0.0,0.0,0.0,0.0,0.0,0.0,0.0,0.0,0.0,0.0,0.0,0.0,0.0,0.0,0.0,0.0,0.0,0.0,0.0,0.0,0.0,0.0,0.0,0.0,0.0,0.0,0.0,0.0,0.0,0.0,0.0,0.0,0.0,0.0,0.0,0.0,0.0,0.0,0.0,0.0,0.0,0.0,0.0,0.0,0.0,0.0,0.0,0.0,0.0,0.0,0.0,0.0,0.0,0.0,0.0,0.0,0.0,0.0,0.0,0.0,0.0,0.0,0.0,0.0,0.0,0.0,0.0,0.0,0.0,0.0,0.0,0.0,0.0,0.0,0.0,0.0,0.0,0.0,0.0,0.0,0.0,0.0,0.0,0.0,0.0,0.0,0.0,0.0,0.0,0.0,0.0,0.0,0.0,0.0,0.0,0.0,0.0,0.0,0.0,0.0,0.0,0.0,0.0,0.0,0.0,0.0,0.0,0.0,0.0,0.0,0.0,0.0,0.0,0.0,0.0,0.0,0.0,0.0,0.0,0.0,0.0,0.0,0.0,0.0,0.0,0.0,0.0,0.0,0.0,0.0,0.0,0.0,0.0,0.0,0.0,0.0,0.0,0.0,0.0,0.0,0.0,0.0,0.0,0.0,0.0,0.0,0.0,0.0,0.0,0.0,0.0,0.0,0.0,0.0,0.0,0.0,0.0,0.0,0.0,0.0,0.0,0.0,0.0,0.0,0.0,0.0,0.0,0.0,0.0,0.0,0.0,0.0,0.0,0.0,0.0,0.0,0.0,0.0,0.0,0.0,0.0,0.0,0.0,0.0,0.0,0.0,0.0,0.0,0.0,0.0,0.0,0.0,0.0,0.0,0.0,0.0,0.0,0.0,0.0,0.0,0.0,0.0,0.0,0.0,0.0,0.0,0.0,0.0,0.0,0.0,0.0,0.0,0.0,0.0,0.0,0.0,0.0,0.0,0.0,0.0,0.0,0.0,0.0,0.0,0.0,0.0,0.0,0.0,0.0,0.0,0.0,0.0,0.0,0.0,0.0,0.0,0.0,0.0,0.0,0.0,0.0,0.0,0.0,0.0,0.0,0.0,0.0,0.0,0.0,0.0,0.0,0.0,0.0,0.0,0.0,0.0,0.0,0.0,0.0,0.0,0.0,0.0,0.0,0.0,0.0,0.0,0.0,0.0,0.0,0.0,0.0,0.0,0.0,0.0,0.0,0.0,0.0,0.0,0.0,0.0,0.0,0.0,0.0,0.0,0.0,0.0,0.0,0.0,0.0,0.0,0.0,0.0,0.0,0.0,0.0,0.0,0.0,0.0,0.0,0.0,0.0,0.0,0.0,0.0,0.0,0.0,0.0,0.0,0.0,0.0,0.0,0.0,0.0,0.0,0.0,0.0,0.0,0.0,0.0,0.0,0.0,0.0,0.0,0.0,0.0,0.0,0.0,0.0,0.0,0.0,0.0,0.0,0.0,0.0,0.0,0.0,0.0,0.0,0.0,0.0,0.0,0.0,0.0,0.0,0.0,0.0,0.0,0.0,0.0,0.0,0.0,0.0,0.0,2.1304,0.0,0.0,0.0,1.8237,0.0,0.0,0.0,0.0,0.0,0.0,0.0,0.0,0.0,0.0,0.0,0.0,0.0,0.0,0.0,0.0,0.0,0.0,0.0,0.0,0.0,0.0,0.0,0.0,0.0,0.0,0.0,0.0,0.0,0.0,0.0,0.0,0.0,0.0,0.0,0.0,0.0,0.0,0.0,0.0,0.0,0.0,0.0,0.0,0.0,0.0,0.0,0.0,0.0,0.0,0.0,0.0,0.0,0.0,0.0,0.0,0.0,0.0,0.0,0.0,0.0,0.0,0.0,0.0,0.0,0.0,0.0,0.0,0.0,0.0,0.0,0.0,0.0,0.0,0.0,0.0,0.0,0.0,0.0,0.0,0.0,0.0,0.0,0.0,0.0,0.0,0.0,0.0,0.0,0.0,0.0,0.0,0.0,0.0,0.0,0.0,0.0,0.0,0.0,0.0,0.0,0.0,0.0,0.0,0.0,0.0,0.0,0.0,0.0,0.0,2.1357,2.0568,2.1367,2.0781,1.8656,0.0,0.0,0.0,0.0,0.0,0.0,0.0,0.0,0.0,0.0,0.0,0.0,0.0,0.0,0.0,0.0,0.0,0.0,0.0,0.0,0.0,0.0,0.0,0.0,0.0,0.0,0.0,0.0,0.0,0.0,0.0,0.0,0.0,0.0,0.0,0.0,0.0,0.0,0.0,0.0,0.0,0.0,0.0,0.0,0.0,0.0,0.0,0.0,0.0,0.0,0.0,0.0,0.0,0.0,0.0,0.0,0.0,0.0,0.0,0.0,0.0,0.0,0.0,0.0,0.0,0.0,0.0,0.0,0.0,0.0,0.0,0.0,0.0,0.0,0.0,0.0,0.0,0.0,0.0,0.0,0.0,0.0,0.0,0.0,0.0,0.0,0.0,0.0,0.0,0.0,0.0,0.0,0.0,0.0,0.0,0.0,0.0,0.0,0.0,0.0,0.0,0.0,0.0,0.0,0.0,0.0,0.0,0.0,0.0,0.0,0.0,0.0,2.2031,2.1679,1.9567,0.0,0.0,0.0,0.0,0.0,0.0,0.0,0.0,0.0,0.0,0.0,0.0,0.0,0.0,0.0,0.0,0.0,0.0,0.0,0.0,0.0,0.0,0.0,0.0,0.0,0.0,0.0,0.0,0.0,0.0,0.0,0.0,0.0,0.0,0.0,0.0,0.0,0.0,0.0,0.0,0.0,0.0,0.0,0.0,0.0,0.0,0.0,0.0,0.0,0.0,0.0,0.0,0.0,0.0,0.0,0.0,0.0,0.0,0.0,0.0,0.0,0.0,0.0,0.0,0.0,0.0,0.0,0.0,0.0,0.0,0.0,0.0,0.0,0.0,0.0,0.0,0.0,0.0,0.0,0.0,0.0,0.0,0.0,0.0,0.0,0.0,0.0,0.0,0.0,0.0,0.0,0.0,0.0,0.0,0.0,0.0,0.0,0.0,0.0,0.0,0.0,0.0,0.0,0.0,0.0,0.0,0.0,0.0,0.0,0.0,2.0919,2.1561,2.1758,0.0,2.0309,0.0,0.0,0.0,0.0,0.0,0.0,0.0,0.0,0.0,0.0,0.0,0.0,0.0,0.0,0.0,0.0,0.0,0.0,0.0,0.0,0.0,0.0,0.0,0.0,0.0,0.0,0.0,0.0,0.0,0.0,0.0,0.0,0.0,0.0,0.0,0.0,0.0,0.0,0.0,0.0,0.0,0.0,0.0,0.0,0.0,0.0,0.0,0.0,0.0,0.0,0.0,0.0,0.0,0.0,0.0,0.0,0.0,0.0,0.0,0.0,0.0,0.0,0.0,0.0,0.0,0.0,0.0,0.0,0.0,0.0,0.0,0.0,0.0,0.0,0.0,0.0,0.0,0.0,0.0,0.0,0.0,0.0,0.0,0.0,0.0,0.0,0.0,0.0,0.0,0.0,0.0,0.0,0.0,0.0,0.0,0.0,0.0,0.0,0.0,0.0,0.0,0.0,0.0,0.0,0.0,0.0,0.0,0.0,0.0,0.0,2.2174,2.246,2.246,2.1601,0.0,0.0,0.0,0.0,0.0,0.0,0.0,0.0,0.0,0.0,0.0,0.0,0.0,0.0,0.0,0.0,0.0,0.0,0.0,0.0,0.0,0.0,0.0,0.0,0.0,0.0,0.0,0.0,0.0,0.0,0.0,0.0,0.0,0.0,0.0,0.0,0.0,0.0,0.0,0.0,0.0,0.0,0.0,0.0,0.0,0.0,0.0,0.0,0.0,0.0,0.0,0.0,0.0,0.0,0.0,0.0,0.0,0.0,0.0,0.0,0.0,0.0,0.0,0.0,0.0,0.0,0.0,0.0,0.0,0.0,0.0,0.0,0.0,0.0,0.0,0.0,0.0,0.0,0.0,0.0,0.0,0.0,0.0,0.0,0.0,0.0,0.0,0.0,0.0,0.0,0.0,0.0,0.0,0.0,0.0,0.0,0.0,0.0,0.0,0.0,0.0,0.0,0.0,0.0,0.0,0.0,0.0,0.0,0.0,0.0,2.2573,2.3162,2.3311,2.3124,2.1913,1.9596,0.0,0.0,0.0,0.0,0.0,0.0,0.0,0.0,0.0,0.0,0.0,0.0,0.0,0.0,0.0,0.0,0.0,0.0,0.0,0.0,0.0,0.0,0.0,0.0,0.0,0.0,0.0,0.0,0.0,0.0,0.0,0.0,0.0,0.0,0.0,0.0,0.0,0.0,0.0,0.0,0.0,0.0,0.0,0.0,0.0,0.0,0.0,0.0,0.0,0.0,0.0,0.0,0.0,0.0,0.0,0.0,0.0,0.0,0.0,0.0,0.0,0.0,0.0,0.0,0.0,0.0,0.0,0.0,0.0,0.0,0.0,0.0,0.0,0.0,0.0,0.0,0.0,0.0,0.0,0.0,0.0,0.0,0.0,0.0,0.0,0.0,0.0,0.0,0.0,0.0,0.0,0.0,0.0,0.0,0.0,0.0,0.0,0.0,0.0,0.0,0.0,0.0,0.0,0.0,0.0,0.0,0.0,0.0,2.384,2.3343,2.3386,2.4128,2.3476,2.222,0.0,0.0,0.0,0.0,0.0,0.0,0.0,0.0,0.0,0.0,0.0,0.0,0.0,0.0,0.0,0.0,0.0,0.0,0.0,0.0,0.0,0.0,0.0,0.0,0.0,0.0,0.0,0.0,0.0,0.0,0.0,0.0,0.0,0.0,0.0,0.0,0.0,0.0,0.0,0.0,0.0,0.0,0.0,0.0,0.0,0.0,0.0,0.0,0.0,0.0,0.0,0.0,0.0,0.0,0.0,0.0,0.0,0.0,0.0,0.0,0.0,0.0,0.0,0.0,0.0,0.0,0.0,0.0,0.0,0.0,0.0,0.0,0.0,0.0,0.0,0.0,0.0,0.0,0.0,0.0,0.0,0.0,0.0,0.0,0.0,0.0,0.0,0.0,0.0,0.0,0.0,0.0,0.0,0.0,0.0,0.0,0.0,0.0,0.0,0.0,0.0,0.0,0.0,0.0,0.0,0.0,0.0,0.0,0.0,2.1836,2.2016,2.3585,2.6481,2.3762,2.2375,0.0,0.0,0.0,0.0,0.0,0.0,0.0,0.0,0.0,0.0,0.0,0.0,0.0,0.0,0.0,0.0,0.0,0.0,0.0,0.0,0.0,0.0,0.0,0.0,0.0,0.0,0.0,0.0,0.0,0.0,0.0,0.0,0.0,0.0,0.0,0.0,0.0,0.0,0.0,0.0,0.0,0.0,0.0,0.0,0.0,0.0,0.0,0.0,0.0,0.0,0.0,0.0,0.0,0.0,0.0,0.0,0.0,0.0,0.0,0.0,0.0,0.0,0.0,0.0,0.0,0.0,0.0,0.0,0.0,0.0,0.0,0.0,0.0,0.0,0.0,0.0,0.0,0.0,0.0,0.0,0.0,0.0,0.0,0.0,0.0,0.0,0.0,0.0,0.0,0.0,0.0,0.0,0.0,0.0,0.0,0.0,0.0,0.0,0.0,0.0,0.0,0.0,0.0,0.0,0.0,0.0,0.0,0.0,0.0,2.2928,2.3863,2.5415,2.7382,2.4529,2.2706,0.0,0.0,0.0,0.0,0.0,0.0,0.0,0.0,0.0,0.0,0.0,0.0,0.0,0.0,0.0,0.0,0.0,0.0,0.0,0.0,0.0,0.0,0.0,0.0,0.0,0.0,0.0,0.0,0.0,0.0,0.0,0.0,0.0,0.0,0.0,0.0,0.0,0.0,0.0,0.0,0.0,0.0,0.0,0.0,0.0,0.0,0.0,0.0,0.0,0.0,0.0,0.0,0.0,0.0,0.0,0.0,0.0,0.0,0.0,0.0,0.0,0.0,0.0,0.0,0.0,0.0,0.0,0.0,0.0,0.0,0.0,0.0,0.0,0.0,0.0,0.0,0.0,0.0,0.0,0.0,0.0,0.0,0.0,0.0,0.0,0.0,0.0,0.0,0.0,0.0,0.0,0.0,0.0,0.0,0.0,0.0,0.0,0.0,0.0,0.0,0.0,0.0,0.0,0.0,0.0,0.0,0.0,0.0,2.4678,2.7672,2.9062,2.8698,2.666,2.5696,2.3374,0.0,0.0,0.0,0.0,0.0,0.0,0.0,0.0,0.0,0.0,0.0,0.0,0.0,0.0,0.0,0.0,0.0,0.0,0.0,0.0,0.0,0.0,0.0,0.0,0.0,0.0,0.0,0.0,0.0,0.0,0.0,0.0,0.0,0.0,0.0,0.0,0.0,0.0,0.0,0.0,0.0,0.0,0.0,0.0,0.0,0.0,0.0,0.0,0.0,0.0,0.0,0.0,0.0,0.0,0.0,0.0,0.0,0.0,0.0,0.0,0.0,0.0,0.0,0.0,0.0,0.0,0.0,0.0,0.0,0.0,0.0,0.0,0.0,0.0,0.0,0.0,0.0,0.0,0.0,0.0,0.0,0.0,0.0,0.0,0.0,0.0,0.0,0.0,0.0,0.0,0.0,0.0,0.0,0.0,0.0,0.0,0.0,0.0,0.0,0.0,0.0,0.0,0.0,0.0,0.0,0.0,0.0,0.0,0.0,2.6233,2.7046,2.8222,2.9601,2.6292,2.4639,0.0,0.0,0.0,0.0,0.0,0.0,0.0,0.0,0.0,0.0,0.0,0.0,0.0,0.0,0.0,0.0,0.0,0.0,0.0,0.0,0.0,0.0,0.0,0.0,0.0,0.0,0.0,0.0,0.0,0.0,0.0,0.0,0.0,0.0,0.0,0.0,0.0,0.0,0.0,0.0,0.0,0.0,0.0,0.0,0.0,0.0,0.0,0.0,0.0,0.0,0.0,0.0,0.0,0.0,0.0,0.0,0.0,0.0,0.0,0.0,0.0,0.0,0.0,0.0,0.0,0.0,0.0,0.0,0.0,0.0,0.0,0.0,0.0,0.0,0.0,0.0,0.0,0.0,0.0,0.0,0.0,0.0,0.0,0.0,0.0,0.0,0.0,0.0,0.0,0.0,0.0,0.0,0.0,0.0,0.0,0.0,0.0,0.0,0.0,0.0,0.0,0.0,0.0,0.0,0.0,0.0,0.0,0.0,0.0,2.9941,3.0494,3.1232,3.2118,2.8629,2.6737,2.6746,0.0,0.0,0.0,0.0,0.0,0.0,0.0,0.0,0.0,0.0,0.0,0.0,0.0,0.0,0.0,0.0,0.0,0.0,0.0,0.0,0.0,0.0,0.0,0.0,0.0,0.0,0.0,0.0,0.0,0.0,0.0,0.0,0.0,0.0,0.0,0.0,0.0,0.0,0.0,0.0,0.0,0.0,0.0,0.0,0.0,0.0,0.0,0.0,0.0,0.0,0.0,0.0,0.0,0.0,0.0,0.0,0.0,0.0,0.0,0.0,0.0,0.0,0.0,0.0,0.0,0.0,0.0,0.0,0.0,0.0,0.0,0.0,0.0,0.0,0.0,0.0,0.0,0.0,0.0,0.0,0.0,0.0,0.0,0.0,0.0,0.0,0.0,0.0,0.0,0.0,0.0,0.0,0.0,0.0,0.0,0.0,0.0,0.0,0.0,0.0,0.0,0.0,0.0,0.0,0.0,0.0,0.0,0.0,3.7566,3.838,3.7212,3.4054,3.234,2.9621,0.0,0.0,0.0,0.0,0.0,0.0,0.0,0.0,0.0,0.0,0.0,0.0,0.0,0.0,0.0,0.0,0.0,0.0,0.0,0.0,0.0,0.0,0.0,0.0,0.0,0.0,0.0,0.0,0.0,0.0,0.0,0.0,0.0,0.0,0.0,0.0,0.0,0.0,0.0,0.0,0.0,0.0,0.0,0.0,0.0,0.0,0.0,0.0,0.0,0.0,0.0,0.0,0.0,0.0,0.0,0.0,0.0,0.0,0.0,0.0,0.0,0.0,0.0,0.0,0.0,0.0,0.0,0.0,0.0,0.0,0.0,0.0,0.0,0.0,0.0,0.0,0.0,0.0,0.0,0.0,0.0,0.0,0.0,0.0,0.0,0.0,0.0,0.0,0.0,0.0,0.0,0.0,0.0,0.0,0.0,0.0,0.0,0.0,0.0,0.0,0.0,0.0,0.0,0.0,0.0,0.0,0.0,0.0,0.0,4.0908,4.28,4.2232,3.8973,3.5851,3.2774,0.0,0.0,0.0,0.0,0.0,0.0,0.0,0.0,0.0,0.0,0.0,0.0,0.0,0.0,0.0,0.0,0.0,0.0,0.0,0.0,0.0,0.0,0.0,0.0,0.0,0.0,0.0,0.0,0.0,0.0,0.0,0.0,0.0,0.0,0.0,0.0,0.0,0.0,0.0,0.0,0.0,0.0,0.0,0.0,0.0,0.0,0.0,0.0,0.0,0.0,0.0,0.0,0.0,0.0,0.0,0.0,0.0,0.0,0.0,0.0,0.0,0.0,0.0,0.0,0.0,0.0,0.0,0.0,0.0,0.0,0.0,0.0,0.0,0.0,0.0,0.0,0.0,0.0,0.0,0.0,0.0,0.0,0.0,0.0,0.0,0.0,0.0,0.0,0.0,0.0,0.0,0.0,0.0,0.0,0.0,0.0,0.0,0.0,0.0,0.0,0.0,0.0,0.0,0.0,0.0,0.0,0.0,0.0,4.0321,4.4082,4.6148,4.6218,4.4345,3.9646,3.5599,0.0,0.0,0.0,0.0,0.0,0.0,0.0,0.0,0.0,0.0,0.0,0.0,0.0,0.0,0.0,0.0,0.0,0.0,0.0,0.0,0.0,0.0,0.0,0.0,0.0,0.0,0.0,0.0,0.0,0.0,0.0,0.0,0.0,0.0,0.0,0.0,0.0,0.0,0.0,0.0,0.0,0.0,0.0,0.0,0.0,0.0,0.0,0.0,0.0,0.0,0.0,0.0,0.0,0.0,0.0,0.0,0.0,0.0,0.0,0.0,0.0,0.0,0.0,0.0,0.0,0.0,0.0,0.0,0.0,0.0,0.0,0.0,0.0,0.0,0.0,0.0,0.0,0.0,0.0,0.0,0.0,0.0,0.0,0.0,0.0,0.0,0.0,0.0,0.0,0.0,0.0,0.0,0.0,0.0,0.0,0.0,0.0,0.0,0.0,0.0,0.0,0.0,0.0,0.0,0.0,0.0,0.0,0.0,4.339,4.7031,4.8604,4.9351,4.9019,4.3276,3.8136,0.0,0.0,0.0,0.0,0.0,0.0,0.0,0.0,0.0,0.0,0.0,0.0,0.0,0.0,0.0,0.0,0.0,0.0,0.0,0.0,0.0,0.0,0.0,0.0,0.0,0.0,0.0,0.0,0.0,0.0,0.0,0.0,0.0,0.0,0.0,0.0,0.0,0.0,0.0,0.0,0.0,0.0,0.0,0.0,0.0,0.0,0.0,0.0,0.0,0.0,0.0,0.0,0.0,0.0,0.0,0.0,0.0,0.0,0.0,0.0,0.0,0.0,0.0,0.0,0.0,0.0,0.0,0.0,0.0,0.0,0.0,0.0,0.0,0.0,0.0,0.0,0.0,0.0,0.0,0.0,0.0,0.0,0.0,0.0,0.0,0.0,0.0,0.0,0.0,0.0,0.0,0.0,0.0,0.0,0.0,0.0,0.0,0.0,0.0,0.0,0.0,0.0,0.0,0.0,0.0,0.0,0.0,0.0,4.5242,4.9496,5.0408,5.0452,4.9676,4.4886,4.0223,0.0,0.0,0.0,0.0,0.0,0.0,0.0,0.0,0.0,0.0,0.0,0.0,0.0,0.0,0.0,0.0,0.0,0.0,0.0,0.0,0.0,0.0,0.0,0.0,0.0,0.0,0.0,0.0,0.0,0.0,0.0,0.0,0.0,0.0,0.0,0.0,0.0,0.0,0.0,0.0,0.0,0.0,0.0,0.0,0.0,0.0,0.0,0.0,2.7152,0.0,0.0,0.0,0.0,0.0,0.0,0.0,0.0,0.0,0.0,0.0,0.0,0.0,0.0,0.0,0.0,0.0,0.0,0.0,0.0,0.0,0.0,0.0,0.0,0.0,0.0,0.0,0.0,0.0,0.0,0.0,0.0,0.0,0.0,0.0,0.0,0.0,0.0,0.0,0.0,0.0,0.0,0.0,0.0,0.0,0.0,0.0,0.0,0.0,0.0,0.0,0.0,0.0,0.0,0.0,0.0,0.0,0.0,0.0,4.6468,5.0416,5.0972,5.1082,5.0745,4.7749,4.3287,0.0,0.0,0.0,0.0,0.0,0.0,0.0,0.0,0.0,0.0,0.0,0.0,0.0,0.0,0.0,0.0,0.0,0.0,0.0,0.0,0.0,0.0,0.0,0.0,0.0,0.0,0.0,0.0,0.0,0.0,0.0,0.0,0.0,0.0,0.0,0.0,0.0,0.0,0.0,0.0,0.0,0.0,0.0,0.0,0.0,0.0,0.0,0.0,0.0,0.0,0.0,0.0,0.0,0.0,0.0,0.0,0.0,0.0,0.0,0.0,0.0,0.0,0.0,0.0,0.0,0.0,0.0,0.0,0.0,0.0,0.0,0.0,0.0,0.0,0.0,0.0,0.0,0.0,0.0,0.0,0.0,0.0,0.0,0.0,0.0,0.0,0.0,0.0,0.0,0.0,0.0,0.0,0.0,0.0,0.0,0.0,0.0,0.0,0.0,0.0,0.0,0.0,0.0,0.0,0.0,0.0,0.0,4.3139,4.7042,5.0814,5.1035,5.133,5.1801,5.0472,4.6205,3.8836,0.0,0.0,0.0,0.0,0.0,0.0,0.0,0.0,0.0,0.0,0.0,0.0,0.0,0.0,0.0,0.0,0.0,0.0,0.0,0.0,0.0,0.0,0.0,0.0,0.0,0.0,0.0,0.0,0.0,0.0,0.0,0.0,0.0,0.0,0.0,0.0,0.0,0.0,2.5123,2.7908,0.0,0.0,0.0,0.0,0.0,0.0,0.0,0.0,2.8564,0.0,0.0,0.0,0.0,0.0,0.0,0.0,0.0,0.0,0.0,0.0,0.0,0.0,0.0,0.0,0.0,0.0,0.0,0.0,0.0,0.0,0.0,0.0,0.0,0.0,0.0,0.0,0.0,0.0,0.0,0.0,0.0,0.0,0.0,0.0,0.0,0.0,0.0,0.0,0.0,0.0,0.0,0.0,0.0,0.0,0.0,0.0,0.0,0.0,0.0,0.0,0.0,0.0,0.0,0.0,0.0,4.2572,4.3228,4.6209,5.1738,5.1637,5.125,5.0702,5.0404,4.7059,4.0435,0.0,0.0,0.0,0.0,0.0,0.0,0.0,0.0,0.0,0.0,0.0,0.0,0.0,0.0,0.0,0.0,0.0,0.0,0.0,0.0,0.0,0.0,0.0,0.0,0.0,0.0,0.0,0.0,0.0,0.0,0.0,0.0,0.0,0.0,0.0,0.0,0.0,0.0,0.0,3.0979,3.2109,0.0,0.0,0.0,0.0,0.0,0.0,0.0,0.0,2.8779,0.0,0.0,0.0,0.0,0.0,0.0,0.0,0.0,0.0,0.0,0.0,0.0,0.0,0.0,0.0,0.0,0.0,0.0,0.0,0.0,0.0,0.0,0.0,0.0,0.0,0.0,0.0,0.0,0.0,0.0,0.0,0.0,0.0,0.0,0.0,0.0,0.0,0.0,0.0,0.0,0.0,0.0,0.0,0.0,0.0,0.0,0.0,0.0,0.0,0.0,0.0,0.0,0.0,0.0,0.0,4.2535,4.5506,4.8569,5.1674,5.125,5.0757,5.0387,5.0435,4.7279,0.0,0.0,0.0,0.0,0.0,0.0,0.0,0.0,0.0,0.0,0.0,0.0,0.0,0.0,0.0,0.0,0.0,0.0,0.0,0.0,0.0,0.0,0.0,0.0,0.0,0.0,0.0,0.0,0.0,0.0,0.0,0.0,0.0,0.0,0.0,0.0,0.0,0.0,0.0,0.0,3.2634,3.3776,3.5031,0.0,0.0,0.0,0.0,0.0,0.0,3.0152,2.9467,0.0,0.0,0.0,0.0,0.0,0.0,0.0,0.0,0.0,0.0,0.0,0.0,0.0,0.0,0.0,0.0,0.0,0.0,0.0,0.0,0.0,0.0,0.0,0.0,0.0,0.0,0.0,0.0,0.0,0.0,0.0,0.0,0.0,0.0,0.0,0.0,0.0,0.0,0.0,0.0,0.0,0.0,0.0,0.0,0.0,0.0,0.0,0.0,0.0,0.0,0.0,0.0,0.0,0.0,0.0,4.1969,4.7016,5.0309,5.1449,5.0794,5.0314,5.0221,5.0101,4.6948,0.0,0.0,0.0,0.0,0.0,0.0,0.0,0.0,0.0,0.0,0.0,0.0,0.0,0.0,0.0,0.0,0.0,0.0,0.0,0.0,0.0,0.0,0.0,0.0,0.0,0.0,0.0,0.0,0.0,0.0,0.0,0.0,0.0,0.0,0.0,0.0,0.0,0.0,0.0,0.0,0.0,3.5152,3.674,3.5259,0.0,0.0,0.0,0.0,3.2655,3.2239,0.0,0.0,0.0,0.0,0.0,0.0,0.0,0.0,0.0,0.0,0.0,0.0,0.0,0.0,0.0,0.0,0.0,0.0,0.0,0.0,0.0,0.0,0.0,0.0,0.0,0.0,0.0,0.0,0.0,0.0,0.0,0.0,0.0,0.0,0.0,0.0,0.0,0.0,0.0,0.0,0.0,0.0,0.0,0.0,0.0,0.0,0.0,0.0,0.0,0.0,0.0,0.0,0.0,0.0,0.0,0.0,4.1696,4.4897,4.8121,5.1289,5.0613,5.0134,5.0097,4.8756,4.555,0.0,0.0,0.0,0.0,0.0,0.0,0.0,0.0,0.0,0.0,0.0,0.0,0.0,0.0,0.0,0.0,0.0,0.0,0.0,0.0,0.0,0.0,0.0,0.0,0.0,0.0,0.0,0.0,0.0,0.0,0.0,0.0,0.0,0.0,0.0,0.0,0.0,0.0,0.0,0.0,0.0,3.6501,3.543,3.4916,3.4794,0.0,0.0,3.5822,3.7941,3.8111,0.0,0.0,0.0,0.0,0.0,0.0,0.0,0.0,0.0,0.0,0.0,0.0,0.0,0.0,0.0,0.0,0.0,0.0,0.0,0.0,0.0,0.0,0.0,0.0,0.0,0.0,0.0,0.0,0.0,0.0,0.0,0.0,0.0,0.0,0.0,0.0,0.0,0.0,0.0,0.0,0.0,0.0,0.0,0.0,0.0,0.0,0.0,0.0,0.0,0.0,0.0,0.0,0.0,0.0,0.0,4.0578,4.305,4.75,5.0775,5.2699,5.1955,5.1249,5.0778,4.9307,4.5842,0.0,0.0,0.0,0.0,0.0,0.0,0.0,0.0,0.0,0.0,0.0,0.0,0.0,0.0,0.0,0.0,0.0,0.0,0.0,0.0,0.0,0.0,0.0,0.0,0.0,0.0,0.0,0.0,0.0,0.0,0.0,0.0,0.0,0.0,0.0,0.0,0.0,0.0,0.0,0.0,0.0,0.0,4.0625,3.8924,0.0,0.0,0.0,3.8028,3.9032,0.0,0.0,0.0,0.0,0.0,0.0,0.0,0.0,0.0,0.0,0.0,0.0,0.0,0.0,0.0,0.0,0.0,0.0,0.0,0.0,0.0,0.0,0.0,0.0,0.0,0.0,0.0,0.0,0.0,0.0,0.0,0.0,0.0,0.0,0.0,0.0,0.0,0.0,0.0,0.0,0.0,0.0,0.0,0.0,0.0,0.0,0.0,0.0,0.0,0.0,0.0,0.0,0.0,0.0,0.0,0.0,0.0,4.3446,4.9735,5.3254,5.3743,5.2961,5.2335,5.19,5.025,0.0,0.0,0.0,0.0,0.0,0.0,0.0,0.0,0.0,0.0,0.0,0.0,0.0,0.0,0.0,0.0,0.0,0.0,0.0,0.0,0.0,0.0,0.0,0.0,0.0,0.0,0.0,1.7843,0.0,0.0,0.0,0.0,0.0,0.0,0.0,0.0,0.0,0.0,0.0,0.0,0.0,0.0,3.8788,4.3912,4.2098,4.1064,0.0,0.0,4.056,4.1163,4.2156,4.1829,0.0,0.0,0.0,0.0,0.0,0.0,0.0,0.0,0.0,0.0,0.0,0.0,0.0,0.0,0.0,0.0,0.0,0.0,0.0,0.0,0.0,0.0,0.0,0.0,0.0,0.0,0.0,0.0,0.0,0.0,0.0,0.0,0.0,0.0,0.0,0.0,0.0,0.0,0.0,0.0,0.0,0.0,0.0,0.0,0.0,0.0,0.0,0.0,0.0,0.0,0.0,0.0,0.0,0.0,0.0,4.1876,4.9614,5.378,5.3675,5.2915,5.2842,5.3458,5.1249,4.7256,0.0,0.0,0.0,0.0,0.0,0.0,0.0,0.0,0.0,0.0,0.0,0.0,0.0,0.0,0.0,0.0,0.0,0.0,0.0,0.0,0.0,0.0,0.0,0.0,0.0,0.0,0.0,0.0,0.0,0.0,0.0,0.0,0.0,0.0,0.0,0.0,0.0,0.0,0.0,0.0,0.0,3.8053,4.1402,4.223,4.3336,0.0,0.0,4.4206,4.6394,4.6691,4.4892,3.9528,0.0,0.0,0.0,0.0,0.0,0.0,0.0,0.0,0.0,0.0,0.0,0.0,0.0,0.0,0.0,0.0,0.0,0.0,0.0,0.0,0.0,0.0,0.0,0.0,0.0,0.0,0.0,0.0,0.0,0.0,0.0,0.0,0.0,0.0,0.0,0.0,0.0,0.0,0.0,0.0,0.0,0.0,0.0,0.0,0.0,0.0,0.0,0.0,0.0,0.0,0.0,0.0,0.0,4.3219,4.4416,5.206,5.62,5.6573,5.679,5.6573,5.5884,5.4037,5.041,0.0,0.0,0.0,0.0,0.0,0.0,0.0,0.0,0.0,0.0,0.0,0.0,0.0,0.0,0.0,0.0,0.0,0.0,0.0,0.0,0.0,0.0,0.0,0.0,0.0,0.0,0.0,0.0,2.8202,2.8443,2.5984,0.0,0.0,0.0,0.0,0.0,0.0,0.0,0.0,0.0,0.0,4.2069,4.4772,4.5008,0.0,0.0,4.6211,4.5805,4.7647,4.7021,4.548,4.2837,4.0671,0.0,0.0,0.0,0.0,0.0,0.0,0.0,0.0,0.0,0.0,0.0,0.0,0.0,0.0,0.0,0.0,0.0,0.0,0.0,0.0,0.0,0.0,0.0,0.0,0.0,0.0,0.0,0.0,0.0,0.0,0.0,0.0,0.0,0.0,0.0,0.0,0.0,0.0,0.0,0.0,0.0,0.0,0.0,0.0,0.0,0.0,0.0,0.0,0.0,0.0,0.0,0.0,4.3919,4.5655,5.339,5.7686,5.8228,5.8806,5.8714,5.7913,5.6391,5.3116,0.0,0.0,0.0,0.0,0.0,0.0,0.0,0.0,0.0,0.0,0.0,0.0,0.0,0.0,0.0,0.0,0.0,0.0,0.0,0.0,0.0,0.0,0.0,0.0,0.0,0.0,0.0,0.0,3.0165,2.9999,2.716,0.0,0.0,0.0,0.0,0.0,0.0,0.0,0.0,0.0,0.0,4.5105,4.7979,4.7721,4.7611,4.8675,4.7609,4.6985,4.7829,4.7349,4.6323,4.4635,0.0,0.0,0.0,0.0,0.0,0.0,0.0,0.0,0.0,0.0,0.0,0.0,0.0,0.0,0.0,0.0,0.0,0.0,0.0,0.0,0.0,0.0,0.0,0.0,0.0,0.0,0.0,0.0,0.0,0.0,2.2262,0.0,0.0,0.0,0.0,0.0,0.0,0.0,0.0,0.0,0.0,0.0,0.0,0.0,0.0,0.0,0.0,0.0,0.0,0.0,0.0,0.0,0.0,4.4382,4.4492,5.3145,5.7672,5.8053,5.8071,5.8574,5.9417,5.8021,5.4967,5.0314,0.0,0.0,0.0,0.0,0.0,0.0,0.0,0.0,0.0,0.0,0.0,0.0,0.0,0.0,0.0,0.0,0.0,0.0,0.0,0.0,0.0,0.0,0.0,0.0,0.0,0.0,2.434,2.6766,2.8668,0.0,0.0,0.0,0.0,0.0,0.0,0.0,0.0,0.0,0.0,4.4294,4.625,5.0105,5.0031,4.9517,4.9591,4.8857,4.8049,4.7387,4.8258,4.7889,0.0,0.0,0.0,0.0,0.0,0.0,0.0,0.0,0.0,0.0,0.0,0.0,0.0,0.0,0.0,0.0,0.0,0.0,0.0,0.0,0.0,0.0,0.0,0.0,0.0,0.0,0.0,2.7044,2.6154,0.0,0.0,0.0,0.0,0.0,0.0,0.0,0.0,0.0,0.0,0.0,4.1215,4.2665,0.0,0.0,0.0,0.0,0.0,0.0,0.0,0.0,0.0,0.0,0.0,0.0,4.5583,4.7041,5.5343,5.9727,5.9609,6.0226,6.0119,5.9242,5.8916,5.617,5.0545,0.0,0.0,0.0,0.0,0.0,0.0,0.0,0.0,0.0,0.0,0.0,0.0,0.0,0.0,0.0,0.0,0.0,0.0,0.0,0.0,0.0,0.0,0.0,0.0,0.0,2.8672,0.0,0.0,0.0,0.0,0.0,0.0,0.0,0.0,0.0,0.0,0.0,4.1778,4.4113,4.6948,4.9404,5.1109,5.0903,5.0809,0.0,0.0,0.0,0.0,0.0,0.0,0.0,0.0,0.0,0.0,0.0,0.0,0.0,0.0,4.4959,3.9061,3.7071,3.6445,3.6796,0.0,0.0,0.0,0.0,0.0,0.0,0.0,0.0,0.0,0.0,0.0,0.0,0.0,0.0,3.2301,0.0,3.077,0.0,0.0,0.0,0.0,0.0,0.0,0.0,0.0,4.394,4.631,4.6564,4.8247,4.799,0.0,4.592,4.3313,0.0,0.0,0.0,0.0,0.0,0.0,0.0,0.0,4.7024,4.9961,5.7152,6.0873,6.0774,6.1395,6.1184,6.0164,5.9541,5.7175,5.2715,4.9674,4.6306,0.0,0.0,0.0,0.0,0.0,0.0,0.0,0.0,0.0,0.0,0.0,0.0,0.0,0.0,0.0,0.0,0.0,0.0,0.0,0.0,0.0,0.0,0.0,3.0914,0.0,0.0,0.0,0.0,0.0,0.0,0.0,0.0,0.0,3.7283,4.182,4.5809,4.7537,4.9881,5.1761,5.2563,0.0,0.0,0.0,0.0,0.0,0.0,0.0,4.8695,4.8902,4.7335,4.5786,4.4957,4.7507,4.9242,4.8,0.0,0.0,4.4382,4.2477,4.1965,4.2189,4.3358,4.4199,4.3943,4.6134,4.7988,0.0,0.0,0.0,0.0,0.0,0.0,0.0,0.0,3.7646,3.7611,0.0,3.5788,0.0,0.0,0.0,0.0,0.0,3.8977,0.0,0.0,5.1652,5.4057,5.3688,5.3662,5.3732,5.3758,5.2969,5.1107,4.8072,4.5436,0.0,0.0,0.0,0.0,0.0,0.0,4.8732,5.335,5.8358,6.1077,6.1327,6.1432,6.1675,6.2045,5.9943,5.8114,5.6621,5.1645,4.8748,4.8664,3.974,0.0,0.0,0.0,0.0,0.0,0.0,0.0,0.0,0.0,0.0,0.0,0.0,0.0,0.0,0.0,0.0,0.0,0.0,0.0,0.0,3.139,0.0,0.0,0.0,0.0,0.0,0.0,0.0,0.0,0.0,0.0,4.3159,4.4782,4.7827,5.2537,0.0,0.0,0.0,0.0,5.3039,5.2854,5.2125,5.1363,5.0652,5.1528,5.2148,5.1683,0.0,0.0,4.9309,5.2254,5.3673,5.0012,5.2666,5.4669,5.2118,4.9586,4.8229,4.8743,4.9458,5.0281,5.1302,5.3784,5.655,4.4097,0.0,0.0,0.0,0.0,3.9124,4.0609,4.2891,4.2758,4.2079,4.1032,4.0488,0.0,0.0,0.0,0.0,0.0,0.0,4.4765,4.9275,5.1409,5.3987,5.6883,5.7116,5.6982,5.64,5.6884,5.6677,5.5826,5.5519,4.9079,3.7115,0.0,0.0,0.0,0.0,5.1987,5.5063,5.8909,6.117,6.1462,6.1757,6.1734,6.1325,6.0392,5.9317,5.8146,5.7102,5.4419,4.9771,4.6665,0.0,0.0,0.0,0.0,0.0,0.0,0.0,0.0,0.0,0.0,0.0,0.0,0.0,0.0,0.0,0.0,0.0,0.0,0.0,3.0978,3.5506,3.7824,0.0,0.0,0.0,0.0,0.0,0.0,0.0,0.0,0.0,4.9564,5.0386,5.1411,0.0,0.0,5.3841,5.488,5.4792,5.5001,5.6071,5.5739,0.0,0.0,5.4464,5.3971,5.4909,5.4899,5.4512,5.4044,5.4823,5.5178,5.4171,5.5544,5.6509,5.5812,5.417,5.3132,5.3736,5.4086,5.4484,5.5315,5.6696,5.7745,5.0622,4.5666,4.3663,4.3418,4.4307,4.452,4.6169,4.8711,4.8549,4.8028,4.7178,4.6358,4.5152,4.3602,4.2382,0.0,0.0,0.0,4.8796,5.374,5.4191,5.6038,5.8875,5.9176,5.8825,5.8144,5.8705,5.8998,5.8998,5.9438,5.4193,4.3855,0.0,0.0,4.5754,5.0617,5.4559,5.7462,5.9939,6.1274,6.1436,6.1596,6.1313,6.0671,6.0378,5.9833,5.9005,5.9357,5.7769,5.3891,5.1267,4.8251,0.0,0.0,0.0,0.0,0.0,0.0,0.0,0.0,0.0,0.0,0.0,2.8948,0.0,0.0,0.0,0.0,3.3398,3.5573,3.8823,4.1705,0.0,0.0,0.0,0.0,0.0,0.0,0.0,4.7706,5.0868,5.3182,5.4079,5.454,5.4652,5.4424,5.4652,5.5249,5.6028,0.0,5.6361,5.7213,5.7032,5.6932,5.7254,5.6071,5.5444,5.6446,5.6272,5.602,5.6315,5.6465,5.651,5.655,5.7113,5.7666,5.7423,5.6553,5.6206,5.692,5.7369,5.7729,5.8107,5.8716,5.9179,5.5066,5.3778,5.0183,4.9049,4.9548,4.987,5.1795,5.4598,5.4182,5.4247,5.4557,5.2537,5.0922,4.9465,4.6637,0.0,5.0771,5.1326,5.4121,5.8597,5.8665,5.9272,6.0182,6.025,5.9945,5.9302,5.9302,5.9268,5.9302,5.9302,5.7543,5.4296,5.4398,5.4025,5.3212,5.4226,5.664,6.0251,6.0884,6.125,6.1465,6.1119,6.0728,6.0216,6.0182,5.9885,5.9287,5.914,5.9248,5.9375,5.4222,5.1309,5.1184,0.0,0.0,0.0,0.0,0.0,0.0,0.0,0.0,0.0,0.0,0.0,0.0,0.0,0.0,0.0,4.3416,0.0,5.0248,4.847,0.0,0.0,0.0,4.4075,4.5645,4.8663,5.0922,5.16,0.0,0.0,5.6962,5.7199,5.7436,5.7468,5.6999,5.6912,5.7553,5.7444,5.73,5.7251,5.6982,5.6916,5.7426,5.7187,5.7086,5.7389,5.715,5.7285,5.732,5.7734,5.7872,5.7423,5.7979,5.8528,5.7816,5.7961,5.8264,5.8863,5.9407,5.9834,5.9941,6.0511,6.1045,5.6877,5.606,5.5111,5.4192,5.3307,5.3345,5.416,5.5417,5.5314,5.5314,5.5383,5.4839,5.4498,5.409,5.3343,5.3513,5.443,5.4567,5.5893,5.8065,5.871,5.9722,6.0994,6.1569,6.1772,6.1603,6.1569,6.1569,6.1569,6.1569,6.1129,6.0317,6.0359,5.791,5.3481,5.5996,5.8428,6.0251,5.9918,6.0331,6.1595,6.1669,6.1391,6.0762,6.0917,6.0385,5.9174,5.9573,5.9648,5.918,5.7789,5.6571,5.5485,4.7717,0.0,0.0,0.0,0.0,0.0,0.0,0.0,0.0,0.0,3.8596,3.29,0.0,3.9577,0.0,4.9184,5.0918,4.8338,4.9117,0.0,0.0,4.8769,4.8699,5.3849,5.344,5.3814,5.65,5.7754,5.8437,5.8449,5.8559,5.8594,5.855,5.7513,5.6888,5.7254,5.7582,5.8148,5.9081,5.9185,5.9356,5.9943,6.022,6.0081,6.022,6.0185,6.0254,6.022,6.0358,6.0427,6.0254,6.0427,6.0635,6.0599,6.0769,6.0901,6.1225,6.0685,6.0156,6.0755,6.146,6.2117,5.8626,5.8254,5.814,5.7167,5.5581,5.5581,5.5987,5.6697,5.6697,5.6697,5.6697,5.6697,5.6664,5.6664,5.6697,5.6697,5.6697,5.6664,5.7476,5.8896,5.9674,6.0825,6.2313,6.3024,6.3362,6.3362,6.3362,6.3193,6.2922,6.2888,6.264,6.2189,6.2189,6.0247,5.662,5.8696,5.9977,6.0122,6.0388,6.1217,6.2613,6.2427,6.1614,6.0165,6.0849,6.0283,5.8118,5.9066,5.9133,5.8084,5.7408,5.6833,5.6365,5.1083,4.7842,0.0,0.0,0.0,0.0,0.0,0.0,0.0,0.0,0.0,0.0,0.0,4.5149,0.0,5.2263,5.4035,5.1108,5.26,5.4189,5.5114,5.3531,5.3828,5.7588,5.6834,5.6775,5.8577,5.8955,5.9269,5.9495,5.953,5.9668,5.9978,5.9323,5.8736,5.8628,5.8944,5.9598,6.0423,6.0313,6.0305,6.0968,6.1146,6.1323,6.1323,6.1323,6.1323,6.1323,6.1286,6.1286,6.1323,6.1286,6.1358,6.1535,6.1571,6.1641,6.1745,6.1744,6.1671,6.1726,6.2007,6.2354,6.0114,6.0038,5.9886,5.8774,5.7167,5.7167,5.7273,5.7378,5.7378,5.7548,5.7853,5.8017,5.8186,5.8186,5.8152,5.8186,5.8186,5.8186,5.8863,6.0114,6.0926,6.2009,6.326,6.3971,6.4309,6.4309,6.4309,6.4005,6.3396,6.3463,6.3079,6.2165,6.2232,6.1689,6.0698,6.148,6.1298,6.0026,6.1251,6.2465,6.3367,6.2848,6.1434,5.9295,6.0554,5.9979,5.7273,5.8423,5.8524,5.7137,5.5953,5.5547,5.6055,5.3922,5.1799,0.0,4.8563,0.0,0.0,0.0,0.0,0.0,0.0,0.0,0.0,5.0901,5.1308,4.9514,5.4022,5.6635,5.5864,5.6892,5.7842,5.8365,5.8305,5.8343,5.866,5.9151,5.9341,5.915,5.9627,6.0108,6.022,6.0289,6.0391,6.0839,6.0905,6.0733,6.0529,6.0596,6.0799,6.1002,6.0813,6.0882,6.1097,6.1384,6.1737,6.1772,6.191,6.1772,6.2048,6.2044,6.1937,6.2013,6.2113,6.2044,6.191,6.1979,6.1979,6.2189,6.3086,6.3474,6.2753,6.275,6.2748,6.0038,5.9809,5.9843,5.9497,5.8974,5.8974,5.7291,5.45,5.46,5.5656,5.7247,5.897,5.9674,5.9674,5.9674,5.9674,5.9674,5.9674,5.9844,6.0114,6.0926,6.1467,6.1738,6.2448,6.2787,6.2821,6.2787,6.2719,6.2618,6.3226,6.3269,6.2939,6.3545,6.3232,6.2149,0.0,0.0,0.0,6.0258,6.0654,6.0998,6.1026,6.0549,5.9708,6.0748,0.0,5.8727,5.9438,5.9505,5.866,5.8896,0.0,0.0,0.0,0.0,0.0,0.0,0.0,0.0,0.0,0.0,0.0,5.0947,5.1225,5.1479,5.4988,5.6096,5.3422,5.5933,5.7886,5.798,5.8202,5.8619,5.9241,5.9039,5.9001,5.9404,5.9763,6.0013,6.0013,6.0566,6.098,6.0799,6.0387,6.0007,6.0206,6.0442,6.0955,6.1542,6.1005,6.0632,6.1114,6.1762,6.2144,6.211,6.2733,6.3358,6.3876,6.4048,6.4255,6.4703,6.491,6.4979,6.4876,6.5048,6.4979,6.4945,6.5014,6.4807,6.4979,6.5221,6.5054,6.3643,6.4373,6.5278,6.1917,0.0,6.1709,6.1073,0.0,6.0147,5.8463,5.5753,5.6498,5.7446,5.8564,5.9607,6.008,6.0047,5.9004,5.8841,5.9112,5.8099,5.8608,6.0299,6.1079,6.212,6.3497,6.4208,6.458,6.458,6.4498,6.4295,6.4072,6.4329,6.4166,6.3515,6.3918,6.3668,6.2913,6.3245,6.2993,6.2179,6.2146,6.2481,6.315,6.3233,6.2609,6.1211,0.0,0.0,0.0,0.0,0.0,0.0,0.0,0.0,0.0,0.0,0.0,5.5037,5.3107,5.1975,5.2091,5.2319,5.3414,5.5694,5.6666,5.6775,5.6106,5.8084,5.8733,5.7278,5.8637,5.9632,5.9657,5.9966,6.0215,6.0427,6.029,6.0117,5.9974,6.0082,6.0013,5.9737,6.0289,6.0804,6.1002,6.1448,6.1684,6.1838,6.2563,6.3152,6.346,6.2706,6.2261,6.2946,6.3652,6.4036,6.4036,6.4387,6.4807,6.5221,6.529,6.5462,6.5807,6.5876,6.5876,6.5876,6.5876,6.5876,6.5876,6.5876,6.5876,6.5911,6.6186,6.6221,6.5393,6.56,6.5952,6.3869,6.3869,6.3833,6.2766,6.1079,6.1341,6.0427,5.8908,0.0,0.0,0.0,6.0723,6.0892,6.0757,5.9112,5.871,5.9186,5.7562,5.8379,6.1189,6.1766,6.3283,6.5493,6.6136,6.644,6.6356,6.6188,6.5884,6.5444,6.5413,6.4976,6.4187,6.427,6.43,6.4034,6.4034,6.4266,6.4697,6.42,6.4461,6.5493,6.5526,6.4606,6.2651,6.3328,6.2482,5.9945,5.9674,5.8998,5.7645,5.69,5.6765,5.7306,5.7153,5.7875,5.9617,5.984,5.9902,5.9902,6.0167,6.0299,6.0299,6.0858,6.0963,6.0399,6.0323,6.0212,6.0219,6.0586,6.0744,6.0648,6.1155,6.1465,6.1294,6.1327,6.1047,6.0704,6.0773,6.0703,6.0185,6.0873,6.1284,6.1821,6.2672,6.3486,6.3913,6.4254,6.5309,6.5378,6.4469,6.3922,6.4298,6.4667,6.5302,6.5405,6.5627,6.5911,6.6048,6.6083,6.6117,6.6255,6.6393,6.6462,6.6669,6.6566,6.6773,6.6738,6.6911,6.6669,6.6669,6.7152,6.7601,6.7532,6.7118,6.6738,6.3784,6.3648,6.4281,6.3929,6.296,6.359,6.3548,6.293,6.1761,6.1325,6.1427,6.3204,6.3971,6.3937,6.3632,6.3565,6.3632,6.3408,6.3577,0.0,6.4072,6.4343,6.4749,6.485,6.4836,6.4705,6.4788,6.472,6.4638,6.5127,6.5245,6.5058,6.5955,6.6623,6.6982,6.7016,6.6751,6.6187,6.3909,6.2933,6.3283,6.3482,6.3559,6.3429,6.4072,6.3971,6.2922,6.2245,6.1535,6.0689,5.9911,5.9539,5.9607,5.9911,6.0232,6.054,6.0905,6.1049,6.1049,6.1119,6.1119,6.1119,6.1223,6.1363,6.1535,6.1011,6.0621,6.0592,5.9966,5.9599,6.021,6.049,6.094,6.1311,6.1353,6.1525,6.2084,6.269,6.3151,6.3531,6.4415,6.4496,6.4273,6.405,6.3825,6.3724,6.4211,6.4369,6.5413,6.506,6.4415,6.3968,6.4387,6.4731,6.5248,6.5531,6.629,6.6738,6.6945,6.7187,6.7704,6.8221,6.8566,6.8739,6.9084,6.9463,6.9566,6.9773,6.9497,6.9394,6.9566,6.9704,6.9635,6.9532,6.9187,6.5802,6.5869,6.6168,6.6045,6.5657,6.6257,6.6544,6.6436,6.5766,6.4546,6.3306,6.4174,6.4613,6.4478,6.3408,6.3148,6.3487,6.2751,6.326,6.4742,6.5019,6.5782,6.6778,6.6846,6.6761,6.6709,6.6761,6.6846,6.6913,6.6959,6.692,6.6778,6.7179,6.7372,6.7612,6.7612,6.7538,6.7264,6.6146,6.5167,6.4656,6.5245,6.548,6.5324,6.5256,6.5053,6.4715,6.3971,6.3429,6.3125,6.2753,6.255,6.2516,6.2115,6.1824,6.1941,6.141,6.118,6.1289,6.1525,6.2071,6.2713,6.293,6.325,6.3777,6.2053,6.1051,6.1081,6.1259,6.1671,6.2032,6.2758,6.3422,6.3777,6.3846,6.3727,6.3707,6.3851,6.4036,6.4036,6.4393,6.4684,6.4449,6.4778,6.4924,6.4796,6.5067,6.5977,6.7209,6.7124,6.6642,6.598,6.6548,6.7152,6.7187,6.7842,6.8428,6.8773,6.8842,6.8946,6.9291,6.9704,6.9842,6.9877,7.0222,7.036,7.0394,7.0394,7.0394,7.0394,7.0394,7.0394,7.0394,7.0394,7.0118,6.7612,6.7612,6.7811,6.7877,6.7936,6.8135,6.8339,6.8606,6.8573,6.7416,6.5631,6.5512,6.5546,6.5343,6.3848,6.3566,6.3872,6.2965,6.3747,6.5773,6.6203,6.7217,6.8682,6.8816,6.8728,6.8695,6.8783,6.887,6.8904,6.8517,6.8316,6.8359,6.8028,6.7943,6.8109,6.8109,6.8227,6.8244,6.8469,6.7925,6.6752,6.755,6.7757,6.7354,6.6779,6.6474,6.6406,6.5595,6.5087,6.5087,6.4783,6.4613,6.4546,6.369,6.3281,6.3333,6.2569,6.2105,6.2286,6.2655,6.3254,6.423,6.4521,6.4881,6.5225,6.3555,6.222,6.2189,6.2954,6.3574,6.3836,6.48,6.5669,6.5833,6.589,6.5593,6.5267,6.5019,6.4813,6.4401,6.4615,6.4858,6.4971,6.5705,6.6403,6.6625,6.715,6.8061,6.8788,6.909,6.8816,6.846,6.891,6.936,6.9566,6.9877,7.0187,7.0394,7.0291,7.0187,7.0291,7.0429,7.0636,7.067,7.0843,7.1015,7.0946,7.0946,7.1015,7.105,7.1084,7.1015,7.105,7.105,7.0843,6.7645,6.7711,6.8341,6.8792,6.891,6.8311,6.8226,6.8372,6.8339,6.8238,6.7959,6.8203,6.8223,6.8378,6.8215,6.8166,6.8267,6.8301,6.8301,6.8538,6.8741,6.891,6.9059,6.9059,6.8904,6.8816,6.8972,6.9127,6.8917,6.8495,6.8402,6.8599,6.8572,6.8904,6.95,6.9755,6.9643,6.901,6.9795,6.9669,6.8594,6.8769,6.8944,6.8876,6.8808,6.8808,6.8605,6.7387,6.6609,6.6508,6.5358,6.4647,6.4613,6.4686,6.4699,6.4744,6.4889,6.5087,6.5053,6.5156,6.5069,6.5084,6.5309,6.5499,6.5602,6.5482,6.5152,6.46,6.3945,6.4042,6.4538,6.4862,6.5428,6.6083,6.6117,6.6109,6.6642,6.6598,6.6745,6.735,6.6963,6.7146,6.7471,6.7658,6.7895,6.8335,6.8642,6.8931,6.9169,6.9628,6.9913,6.9609,6.9962,7.0291,7.0325,7.0325,7.0601,7.0532,7.0429,7.0567,7.0739,7.105,7.1394,7.1463,7.1877,7.2188,7.236,7.2464,7.2429,7.2464,7.2464,7.2464,7.2464,7.2464,7.2257,6.8715,6.843,6.9107,6.9429,6.949,6.9317,6.9369,6.9369,6.9461,6.9461,6.9461,6.9645,6.9357,6.8728,6.8816,6.8904,6.9147,6.9553,6.9667,6.9579,6.9984,7.0131,6.9917,7.0097,7.0131,7.0007,7.0309,7.0309,7.0186,6.9827,6.9503,6.9396,6.9334,6.9595,6.9988,7.0209,7.023,7.0205,7.0565,7.0613,7.022,6.9748,6.9343,6.8938,6.8992,6.9079,6.9045,6.847,6.7963,6.7489,6.6846,6.6339,6.5933,6.5575,6.5386,6.5515,6.538,6.5504,6.5756,6.579,6.5914,6.6113,6.646,6.6702,6.6748,6.7398,6.7773,6.7359,6.6324,6.5731,6.6067,6.642,6.6842,6.7143,6.7443,6.7811,6.8062,6.8275,6.85,6.8705,6.8472,6.8438,6.8658,6.8725,6.8741,6.9045,6.92,6.9456,6.9795,7.0123,7.0584,7.1131,7.1404,7.1331,7.1222,7.1463,7.1636,7.1705,7.1739,7.1739,7.1774,7.1912,7.2188,7.2222,7.2567,7.2946,7.3222,7.336,7.3429,7.3671,7.3981,7.4016,7.4016,7.4016,7.3809,6.978,6.9649,7.0004,7.0096,7.0192,7.0287,7.0515,7.0809,7.0714,7.0681,7.0714,7.087,7.049,6.9793,6.9536,6.9512,6.9789,7.0377,7.0591,7.0478,7.1185,7.143,7.1211,7.1488,7.1614,7.1614,7.1739,7.1739,7.1555,7.1245,7.0776,7.049,7.0394,7.049,7.0776,7.087,7.1058,7.143,7.1522,7.1614,7.1637,7.1074,7.0243,6.9435,6.9512,6.96,6.9512,6.9309,6.9026,6.8451,6.8248,6.7911,6.7455,6.6829,6.6609,6.6826,6.6548,6.6528,6.6908,6.6942,6.7097,6.7472,6.786,6.811,6.8309,6.9014,6.9566,6.9463,6.8566,6.7911,6.798,6.8394,6.8704,6.8739,6.9095,6.9262,6.9218,6.934,6.9356,6.9338,6.9117,6.9214,6.9383,6.9586,6.9789,6.9789,6.9843,6.9911,7.0629,7.0988,7.1591,7.2277,7.269,7.2622,7.2084,7.2153,7.2636,7.274,7.2671,7.2912,7.305,7.3119,7.3326,7.3498,7.336,7.3429,7.3947,7.4119,7.4223,7.4705,7.4947,7.4947,7.4705,7.4878,7.4878,7.055,7.0894,7.0929,7.0955,7.1242,7.0955,7.1449,7.2174,7.195,7.1852,7.1786,7.1917,7.2047,7.2037,7.1387,7.112,7.1222,7.1681,7.1858,7.1833,7.2505,7.3003,7.3003,7.3283,7.3341,7.3114,7.2894,7.268,7.2304,7.2241,7.2211,7.1852,7.1786,7.1917,7.2174,7.23,7.2686,7.2774,7.2868,7.2935,7.2935,7.2902,7.2161,7.095,7.0781,7.0657,7.0373,7.0018,6.9704,6.9671,6.8997,6.8715,6.8857,6.8702,6.8688,6.9067,6.9152,6.9118,6.9118,6.905,6.9067,6.8996,6.9186,6.9594,6.9423,7.0024,7.0338,7.0325,7.0222,7.0153,7.0153,7.0015,7.013,7.0061,7.0093,7.0035,7.0038,6.9696,6.9492,6.9474,6.9403,6.9586,7.0094,7.077,7.1075,7.1142,7.1321,7.1478,7.1469,7.2212,7.2731,7.2935,7.3543,7.4066,7.3015,7.2946,7.2912,7.305,7.3533,7.374,7.3981,7.4223,7.4499,7.4705,7.4499,7.4533,7.4774,7.4912,7.5016,7.5223,7.5292,7.5257,7.5499,7.5119,7.5188,7.0615,7.109,7.1061,7.126,7.1718,7.162,7.185,7.2116,7.1985,7.2018,7.1985,7.2213,7.2311,7.2374,7.2284,7.2236,7.2177,7.2412,7.2357,7.2329,7.2658,7.2759,7.2663,7.3043,7.3137,7.301,7.301,7.2854,7.2408,7.2408,7.2311,7.2018,7.2018,7.2116,7.2374,7.263,7.282,7.3104,7.3291,7.3384,7.3418,7.3418,7.3021,7.233,7.2042,7.1512,7.0825,7.0556,7.0186,6.9625,6.9233,6.9077,6.8884,6.8904,6.8992,6.92,6.9166,6.9166,6.9166,6.9166,6.9166,6.9113,6.9456,6.9782,6.9867,7.0511,7.1105,7.1222,7.1601,7.1808,7.1636,7.1015,7.0441,7.0407,7.0526,7.055,7.0583,7.0561,7.0588,7.0622,7.05,7.0669,7.0973,7.1548,7.1988,7.2056,7.2485,7.2688,7.279,7.3152,7.3436,7.3651,7.4001,7.4302,7.424,7.4119,7.4154,7.4188,7.4395,7.4499,7.4671,7.4809,7.5016,7.5119,7.5154,7.5361,7.5499,7.5982,7.6016,7.6189,7.6189,7.6051,7.643,7.6085,7.6154,7.0752,7.087,7.1076,7.1415,7.1851,7.1819,7.1983,7.218,7.218,7.218,7.218,7.2414,7.2414,7.2481,7.2548,7.2647,7.2614,7.2807,7.2901,7.2774,7.3168,7.3268,7.3205,7.3558,7.3654,7.3462,7.3558,7.3365,7.3009,7.3009,7.2911,7.2713,7.2713,7.2911,7.3205,7.3365,7.3654,7.3939,7.4093,7.4221,7.4221,7.4221,7.3992,7.3628,7.3283,7.2447,7.1262,7.1194,7.0825,7.0062,6.987,6.9726,6.9469,6.9613,6.9823,6.9823,6.9823,6.9823,6.9823,6.9823,6.9925,7.0161,7.0541,7.0784,7.1165,7.1936,7.2432,7.2655,7.2931,7.331,7.3137,7.2295,7.1587,7.136,7.1404,7.1557,7.1756,7.1898,7.2045,7.1988,7.2045,7.1988,7.2056,7.2462,7.2699,7.2766,7.3206,7.3443,7.3477,7.3713,7.3942,7.4401,7.4764,7.5207,7.5372,7.5549,7.5016,7.4947,7.5188,7.5292,7.5361,7.543,7.5533,7.5602,7.574,7.5982,7.6361,7.6878,7.7085,7.7223,7.7051,7.6775,7.6982,7.712,7.6982,7.1164,7.0695,7.109,7.144,7.1545,7.1545,7.1828,7.2388,7.2485,7.2494,7.2429,7.2485,7.2461,7.2485,7.2567,7.2485,7.2607,7.2975,7.321,7.3276,7.3907,7.4306,7.4173,7.4439,7.4537,7.4537,7.4572,7.4273,7.3871,7.3838,7.3871,7.397,7.3871,7.3873,7.4803,7.4537,7.503,7.5219,7.5282,7.5445,7.5676,7.554,7.5202,7.4695,7.4559,7.3696,7.1882,7.1934,7.169,7.1026,7.0892,7.095,7.095,7.1131,7.1312,7.1312,7.1312,7.1312,7.1312,7.1312,7.1616,7.2113,7.2474,7.2914,7.3611,7.4081,7.4325,7.4446,7.4375,7.4459,7.439,7.4042,7.3651,7.3429,7.2914,7.2901,7.339,7.3593,7.34,7.3274,7.3264,7.34,7.3501,7.3443,7.3477,7.351,7.3646,7.3781,7.3883,7.4289,7.4653,7.5102,7.5583,7.6063,7.6553,7.6871,7.61,7.5568,7.5878,7.612,7.6223,7.6292,7.6464,7.6533,7.6499,7.6706,7.6706,7.7154,7.7154,7.7223,7.7223,7.7223,7.7223,7.7223,7.7223,7.1155,7.126,7.1477,7.1832,7.2152,7.2152,7.2314,7.2476,7.2508,7.2508,7.2508,7.2508,7.2508,7.2508,7.2508,7.2508,7.2476,7.2639,7.275,7.2816,7.3012,7.3247,7.3214,7.3389,7.3628,7.3492,7.3318,7.3142,7.3142,7.3037,7.3005,7.3005,7.3037,7.3214,7.3595,7.3698,7.4003,7.4306,7.4902,7.5097,7.5194,7.5484,7.5574,7.5405,7.5371,7.4674,7.348,7.3036,7.2573,7.2244,7.2183,7.2277,7.2431,7.2708,7.28,7.2834,7.28,7.28,7.28,7.28,7.2925,7.3322,7.3549,7.3923,7.4385,7.4576,7.4699,7.4753,7.4508,7.433,7.433,7.415,7.4001,7.3912,7.368,7.3583,7.3891,7.3688,7.3477,7.3477,7.3535,7.3535,7.3578,7.3849,7.4255,7.4322,7.4627,7.4897,7.4999,7.5067,7.556,7.6002,7.6461,7.6679,7.6953,7.7133,7.6686,7.6292,7.6499,7.6637,7.6775,7.6913,7.712,7.7223,7.7223,7.7223,7.7223,7.7223,7.7223,7.7223,7.7223,7.7223,7.7223,7.7223,7.7223,7.0275,7.0582,7.0806,7.114,7.147,7.1721,7.1862,7.1862,7.1862,7.1862,7.1862,7.1862,7.183,7.1862,7.1862,7.1862,7.1862,7.1862,7.1862,7.197,7.2401,7.2508,7.2508,7.2688,7.2794,7.2688,7.2582,7.2508,7.2508,7.2508,7.2508,7.2508,7.2508,7.2688,7.2972,7.3181,7.3492,7.3902,7.4406,7.4605,7.4704,7.4902,7.5194,7.5388,7.5388,7.5152,7.468,7.4242,7.3676,7.3083,7.2949,7.3137,7.3197,7.3384,7.3477,7.3477,7.3477,7.3443,7.3477,7.3375,7.3738,7.4034,7.432,7.4582,7.4992,7.5162,7.5219,7.5275,7.5128,7.4878,7.4912,7.4728,7.4684,7.4752,7.4378,7.4314,7.4438,7.4431,7.4356,7.439,7.4356,7.4322,7.4458,7.4627,7.4999,7.51,7.5405,7.5676,7.5709,7.5771,7.6088,7.6402,7.6553,7.6862,7.7133,7.7223,7.7223,7.7085,7.7051,7.7051,7.7085,7.712,7.7223,7.7223,7.7223,7.7223,7.7223,7.7223,7.7223,7.7223,7.7223,7.7223,7.7223,7.7223,7.7223,6.9006,6.9006,6.9588,7.0047,7.0161,7.0645,7.0869,7.0901,7.0901,7.0869,7.0901,7.0981,7.0901,7.0901,7.1013,7.1013,7.0901,7.1013,7.0981,7.1203,7.1753,7.2187,7.2294,7.2262,7.2262,7.2294,7.2294,7.2294,7.2187,7.2187,7.2401,7.2262,7.2294,7.2582,7.2867,7.3214,7.3389,7.38,7.4003,7.4105,7.4105,7.4206,7.4406,7.4803,7.4902,7.4966,7.519,7.5282,7.4742,7.3568,7.3628,7.3756,7.368,7.3612,7.3747,7.3815,7.3646,7.3747,7.368,7.3849,7.4052,7.4687,7.4805,7.5092,7.5841,7.5934,7.5968,7.6129,7.5977,7.5952,7.5858,7.573,7.5601,7.554,7.5059,7.4965,7.554,7.5574,7.5439,7.5506,7.5642,7.5642,7.5473,7.554,7.5608,7.5608,7.5642,7.5676,7.5676,7.5899,7.6216,7.6402,7.6553,7.6862,7.7133,7.7223,7.7223,7.7223,7.7223,7.7223,7.7223,7.7223,7.7223,7.7223,7.7223,7.7223,7.7223,7.7223,7.7223,7.7223,7.7223,7.7223,7.7223,7.7223,7.7223,6.9588,6.9703,7.0306,7.0532,7.0532,7.0789,7.0789,7.0789,7.0789,7.0789,7.0789,7.0789,7.0789,7.0789,7.0789,7.0789,7.0789,7.0789,7.0789,7.0789,7.1124,7.1235,7.1203,7.1203,7.1314,7.1314,7.1314,7.1203,7.1203,7.1314,7.1314,7.1203,7.1534,7.1721,7.2046,7.2369,7.2582,7.29,7.3285,7.3492,7.3595,7.3902,7.4206,7.4306,7.4306,7.4406,7.4605,7.4935,7.5224,7.5107,7.5134,7.5134,7.5033,7.5033,7.4965,7.4999,7.5033,7.5067,7.5067,7.5033,7.5296,7.5688,7.5552,7.5909,7.6334,7.6207,7.6148,7.6182,7.5994,7.5805,7.5805,7.5709,7.5676,7.5676,7.5439,7.5405,7.5608,7.5676,7.5676,7.5676,7.5676,7.5676,7.5676,7.5676,7.5676,7.5676,7.5676,7.5676,7.5676,7.5805,7.6028,7.6309,7.6587,7.6862,7.7043,7.7133,7.7223,7.7223,7.7223,7.7223,7.7223,7.7223,7.7223,7.7223,7.7223,7.7223,7.7223,7.7223,7.7223,7.7223,7.7223,7.7223,7.7223,7.7223,7.7223,6.8976,6.9093,7.0047,7.0419,7.0419,7.0645,7.0789,7.0789,7.0789,7.0789,7.0789,7.0789,7.0789,7.0789,7.0789,7.0789,7.0789,7.0789,7.0789,7.0789,7.0789,7.0901,7.0789,7.0789,7.0789,7.0789,7.0789,7.0789,7.0789,7.0789,7.0789,7.0901,7.1013,7.1203,7.1612,7.1753,7.2079,7.2476,7.2794,7.3005,7.3005,7.3285,7.3595,7.3698,7.38,7.3902,7.4406,7.4837,7.5131,7.5388,7.558,7.5676,7.5676,7.5676,7.5676,7.5676,7.5676,7.5676,7.5676,7.5676,7.5805,7.5899,7.5899,7.5994,7.6088,7.6054,7.596,7.5899,7.5805,7.5676,7.5676,7.5676,7.5676,7.5676,7.5676,7.5676,7.5676,7.5676,7.5676,7.5676,7.5676,7.5676,7.5676,7.5676,7.5676,7.5676,7.5676,7.5676,7.5676,7.5805,7.5899,7.6216,7.6495,7.6771,7.6918,7.7009,7.7133,7.7133,7.7133,7.7133,7.7223,7.7223,7.7223,7.7223,7.7223,7.7223,7.7223,7.7223,7.7223,7.7223,7.7223,7.7223,7.7223,7.7223,7.7223,6.7909,6.8029,6.9209,6.9818,6.9933,7.0532,7.0789,7.0789,7.0789,7.0789,7.0789,7.0789,7.0789,7.0789,7.0789,7.0789,7.0789,7.0789,7.0789,7.0789,7.0789,7.0789,7.0789,7.0789,7.0789,7.0789,7.0789,7.0789,7.0789,7.0789,7.0789,7.0789,7.0901,7.1124,7.1534,7.1612,7.197,7.2401,7.2508,7.2582,7.2615,7.2688,7.29,7.3181,7.3285,7.3698,7.4306,7.4704,7.4902,7.5228,7.5518,7.5676,7.5676,7.5676,7.5676,7.5676,7.5676,7.5676,7.5676,7.5709,7.5709,7.5709,7.5709,7.5676,7.5771,7.5771,7.5771,7.5709,7.5676,7.5676,7.5676,7.5676,7.5676,7.5676,7.5676,7.5676,7.5676,7.5676,7.5676,7.5676,7.5676,7.5676,7.5676,7.5676,7.5676,7.5676,7.5676,7.5676,7.5709,7.5805,7.5933,7.6122,7.6402,7.6587,7.6736,7.6828,7.6918,7.7009,7.7043,7.7133,7.7223,7.7223,7.7223,7.7223,7.7223,7.7223,7.7223,7.7223,7.7223,7.7223,7.7223,7.7223,7.7223,7.7223,7.7223,6.7909,6.8029,6.9325,6.9818,6.9933,7.0532,7.0789,7.0789,7.0789,7.0789,7.0789,7.0789,7.0789,7.0789,7.0789,7.0789,7.0789,7.0789,7.0789,7.0789,7.0789,7.0789,7.0789,7.0789,7.0789,7.0789,7.0789,7.0789,7.0789,7.0789,7.0789,7.0789,7.1013,7.1203,7.1314,7.1753,7.2079,7.2187,7.2401,7.2508,7.2508,7.2508,7.2615,7.2688,7.29,7.3214,7.3595,7.4003,7.4506,7.5033,7.5422,7.5676,7.5676,7.5676,7.5676,7.5676,7.5676,7.5676,7.5676,7.5676,7.5676,7.5676,7.5676,7.5676,7.5676,7.5676,7.5676,7.5676,7.5676,7.5676,7.5676,7.5676,7.5676,7.5676,7.5676,7.5676,7.5676,7.5676,7.5676,7.5676,7.5676,7.5676,7.5676,7.5676,7.5676,7.5676,7.5676,7.5676,7.5709,7.5805,7.5899,7.6028,7.6216,7.6368,7.6553,7.6645,7.6828,7.6918,7.6918,7.7009,7.7133,7.7223,7.7223,7.7223,7.7223,7.7223,7.7223,7.7223,7.7223,7.7223,7.7223,7.7133,7.7133,7.7133,7.7133,6.8029,6.8535,6.9441,7.0047,7.0306,7.0645,7.0789,7.0789,7.0789,7.0789,7.0789,7.0789,7.0789,7.0789,7.0789,7.0789,7.0789,7.0789,7.0789,7.0789,7.0789,7.0789,7.0789,7.0789,7.0789,7.0789,7.0789,7.0789,7.0789,7.0789,7.0789,7.0789,7.1013,7.1203,7.1314,7.1753,7.197,7.2294,7.2401,7.2508,7.2508,7.2508,7.2508,7.2508,7.2615,7.29,7.3285,7.3698,7.4306,7.4837,7.5325,7.5614,7.5709,7.5676,7.5676,7.5676,7.5676,7.5676,7.5676,7.5676,7.5676,7.5676,7.5676,7.5676,7.5676,7.5676,7.5676,7.5676,7.5676,7.5676,7.5676,7.5676,7.5676,7.5676,7.5676,7.5676,7.5676,7.5676,7.5676,7.5676,7.5676,7.5676,7.5676,7.5676,7.5676,7.5676,7.5676,7.5676,7.5676,7.5709,7.5805,7.5899,7.5994,7.6182,7.6368,7.6461,7.6553,7.6736,7.6828,7.6828,7.6918,7.7133,7.7223,7.7223,7.7223,7.7223,7.7223,7.7223,7.7133,7.7133,7.7133,7.7009,7.7009,7.6953,7.6771,6.8333,6.896,6.9666,7.0245,7.0847,7.1024,7.1105,7.0978,7.1042,7.1168,7.101,7.101,7.1294,7.1168,7.12,7.1105,7.1105,7.0978,7.1073,7.1042,7.0852,7.0789,7.0789,7.0789,7.0789,7.0789,7.0789,7.0789,7.0789,7.0789,7.0789,7.0789,7.0789,7.1092,7.1424,7.1644,7.1862,7.2294,7.2401,7.2508,7.2508,7.2508,7.2508,7.2508,7.2615,7.2827,7.3318,7.3628,7.4037,7.4803,7.5033,7.5325,7.5614,7.5676,7.5676,7.5676,7.5676,7.5676,7.5676,7.5676,7.5676,7.5676,7.5676,7.5676,7.5676,7.5676,7.5676,7.5676,7.5676,7.5676,7.5676,7.5676,7.5676,7.5676,7.5676,7.5676,7.5676,7.5676,7.5676,7.5676,7.5676,7.5676,7.5676,7.5676,7.5676,7.5676,7.5676,7.5676,7.5676,7.5676,7.5676,7.5805,7.5899,7.6028,7.6182,7.6275,7.6368,7.6461,7.6553,7.6645,7.6736,7.6828,7.6953,7.7133,7.7133,7.7133,7.7043,7.6953,7.6953,7.7043,7.7043,7.6828,7.6736,7.6587,7.6587,6.8925,6.902,7.022,7.0822,7.103,7.197,7.2116,7.18,7.2179,7.2116,7.1737,7.2179,7.2369,7.2401,7.2432,7.2432,7.2179,7.1863,7.1642,7.1547,7.12,7.0947,7.0884,7.0915,7.0852,7.0789,7.0789,7.0676,7.0789,7.0789,7.0645,7.0789,7.0645,7.0869,7.1203,7.1534,7.1753,7.2187,7.2401,7.2508,7.2508,7.2508,7.2508,7.2508,7.2721,7.29,7.3214,7.3661,7.407,7.4573,7.4672,7.4968,7.5325,7.5614,7.5676,7.5676,7.5676,7.5676,7.5676,7.5676,7.5676,7.5676,7.5676,7.5676,7.5676,7.5676,7.5676,7.5676,7.5676,7.5676,7.5676,7.5676,7.5676,7.5676,7.5676,7.5676,7.5676,7.5676,7.5676,7.5676,7.5676,7.5676,7.5676,7.5676,7.5676,7.5676,7.5676,7.5676,7.5676,7.5676,7.5676,7.5805,7.5899,7.6028,7.6122,7.6122,7.6182,7.6182,7.6275,7.6402,7.6495,7.6587,7.6679,7.6862,7.6918,7.6918,7.6828,7.6771,7.6771,7.6771,7.6679,7.6587,7.6495,7.6402,7.6309,6.9226,6.9601,7.0557,7.1162,7.149,7.2316,7.2622,7.2401,7.2653,7.2622,7.2495,7.2653,7.278,7.278,7.278,7.278,7.2717,7.2527,7.2337,7.2211,7.199,7.161,7.1326,7.1294,7.0816,7.0514,7.0306,7.0306,7.0275,7.0306,7.0306,7.0192,7.0047,7.0275,7.0981,7.1203,7.1534,7.197,7.2294,7.2508,7.2508,7.2508,7.2508,7.2615,7.2721,7.29,7.3142,7.3558,7.3968,7.4372,7.4672,7.4968,7.5228,7.5518,7.5676,7.5676,7.5676,7.5676,7.5676,7.5676,7.5676,7.5676,7.5676,7.5676,7.5676,7.5676,7.5676,7.5676,7.5676,7.5676,7.5676,7.5676,7.5676,7.5676,7.5676,7.5676,7.5676,7.5676,7.5676,7.5676,7.5676,7.5676,7.5676,7.5676,7.5676,7.5676,7.5676,7.5676,7.5676,7.5676,7.5676,7.5709,7.5805,7.5899,7.5899,7.5899,7.5994,7.5994,7.6028,7.6122,7.6216,7.6309,7.6495,7.6679,7.6645,7.6553,7.6645,7.6587,7.6495,7.6495,7.6402,7.6309,7.6309,7.6216,7.6122,6.9616,7.0088,7.0832,7.1412,7.1894,7.2755,7.2926,7.2917,7.3191,7.3191,7.3033,7.3191,7.3285,7.3254,7.3254,7.3254,7.3191,7.3159,7.3033,7.2969,7.2748,7.2401,7.1958,7.1509,7.0934,6.9964,6.9703,6.9588,6.9557,6.9588,6.9588,6.965,6.9216,6.9565,7.0564,7.0834,7.1299,7.1612,7.2154,7.2369,7.2508,7.2508,7.2508,7.2508,7.2688,7.2932,7.3142,7.3558,7.3866,7.4239,7.4539,7.487,7.5131,7.5422,7.558,7.558,7.5709,7.5676,7.5676,7.5676,7.5676,7.5676,7.5676,7.5676,7.5676,7.5676,7.5676,7.5676,7.5676,7.5676,7.5676,7.5676,7.5676,7.5676,7.5676,7.5676,7.5676,7.5676,7.5676,7.5676,7.5676,7.5676,7.5676,7.5676,7.5676,7.5676,7.5676,7.5676,7.5676,7.5676,7.5676,7.5676,7.5676,7.5676,7.5805,7.5805,7.5805,7.5805,7.5899,7.5994,7.5994,7.6088,7.6275,7.6368,7.6275,7.6275,7.6309,7.6402,7.6216,7.6122,7.6122,7.6028,7.5994,7.5899,7.5899,7.0679,7.0779,7.1516,7.18,7.2116,7.3197,7.3401,7.3114,7.406,7.4297,7.3823,7.4328,7.4518,7.4486,7.4518,7.4581,7.4423,7.4012,7.3759,7.3696,7.3138,7.257,7.1875,7.1258,7.0692,6.9845,6.9309,6.9006,6.9012,6.9012,6.9006,6.9068,6.9289,6.9945,7.011,7.0506,7.084,7.1044,7.1502,7.2111,7.2498,7.2638,7.2638,7.2744,7.2851,7.3168,7.3378,7.3689,7.3965,7.4171,7.4272,7.4473,7.4672,7.4968,7.5131,7.5325,7.5518,7.5676,7.5676,7.5676,7.5676,7.5676,7.5676,7.5676,7.5676,7.5676,7.5676,7.5676,7.5676,7.5676,7.5676,7.5676,7.5676,7.5676,7.5676,7.5676,7.5676,7.5676,7.5676,7.5676,7.5676,7.5676,7.5676,7.5676,7.5676,7.5676,7.5676,7.5676,7.5676,7.5676,7.5676,7.5676,7.5676,7.5676,7.5676,7.5676,7.5676,7.5676,7.5709,7.5805,7.5899,7.5899,7.5805,7.5899,7.5899,7.5994,7.6088,7.5994,7.5899,7.5805,7.5899,7.5805,7.5709,7.5676,7.5676,7.0919,7.0889,7.1631,7.2139,7.2547,7.3539,7.3991,7.4193,7.462,7.4739,7.4549,7.4739,7.4897,7.4897,7.4897,7.4866,7.4834,7.4549,7.4455,7.4305,7.369,7.3101,7.2426,7.1733,7.0915,6.997,6.9548,6.9306,6.9032,6.8544,6.8386,6.839,6.8483,6.893,6.989,7.0099,7.0721,7.1441,7.2324,7.3069,7.3468,7.3674,7.3674,7.3674,7.3998,7.3983,7.4006,7.4149,7.4229,7.4303,7.4272,7.4506,7.4573,7.487,7.5067,7.5131,7.5262,7.5422,7.5614,7.5709,7.5676,7.5676,7.5676,7.5676,7.5676,7.5676,7.5676,7.5676,7.5676,7.5676,7.5676,7.5676,7.5676,7.5676,7.5676,7.5676,7.5676,7.5676,7.5676,7.5676,7.5676,7.5676,7.5676,7.5676,7.5676,7.5676,7.5676,7.5676,7.5676,7.5676,7.5676,7.5676,7.5676,7.5676,7.5676,7.5676,7.5676,7.5676,7.5676,7.5709,7.5709,7.5676,7.5676,7.5676,7.5805,7.5805,7.5933,7.5805,7.5805,7.5709,7.5676,7.5676,7.5676,7.5676,7.5676,7.0919,7.0919,7.1405,7.2013,7.2672,7.3416,7.4026,7.4627,7.4866,7.4897,7.4897,7.4897,7.4897,7.4897,7.4897,7.4897,7.4897,7.4897,7.4778,7.4539,7.4085,7.3406,7.2514,7.1874,7.0985,6.985,6.9637,6.9295,6.896,6.8602,6.8334,6.8213,6.8512,6.885,6.9741,7.0396,7.0923,7.1807,7.271,7.3489,7.4095,7.4387,7.4484,7.4658,7.4767,7.4929,7.4792,7.4872,7.4752,7.4966,7.507,7.5136,7.5204,7.5439,7.5639,7.5739,7.5936,7.5965,7.5923,7.5817,7.5648,7.5709,7.5676,7.5676,7.5676,7.5676,7.5676,7.5676,7.5676,7.5676,7.5676,7.5676,7.5676,7.5676,7.5676,7.5676,7.5676,7.5676,7.5676,7.5676,7.5676,7.5676,7.5676,7.5676,7.5676,7.5676,7.5676,7.5676,7.5676,7.5676,7.5676,7.5676,7.5676,7.5676,7.5676,7.5676,7.5676,7.5676,7.5676,7.5676,7.5676,7.5676,7.5676,7.5676,7.5676,7.5946,7.6245,7.5912,7.5676,7.5676,7.5676,7.5676,7.5676,7.5709,7.5676,7.0919,7.0919,7.0889,7.1405,7.2139,7.2672,7.3416,7.4147,7.4627,7.4897,7.4897,7.4897,7.4897,7.4897,7.4897,7.4897,7.4897,7.4897,7.4539,7.4147,7.3842,7.3044,7.2214,7.1443,7.0702,6.9967,6.9778,6.937,6.9064,6.925,6.898,6.901,6.9196,6.9846,7.0435,7.0977,7.1651,7.2362,7.3067,7.3573,7.4115,7.4484,7.4775,7.4743,7.4788,7.4908,7.5415,7.5521,7.5569,7.5927,7.5964,7.5964,7.5864,7.6102,7.6306,7.6441,7.6776,7.6741,7.6665,7.6024,7.5585,7.5614,7.5676,7.5676,7.5676,7.5676,7.5676,7.5676,7.5676,7.5676,7.5676,7.5676,7.5676,7.5676,7.5676,7.5676,7.5676,7.5676,7.5676,7.5676,7.5676,7.5676,7.5676,7.5676,7.5676,7.5676,7.5676,7.5676,7.5676,7.5676,7.5676,7.5676,7.5676,7.5676,7.5676,7.5676,7.5676,7.5676,7.5676,7.5676,7.5676,7.5676,7.5709,7.5676,7.5743,7.6149,7.642,7.6048,7.5777,7.5709,7.5743,7.5879,7.5912,7.5912,7.5811,7.0919,7.0919,7.0919,7.1533,7.2547,7.2797,7.3539,7.4388,7.4778,7.4897,7.4897,7.4897,7.4897,7.4897,7.4897,7.4897,7.4897,7.4897,7.4388,7.3905,7.3477,7.2737,7.1899,7.1208,7.0765,7.0524,7.0269,7.0171,7.0231,7.0051,7.0171,7.0141,6.9879,7.0092,7.0618,7.1862,7.3033,7.388,7.4317,7.4813,7.5473,7.5747,7.5941,7.5941,7.5941,7.6014,7.6158,7.6168,7.6227,7.6281,7.6286,7.6424,7.6457,7.6561,7.6664,7.6904,7.7142,7.7212,7.7176,7.6567,7.6154,7.5648,7.5676,7.5743,7.5811,7.5709,7.5709,7.5676,7.5676,7.5709,7.5709,7.5709,7.5676,7.5676,7.5777,7.5845,7.5912,7.6014,7.6014,7.6149,7.5879,7.5676,7.5676,7.5676,7.5676,7.5676,7.5676,7.5676,7.5676,7.5676,7.5676,7.5676,7.5676,7.5676,7.5676,7.5676,7.5676,7.5676,7.5676,7.5676,7.5676,7.5709,7.5709,7.5709,7.5912,7.6386,7.6487,7.6082,7.6048,7.6386,7.6352,7.6251,7.6217,7.6217,7.6183,7.1517,7.1487,7.1487,7.1896,7.2578,7.2797,7.3539,7.4508,7.4747,7.4897,7.4897,7.4897,7.4897,7.4897,7.4897,7.4897,7.4778,7.4627,7.4147,7.3539,7.2922,7.2296,7.1661,7.1247,7.0899,7.0919,7.0919,7.0829,7.0769,7.0889,7.0799,7.05,7.0081,7.0356,7.1169,7.2724,7.4186,7.4879,7.5635,7.5909,7.6362,7.6621,7.6718,7.6686,7.6653,7.6571,7.6548,7.6528,7.6692,7.6721,7.6769,7.6915,7.6987,7.6987,7.6954,7.7058,7.7267,7.7407,7.7481,7.7343,7.6995,7.6657,7.6521,7.6386,7.6115,7.6048,7.6115,7.5676,7.5709,7.5811,7.5946,7.6183,7.6454,7.6623,7.6724,7.6792,7.6758,7.6792,7.669,7.6657,7.6487,7.6555,7.6589,7.6623,7.6149,7.6014,7.5709,7.5709,7.5676,7.5676,7.5676,7.5676,7.5676,7.5676,7.5676,7.5709,7.5743,7.5676,7.5676,7.5676,7.5676,7.5811,7.6048,7.6251,7.6521,7.6792,7.7063,7.7333,7.7333,7.7333,7.7096,7.6724,7.7029,7.7063,7.6961,7.2804,7.2864,7.2804,7.245,7.2195,7.2672,7.3324,7.4026,7.4659,7.4897,7.4897,7.4897,7.4897,7.4897,7.4897,7.4897,7.4627,7.4268,7.3661,7.2922,7.2422,7.1661,7.1148,7.0919,7.0919,7.0919,7.0919,7.0919,7.0919,7.0919,7.0919,7.0919,7.0649,7.0946,7.148,7.2641,7.347,7.3971,7.5185,7.5652,7.5878,7.633,7.641,7.6442,7.6442,7.6313,7.6298,7.6491,7.6586,7.6678,7.7118,7.7369,7.7651,7.7684,7.7932,7.8392,7.8458,7.8507,7.825,7.805,7.7976,7.7671,7.7401,7.7333,7.6995,7.6826,7.6657,7.6284,7.6048,7.6318,7.6623,7.6898,7.7299,7.7435,7.7502,7.7502,7.7435,7.7401,7.7299,7.7232,7.7604,7.7874,7.7874,7.7671,7.6961,7.6454,7.5912,7.5743,7.5879,7.5879,7.5946,7.5676,7.5709,7.5912,7.5946,7.5845,7.5811,7.5743,7.5912,7.6217,7.6352,7.6589,7.6758,7.6893,7.7164,7.7468,7.8213,7.8957,7.8517,7.801,7.7536,7.7299,7.7638,7.7841,7.7705,7.2924,7.2924,7.2924,7.3052,7.332,7.3501,7.3726,7.3936,7.4508,7.4897,7.4897,7.4897,7.4897,7.4897,7.4778,7.4627,7.4268,7.4147,7.3416,7.2265,7.1916,7.1533,7.1018,7.0919,7.0919,7.0919,7.0919,7.0919,7.0919,7.0919,7.0919,7.0919,7.0889,7.1533,7.2361,7.3472,7.4162,7.4667,7.5252,7.5631,7.5284,7.5475,7.5603,7.5719,7.5719,7.5571,7.5655,7.5919,7.6117,7.6199,7.654,7.6766,7.6878,7.6878,7.7213,7.7796,7.8155,7.8802,7.9193,7.9364,7.8957,7.845,7.8077,7.801,7.7638,7.7638,7.7401,7.7261,7.7024,7.7232,7.757,7.7641,7.781,7.781,7.781,7.7874,7.7841,7.7841,7.7807,7.7773,7.7976,7.8145,7.8179,7.845,7.7942,7.7671,7.7299,7.6724,7.6657,7.6521,7.6454,7.5912,7.5743,7.6082,7.6251,7.6386,7.6657,7.686,7.7096,7.7367,7.7468,7.7367,7.7502,7.7638,7.7908,7.8213,7.8822,7.9261,7.8991,7.8551,7.828,7.801,7.8145,7.8348,7.8416,7.3582,7.3612,7.3582,7.3834,7.4324,7.4329,7.4532,7.502,7.5472,7.5498,7.534,7.5276,7.5118,7.4992,7.4659,7.4388,7.3905,7.3262,7.3015,7.1886,7.1661,7.1277,7.1018,7.0919,7.0919,7.0919,7.0919,7.0919,7.0919,7.0919,7.0919,7.0919,7.0919,7.1405,7.2391,7.3231,7.4085,7.4564,7.5242,7.5855,7.5539,7.5486,7.5369,7.5252,7.5134,7.4897,7.4866,7.4952,7.5188,7.5274,7.5359,7.5592,7.5592,7.5938,7.6427,7.7134,7.7938,7.8691,7.9495,7.9938,7.9465,7.9025,7.8754,7.8619,7.845,7.8382,7.8145,7.7976,7.8074,7.8179,7.8283,7.8319,7.8452,7.8452,7.8621,7.872,7.872,7.8788,7.8754,7.8686,7.8653,7.8653,7.8619,7.8822,7.8889,7.8822,7.872,7.8111,7.7502,7.7299,7.7096,7.6623,7.6386,7.6826,7.7096,7.7198,7.7502,7.7908,7.8077,7.8213,7.8145,7.7976,7.8179,7.845,7.8822,7.9126,7.9329,7.9498,7.9397,7.9397,7.9397,7.9126,7.8822,7.879,7.8959,7.4869,7.4869,7.4869,7.4857,7.4922,7.5126,7.5901,7.692,7.692,7.654,7.6035,7.6003,7.5567,7.4816,7.4241,7.3845,7.3508,7.2517,7.2013,7.1631,7.1277,7.1018,7.0889,7.0919,7.0919,7.0919,7.0919,7.0919,7.0919,7.0919,7.0919,7.0919,7.0919,7.1178,7.1789,7.2642,7.3385,7.3905,7.4747,7.522,7.4984,7.522,7.4984,7.4866,7.4627,7.4299,7.4268,7.4388,7.4388,7.4627,7.4834,7.5156,7.5592,7.6199,7.6459,7.7023,7.7829,7.883,7.9459,7.9904,7.9972,7.9803,7.9938,7.9701,7.9363,7.9126,7.8957,7.8686,7.8585,7.8824,7.8994,7.9195,7.9397,7.96,7.987,7.9904,7.9938,7.9938,7.9938,7.987,7.9837,7.9803,7.9701,7.9803,7.9532,7.96,7.9464,7.916,7.8551,7.8111,7.7908,7.7638,7.7536,7.7773,7.7942,7.801,7.8348,7.872,7.8585,7.8653,7.8585,7.8686,7.8957,7.9295,7.9769,8.0006,7.9904,7.9938,8.004,8.004,7.9938,7.987,7.9464,7.9297,7.9398,7.4869,7.4869,7.4869,7.5158,7.5753,7.6721,7.7152,7.7046,7.6983,7.6825,7.6698,7.6209,7.5678,7.4961,7.4284,7.3477,7.27,7.2013,7.1631,7.1307,7.1168,7.0949,7.0919,7.0919,7.0919,7.0949,7.0949,7.1009,7.0979,7.0949,7.0979,7.0919,7.1098,7.1168,7.1397,7.1947,7.2387,7.2889,7.3754,7.3995,7.3905,7.3661,7.3783,7.3783,7.3661,7.3324,7.3447,7.357,7.357,7.357,7.357,7.3783,7.3783,7.4026,7.4476,7.6621,7.7905,7.9113,7.9768,8.0006,8.0107,8.0209,8.0209,8.0141,7.9938,7.9803,7.9701,7.9397,7.9261,7.9465,7.9601,7.9803,7.9837,8.0006,8.0209,8.0209,8.0209,8.0209,8.0209,8.0209,8.0209,8.0209,8.0209,8.0141,7.9938,8.0107,8.0073,7.9803,7.9532,7.9058,7.872,7.8483,7.8416,7.8551,7.872,7.8788,7.916,7.9464,7.9295,7.9261,7.9431,7.96,7.9803,7.9938,8.0073,8.0141,8.0141,8.0209,8.0209,8.0209,8.0107,8.0141,8.0107,7.9768,7.9321,7.4869,7.4869,7.4869,7.5278,7.6057,7.7346,7.7746,7.7496,7.7681,7.7678,7.7271,7.662,7.5995,7.5309,7.4307,7.3516,7.2925,7.2599,7.2209,7.1888,7.1398,7.1368,7.1278,7.1098,7.1098,7.1158,7.1338,7.1547,7.1517,7.1667,7.1757,7.1787,7.1697,7.1667,7.1888,7.2239,7.2309,7.2614,7.285,7.292,7.2734,7.2483,7.2703,7.2828,7.2703,7.2734,7.2983,7.2983,7.2983,7.2983,7.2983,7.2983,7.32,7.354,7.4554,7.665,7.7892,7.8709,7.9317,7.9972,8.0074,8.0209,8.0242,8.0175,8.0175,8.0073,8.0073,8.0006,8.0073,8.0175,8.0175,8.0209,8.0175,8.0209,8.0209,8.0209,8.0209,8.0209,8.0209,8.0209,8.0209,8.0209,8.0209,8.0209,8.0209,8.0209,8.0209,8.0107,7.9938,7.9735,7.9498,7.9295,7.9194,7.9194,7.9329,7.9431,7.9667,7.987,7.987,7.9938,8.0209,8.0175,8.0073,8.0073,8.0175,8.0209,8.0074,8.0107,8.0209,7.9972,7.9665,7.9321,7.9321,7.9321,7.9008,7.4869,7.4869,7.4869,7.5278,7.6057,7.7216,7.7703,7.8023,7.8439,7.8596,7.7904,7.7182,7.6301,7.5362,7.4371,7.3759,7.3285,7.2962,7.2667,7.2864,7.2235,7.1966,7.1787,7.1457,7.1667,7.1876,7.2026,7.2146,7.2654,7.2654,7.2565,7.2894,7.2595,7.2415,7.2325,7.2487,7.2439,7.2239,7.2621,7.2887,7.2982,7.3045,7.2952,7.3046,7.2828,7.2608,7.2859,7.2983,7.2983,7.2983,7.2983,7.2983,7.3292,7.3881,7.52,7.6378,7.7528,7.8474,7.9148,7.9857,8.0342,8.0479,8.0378,8.0615,8.0784,8.0344,8.0209,8.0209,8.0209,8.0209,8.0209,8.0209,8.0209,8.0209,8.0209,8.0209,8.0209,8.0209,8.0209,8.0209,8.0209,8.0209,8.0209,8.0209,8.0209,8.0209,8.0209,8.0209,8.0175,8.0107,8.004,7.9904,7.9769,7.9667,7.9803,7.9938,8.004,8.0175,8.0209,8.0209,8.0209,8.0209,8.0209,8.0107,7.9972,7.9972,7.987,7.9665,7.9321,7.9008,7.8657,7.8337,7.8337,7.8444,7.8337,7.4869,7.4869,7.4869,7.5248,7.5893,7.6324,7.6722,7.7216,7.7377,7.7672,7.7773,7.6777,7.5846,7.5134,7.4414,7.3864,7.337,7.3327,7.2954,7.2984,7.2744,7.2684,7.2654,7.2355,7.2475,7.2595,7.2714,7.2834,7.3073,7.3073,7.2954,7.2894,7.2714,7.2565,7.2535,7.2535,7.2385,7.2176,7.2581,7.2827,7.2895,7.2486,7.2266,7.2286,7.2104,7.2387,7.2639,7.2889,7.3014,7.2983,7.2983,7.2983,7.3014,7.3571,7.4589,7.5839,7.671,7.7836,7.9089,7.9928,8.046,8.1356,8.1663,8.1765,8.1562,8.0716,8.0276,8.0276,8.0276,8.031,8.0276,8.0276,8.0276,8.0276,8.0276,8.0276,8.0276,8.0209,8.0209,8.0209,8.0209,8.0209,8.0209,8.0209,8.0209,8.0209,8.0209,8.0209,8.0209,8.0175,8.0141,8.0073,8.0107,8.0073,8.0209,8.0209,8.0209,8.0209,8.0209,8.0209,8.0209,8.0209,8.0209,7.9972,7.9768,7.9632,7.9217,7.8477,7.8155,7.8014,7.7796,7.7577,7.7245,7.7134,7.7134,7.4869,7.4869,7.4869,7.5142,7.5414,7.5789,7.6191,7.6457,7.6457,7.6691,7.6985,7.6294,7.5711,7.5244,7.4571,7.418,7.3762,7.3821,7.3911,7.3821,7.3432,7.3373,7.3283,7.3133,7.3163,7.3253,7.3672,7.3821,7.3702,7.3821,7.3821,7.3672,7.3283,7.3073,7.3103,7.3133,7.2924,7.2804,7.2894,7.3027,7.283,7.2188,7.1688,7.1624,7.188,7.2098,7.2627,7.2941,7.3125,7.3252,7.3282,7.3225,7.335,7.3662,7.4439,7.5305,7.613,7.6923,7.86,7.9738,8.0426,8.1341,8.1969,8.1698,8.2171,8.146,8.1156,8.1156,8.1393,8.1461,8.1122,8.1054,8.1021,8.0953,8.1156,8.1359,8.0919,8.0479,8.031,8.0209,8.0209,8.0209,8.0209,8.0209,8.0209,8.0209,8.0209,8.0209,8.0209,8.0209,8.0209,8.0209,8.0209,8.0209,8.0209,8.0209,8.0209,8.0209,8.0209,8.0209,8.0209,8.0209,8.0107,7.987,7.9528,7.9217,7.8657,7.7796,7.7245,7.699,7.6911,7.6686,7.6346,7.6034,7.6002,7.4869,7.4869,7.4869,7.4869,7.5006,7.5519,7.5789,7.5789,7.5789,7.5789,7.5789,7.5789,7.5789,7.5519,7.5278,7.5006,7.4779,7.454,7.4689,7.4599,7.421,7.4091,7.3851,7.3582,7.3762,7.4031,7.442,7.4599,7.4629,7.4629,7.4629,7.4839,7.4809,7.4689,7.4749,7.4659,7.424,7.3941,7.3941,7.4061,7.3283,7.2235,7.1828,7.1758,7.1737,7.2107,7.2759,7.3161,7.3434,7.3533,7.3571,7.3675,7.3741,7.4026,7.468,7.5401,7.5839,7.6693,7.7821,7.8957,7.9815,8.0755,8.1221,8.1901,8.2543,8.2472,8.2168,8.2103,8.2376,8.2206,8.1866,8.1765,8.1698,8.1631,8.1902,8.2038,8.1326,8.0682,8.0479,8.0242,8.0209,8.0209,8.0242,8.0242,8.0209,8.0209,8.0209,8.0209,8.0209,8.0209,8.0209,8.0209,8.0209,8.0209,8.0209,8.0209,8.0209,8.0209,8.0209,8.0209,8.0209,8.0209,8.0074,7.9768,7.9321,7.8657,7.7981,7.7245,7.6686,7.6231,7.6002,7.5919,7.5687,7.5337,7.5102,7.4869,7.4869,7.4869,7.4869,7.4869,7.5006,7.5142,7.5142,7.5172,7.5142,7.5172,7.5142,7.5142,7.5142,7.5006,7.4869,7.4869,7.4869,7.4869,7.4779,7.4629,7.4659,7.454,7.427,7.454,7.4689,7.4779,7.4839,7.4869,7.4869,7.4869,7.4869,7.43,7.418,7.4151,7.4151,7.4121,7.4031,7.4061,7.4031,7.3702,7.3043,7.3043,7.2907,7.2901,7.3093,7.3315,7.3607,7.3798,7.3829,7.3829,7.4028,7.4066,7.4225,7.482,7.5225,7.5644,7.6714,7.7665,7.8796,7.9904,8.1503,8.2268,8.325,8.3616,8.3858,8.3452,8.305,8.2983,8.2577,8.2374,8.2441,8.2443,8.2103,8.2172,8.1935,8.146,8.0851,8.0378,8.031,8.031,8.031,8.0344,8.031,8.0209,8.0209,8.0209,8.0209,8.0209,8.0209,8.0209,8.0209,8.0209,8.0209,8.0209,8.0209,8.0209,8.0209,8.0209,8.0209,8.0209,8.0209,7.9972,7.9528,7.8551,7.7687,7.7023,7.654,7.5887,7.5454,7.522,7.5134,7.4897,7.4897,7.4897]},{"header":{"parameterUnit":"m.s-1","parameterCategory":1,"la1":31.0,"la2":29.5877,"lo1":-88.7671,"lo2":-86.6584,"dx":0.0162,"dy":0.0185,"nx":115,"ny":88,"refTime":"2022-11-18T06:00:00:Z","depth":0,"parameterNumber":3,"parameterNumberName":"V-component_of_WINDS"},"data":[0.0,0.0,0.0,0.0,0.0,0.0,0.0,0.0,0.0,0.0,0.0,0.0,0.0,0.0,0.0,0.0,0.0,0.0,0.0,0.0,0.0,0.0,0.0,0.0,0.0,0.0,0.0,0.0,0.0,0.0,0.0,0.0,0.0,0.0,0.0,0.0,0.0,0.0,0.0,0.0,0.0,0.0,0.0,0.0,0.0,0.0,0.0,0.0,0.0,0.0,0.0,0.0,0.0,0.0,0.0,0.0,0.0,0.0,0.0,0.0,0.0,0.0,0.0,0.0,0.0,0.0,0.0,0.0,0.0,0.0,0.0,0.0,0.0,0.0,0.0,0.0,0.0,0.0,0.0,0.0,0.0,0.0,0.0,0.0,0.0,0.0,0.0,0.0,0.0,0.0,0.0,0.0,0.0,0.0,0.0,0.0,0.0,0.0,0.0,0.0,0.0,0.0,0.0,0.0,0.0,0.0,0.0,0.0,0.0,0.0,0.0,0.0,0.0,0.0,0.0,0.0,0.0,0.0,0.0,0.0,0.0,0.0,0.0,0.0,0.0,0.0,0.0,0.0,0.0,0.0,0.0,0.0,0.0,0.0,0.0,0.0,0.0,0.0,0.0,0.0,0.0,0.0,0.0,0.0,0.0,0.0,0.0,0.0,0.0,0.0,0.0,0.0,0.0,0.0,0.0,0.0,0.0,0.0,0.0,0.0,0.0,0.0,0.0,0.0,0.0,0.0,0.0,0.0,0.0,0.0,0.0,0.0,0.0,0.0,0.0,0.0,0.0,0.0,0.0,0.0,0.0,0.0,0.0,0.0,0.0,0.0,0.0,0.0,0.0,0.0,0.0,0.0,0.0,0.0,0.0,0.0,0.0,0.0,0.0,0.0,0.0,0.0,0.0,0.0,0.0,0.0,0.0,0.0,0.0,0.0,0.0,0.0,0.0,0.0,0.0,0.0,0.0,0.0,0.0,0.0,0.0,0.0,0.0,0.0,0.0,0.0,0.0,0.0,0.0,0.0,0.0,0.0,0.0,0.0,0.0,0.0,0.0,0.0,0.0,0.0,0.0,0.0,0.0,0.0,0.0,0.0,0.0,0.0,0.0,0.0,0.0,0.0,0.0,0.0,0.0,0.0,0.0,0.0,0.0,0.0,0.0,0.0,0.0,0.0,0.0,0.0,0.0,0.0,0.0,0.0,0.0,0.0,0.0,0.0,0.0,0.0,0.0,0.0,0.0,0.0,0.0,0.0,0.0,0.0,0.0,0.0,0.0,0.0,0.0,0.0,0.0,0.0,0.0,0.0,0.0,0.0,0.0,0.0,0.0,0.0,0.0,0.0,0.0,0.0,0.0,0.0,0.0,0.0,0.0,0.0,0.0,0.0,0.0,0.0,0.0,0.0,0.0,0.0,0.0,0.0,0.0,0.0,0.0,0.0,0.0,0.0,0.0,0.0,0.0,0.0,0.0,0.0,0.0,0.0,0.0,0.0,0.0,0.0,0.0,0.0,0.0,0.0,0.0,0.0,0.0,0.0,0.0,0.0,0.0,0.0,0.0,0.0,0.0,0.0,0.0,0.0,0.0,0.0,0.0,0.0,0.0,0.0,0.0,0.0,0.0,0.0,0.0,0.0,0.0,0.0,0.0,0.0,0.0,0.0,0.0,0.0,0.0,0.0,0.0,0.0,0.0,0.0,0.0,0.0,0.0,0.0,0.0,0.0,0.0,0.0,0.0,0.0,0.0,0.0,0.0,0.0,0.0,0.0,0.0,0.0,0.0,0.0,0.0,0.0,0.0,0.0,0.0,0.0,0.0,0.0,0.0,0.0,0.0,0.0,0.0,0.0,0.0,0.0,0.0,0.0,0.0,0.0,0.0,0.0,0.0,0.0,0.0,0.0,0.0,0.0,0.0,0.0,0.0,0.0,0.0,0.0,0.0,0.0,0.0,0.0,0.0,0.0,0.0,0.0,0.0,0.0,0.0,0.0,0.0,0.0,0.0,0.0,0.0,0.0,0.0,0.0,0.0,0.0,0.0,0.0,0.0,0.0,0.0,0.0,0.0,0.0,0.0,0.0,0.0,0.0,0.0,0.0,0.0,0.0,0.0,0.0,0.0,0.0,0.0,0.0,0.0,0.0,0.0,0.0,0.0,0.0,0.0,0.0,0.0,0.0,0.0,0.0,0.0,0.0,0.0,0.0,0.0,0.0,0.0,0.0,0.0,0.0,0.0,0.0,0.0,0.0,0.0,0.0,0.0,0.0,0.0,0.0,0.0,0.0,0.0,0.0,0.0,0.0,0.0,0.0,0.0,0.0,0.0,0.0,0.0,0.0,0.0,0.0,0.0,0.0,0.0,0.0,0.0,0.0,0.0,0.0,0.0,0.0,0.0,0.0,0.0,0.0,0.0,0.0,0.0,0.0,0.0,0.0,0.0,0.0,0.0,0.0,0.0,0.0,0.0,0.0,0.0,0.0,0.0,0.0,0.0,0.0,0.0,0.0,0.0,0.0,0.0,0.0,0.0,0.0,0.0,0.0,0.0,0.0,0.0,0.0,0.0,0.0,0.0,0.0,0.0,0.0,0.0,0.0,0.0,0.0,0.0,0.0,0.0,0.0,0.0,0.0,0.0,0.0,0.0,0.0,0.0,0.0,0.0,0.0,0.0,0.0,0.0,0.0,0.0,0.0,0.0,0.0,0.0,0.0,0.0,0.0,0.0,0.0,0.0,0.0,0.0,0.0,0.0,0.0,0.0,0.0,0.0,0.0,0.0,0.0,0.0,0.0,0.0,0.0,0.0,0.0,0.0,0.0,0.0,0.0,0.0,0.0,0.0,0.0,0.0,0.0,0.0,0.0,0.0,0.0,0.0,0.0,0.0,0.0,0.0,0.0,0.0,0.0,0.0,0.0,0.0,0.0,0.0,0.0,0.0,0.0,0.0,0.0,0.0,0.0,0.0,0.0,0.0,0.0,0.0,0.0,0.0,0.0,0.0,0.0,0.0,0.0,0.0,0.0,0.0,0.0,0.0,0.0,0.0,0.0,0.0,0.0,0.0,0.0,0.0,0.0,0.0,0.0,0.0,0.0,0.0,0.0,0.0,0.0,0.0,0.0,0.0,0.0,0.0,0.0,0.0,0.0,0.0,0.0,0.0,0.0,0.0,0.0,0.0,0.0,0.0,0.0,0.0,0.0,0.0,0.0,0.0,0.0,0.0,0.0,0.0,0.0,0.0,0.0,0.0,0.0,0.0,0.0,0.0,0.0,0.0,0.0,0.0,0.0,0.0,0.0,0.0,0.0,0.0,0.0,0.0,0.0,0.0,0.0,0.0,0.0,0.0,0.0,0.0,0.0,0.0,0.0,0.0,0.0,0.0,0.0,0.0,0.0,0.0,0.0,0.0,0.0,0.0,0.0,0.0,0.0,0.0,0.0,0.0,0.0,0.0,0.0,0.0,0.0,0.0,0.0,0.0,0.0,0.0,0.0,0.0,0.0,0.0,0.0,0.0,0.0,0.0,0.0,0.0,0.0,0.0,0.0,0.0,0.0,0.0,0.0,0.0,0.0,0.0,0.0,0.0,0.0,0.0,0.0,0.0,0.0,0.0,0.0,0.0,0.0,0.0,0.0,0.0,0.0,0.0,0.0,0.0,0.0,0.0,0.0,0.0,0.0,0.0,0.0,0.0,0.0,0.0,0.0,0.0,0.0,0.0,0.0,0.0,0.0,0.0,0.0,0.0,0.0,0.0,0.0,0.0,0.0,0.0,0.0,0.0,0.0,0.0,0.0,0.0,0.0,0.0,0.0,0.0,0.0,0.0,0.0,0.0,0.0,0.0,0.0,0.0,0.0,0.0,0.0,0.0,0.0,0.0,0.0,0.0,0.0,0.0,0.0,0.0,0.0,0.0,0.0,0.0,0.0,0.0,0.0,0.0,0.0,0.0,0.0,0.0,0.0,0.0,0.0,0.0,0.0,0.0,0.0,0.0,0.0,0.0,0.0,0.0,0.0,0.0,0.0,0.0,0.0,0.0,0.0,0.0,0.0,0.0,0.0,0.0,0.0,0.0,0.0,0.0,0.0,0.0,0.0,0.0,0.0,0.0,0.0,0.0,0.0,0.0,0.0,0.0,0.0,0.0,0.0,0.0,0.0,0.0,0.0,0.0,0.0,0.0,0.0,0.0,0.0,0.0,0.0,0.0,0.0,0.0,0.0,0.0,0.0,0.0,0.0,0.0,0.0,0.0,0.0,0.0,0.0,0.0,0.0,-0.1023,0.0,0.0,0.0,-0.2118,0.0,0.0,0.0,0.0,0.0,0.0,0.0,0.0,0.0,0.0,0.0,0.0,0.0,0.0,0.0,0.0,0.0,0.0,0.0,0.0,0.0,0.0,0.0,0.0,0.0,0.0,0.0,0.0,0.0,0.0,0.0,0.0,0.0,0.0,0.0,0.0,0.0,0.0,0.0,0.0,0.0,0.0,0.0,0.0,0.0,0.0,0.0,0.0,0.0,0.0,0.0,0.0,0.0,0.0,0.0,0.0,0.0,0.0,0.0,0.0,0.0,0.0,0.0,0.0,0.0,0.0,0.0,0.0,0.0,0.0,0.0,0.0,0.0,0.0,0.0,0.0,0.0,0.0,0.0,0.0,0.0,0.0,0.0,0.0,0.0,0.0,0.0,0.0,0.0,0.0,0.0,0.0,0.0,0.0,0.0,0.0,0.0,0.0,0.0,0.0,0.0,0.0,0.0,0.0,0.0,0.0,0.0,0.0,0.0,0.0,-0.0653,-0.1528,-0.0,-0.0045,-0.1879,0.0,0.0,0.0,0.0,0.0,0.0,0.0,0.0,0.0,0.0,0.0,0.0,0.0,0.0,0.0,0.0,0.0,0.0,0.0,0.0,0.0,0.0,0.0,0.0,0.0,0.0,0.0,0.0,0.0,0.0,0.0,0.0,0.0,0.0,0.0,0.0,0.0,0.0,0.0,0.0,0.0,0.0,0.0,0.0,0.0,0.0,0.0,0.0,0.0,0.0,0.0,0.0,0.0,0.0,0.0,0.0,0.0,0.0,0.0,0.0,0.0,0.0,0.0,0.0,0.0,0.0,0.0,0.0,0.0,0.0,0.0,0.0,0.0,0.0,0.0,0.0,0.0,0.0,0.0,0.0,0.0,0.0,0.0,0.0,0.0,0.0,0.0,0.0,0.0,0.0,0.0,0.0,0.0,0.0,0.0,0.0,0.0,0.0,0.0,0.0,0.0,0.0,0.0,0.0,0.0,0.0,0.0,0.0,0.0,0.0,0.0,0.0,0.0144,0.0142,-0.1283,0.0,0.0,0.0,0.0,0.0,0.0,0.0,0.0,0.0,0.0,0.0,0.0,0.0,0.0,0.0,0.0,0.0,0.0,0.0,0.0,0.0,0.0,0.0,0.0,0.0,0.0,0.0,0.0,0.0,0.0,0.0,0.0,0.0,0.0,0.0,0.0,0.0,0.0,0.0,0.0,0.0,0.0,0.0,0.0,0.0,0.0,0.0,0.0,0.0,0.0,0.0,0.0,0.0,0.0,0.0,0.0,0.0,0.0,0.0,0.0,0.0,0.0,0.0,0.0,0.0,0.0,0.0,0.0,0.0,0.0,0.0,0.0,0.0,0.0,0.0,0.0,0.0,0.0,0.0,0.0,0.0,0.0,0.0,0.0,0.0,0.0,0.0,0.0,0.0,0.0,0.0,0.0,0.0,0.0,0.0,0.0,0.0,0.0,0.0,0.0,0.0,0.0,0.0,0.0,0.0,0.0,0.0,0.0,0.0,0.0,-0.0868,-0.0235,-0.0047,0.0,-0.0355,0.0,0.0,0.0,0.0,0.0,0.0,0.0,0.0,0.0,0.0,0.0,0.0,0.0,0.0,0.0,0.0,0.0,0.0,0.0,0.0,0.0,0.0,0.0,0.0,0.0,0.0,0.0,0.0,0.0,0.0,0.0,0.0,0.0,0.0,0.0,0.0,0.0,0.0,0.0,0.0,0.0,0.0,0.0,0.0,0.0,0.0,0.0,0.0,0.0,0.0,0.0,0.0,0.0,0.0,0.0,0.0,0.0,0.0,0.0,0.0,0.0,0.0,0.0,0.0,0.0,0.0,0.0,0.0,0.0,0.0,0.0,0.0,0.0,0.0,0.0,0.0,0.0,0.0,0.0,0.0,0.0,0.0,0.0,0.0,0.0,0.0,0.0,0.0,0.0,0.0,0.0,0.0,0.0,0.0,0.0,0.0,0.0,0.0,0.0,0.0,0.0,0.0,0.0,0.0,0.0,0.0,0.0,0.0,0.0,0.0,-0.0774,0.0196,0.0147,-0.0094,0.0,0.0,0.0,0.0,0.0,0.0,0.0,0.0,0.0,0.0,0.0,0.0,0.0,0.0,0.0,0.0,0.0,0.0,0.0,0.0,0.0,0.0,0.0,0.0,0.0,0.0,0.0,0.0,0.0,0.0,0.0,0.0,0.0,0.0,0.0,0.0,0.0,0.0,0.0,0.0,0.0,0.0,0.0,0.0,0.0,0.0,0.0,0.0,0.0,0.0,0.0,0.0,0.0,0.0,0.0,0.0,0.0,0.0,0.0,0.0,0.0,0.0,0.0,0.0,0.0,0.0,0.0,0.0,0.0,0.0,0.0,0.0,0.0,0.0,0.0,0.0,0.0,0.0,0.0,0.0,0.0,0.0,0.0,0.0,0.0,0.0,0.0,0.0,0.0,0.0,0.0,0.0,0.0,0.0,0.0,0.0,0.0,0.0,0.0,0.0,0.0,0.0,0.0,0.0,0.0,0.0,0.0,0.0,0.0,0.0,-0.0493,-0.0303,0.0661,0.0252,-0.0239,-0.0727,0.0,0.0,0.0,0.0,0.0,0.0,0.0,0.0,0.0,0.0,0.0,0.0,0.0,0.0,0.0,0.0,0.0,0.0,0.0,0.0,0.0,0.0,0.0,0.0,0.0,0.0,0.0,0.0,0.0,0.0,0.0,0.0,0.0,0.0,0.0,0.0,0.0,0.0,0.0,0.0,0.0,0.0,0.0,0.0,0.0,0.0,0.0,0.0,0.0,0.0,0.0,0.0,0.0,0.0,0.0,0.0,0.0,0.0,0.0,0.0,0.0,0.0,0.0,0.0,0.0,0.0,0.0,0.0,0.0,0.0,0.0,0.0,0.0,0.0,0.0,0.0,0.0,0.0,0.0,0.0,0.0,0.0,0.0,0.0,0.0,0.0,0.0,0.0,0.0,0.0,0.0,0.0,0.0,0.0,0.0,0.0,0.0,0.0,0.0,0.0,0.0,0.0,0.0,0.0,0.0,0.0,0.0,0.0,0.1772,0.0866,0.0766,0.1581,0.0102,-0.0533,0.0,0.0,0.0,0.0,0.0,0.0,0.0,0.0,0.0,0.0,0.0,0.0,0.0,0.0,0.0,0.0,0.0,0.0,0.0,0.0,0.0,0.0,0.0,0.0,0.0,0.0,0.0,0.0,0.0,0.0,0.0,0.0,0.0,0.0,0.0,0.0,0.0,0.0,0.0,0.0,0.0,0.0,0.0,0.0,0.0,0.0,0.0,0.0,0.0,0.0,0.0,0.0,0.0,0.0,0.0,0.0,0.0,0.0,0.0,0.0,0.0,0.0,0.0,0.0,0.0,0.0,0.0,0.0,0.0,0.0,0.0,0.0,0.0,0.0,0.0,0.0,0.0,0.0,0.0,0.0,0.0,0.0,0.0,0.0,0.0,0.0,0.0,0.0,0.0,0.0,0.0,0.0,0.0,0.0,0.0,0.0,0.0,0.0,0.0,0.0,0.0,0.0,0.0,0.0,0.0,0.0,0.0,0.0,0.0,0.0095,0.0817,0.1494,0.2084,0.1141,0.0586,0.0,0.0,0.0,0.0,0.0,0.0,0.0,0.0,0.0,0.0,0.0,0.0,0.0,0.0,0.0,0.0,0.0,0.0,0.0,0.0,0.0,0.0,0.0,0.0,0.0,0.0,0.0,0.0,0.0,0.0,0.0,0.0,0.0,0.0,0.0,0.0,0.0,0.0,0.0,0.0,0.0,0.0,0.0,0.0,0.0,0.0,0.0,0.0,0.0,0.0,0.0,0.0,0.0,0.0,0.0,0.0,0.0,0.0,0.0,0.0,0.0,0.0,0.0,0.0,0.0,0.0,0.0,0.0,0.0,0.0,0.0,0.0,0.0,0.0,0.0,0.0,0.0,0.0,0.0,0.0,0.0,0.0,0.0,0.0,0.0,0.0,0.0,0.0,0.0,0.0,0.0,0.0,0.0,0.0,0.0,0.0,0.0,0.0,0.0,0.0,0.0,0.0,0.0,0.0,0.0,0.0,0.0,0.0,0.0,0.03,0.1983,0.2952,0.2938,0.1984,0.114,0.0,0.0,0.0,0.0,0.0,0.0,0.0,0.0,0.0,0.0,0.0,0.0,0.0,0.0,0.0,0.0,0.0,0.0,0.0,0.0,0.0,0.0,0.0,0.0,0.0,0.0,0.0,0.0,0.0,0.0,0.0,0.0,0.0,0.0,0.0,0.0,0.0,0.0,0.0,0.0,0.0,0.0,0.0,0.0,0.0,0.0,0.0,0.0,0.0,0.0,0.0,0.0,0.0,0.0,0.0,0.0,0.0,0.0,0.0,0.0,0.0,0.0,0.0,0.0,0.0,0.0,0.0,0.0,0.0,0.0,0.0,0.0,0.0,0.0,0.0,0.0,0.0,0.0,0.0,0.0,0.0,0.0,0.0,0.0,0.0,0.0,0.0,0.0,0.0,0.0,0.0,0.0,0.0,0.0,0.0,0.0,0.0,0.0,0.0,0.0,0.0,0.0,0.0,0.0,0.0,0.0,0.0,0.0,0.07,0.2786,0.4538,0.506,0.4222,0.2531,0.1072,0.0,0.0,0.0,0.0,0.0,0.0,0.0,0.0,0.0,0.0,0.0,0.0,0.0,0.0,0.0,0.0,0.0,0.0,0.0,0.0,0.0,0.0,0.0,0.0,0.0,0.0,0.0,0.0,0.0,0.0,0.0,0.0,0.0,0.0,0.0,0.0,0.0,0.0,0.0,0.0,0.0,0.0,0.0,0.0,0.0,0.0,0.0,0.0,0.0,0.0,0.0,0.0,0.0,0.0,0.0,0.0,0.0,0.0,0.0,0.0,0.0,0.0,0.0,0.0,0.0,0.0,0.0,0.0,0.0,0.0,0.0,0.0,0.0,0.0,0.0,0.0,0.0,0.0,0.0,0.0,0.0,0.0,0.0,0.0,0.0,0.0,0.0,0.0,0.0,0.0,0.0,0.0,0.0,0.0,0.0,0.0,0.0,0.0,0.0,0.0,0.0,0.0,0.0,0.0,0.0,0.0,0.0,0.0,0.0,0.2237,0.4284,0.5486,0.5553,0.4047,0.2862,0.0,0.0,0.0,0.0,0.0,0.0,0.0,0.0,0.0,0.0,0.0,0.0,0.0,0.0,0.0,0.0,0.0,0.0,0.0,0.0,0.0,0.0,0.0,0.0,0.0,0.0,0.0,0.0,0.0,0.0,0.0,0.0,0.0,0.0,0.0,0.0,0.0,0.0,0.0,0.0,0.0,0.0,0.0,0.0,0.0,0.0,0.0,0.0,0.0,0.0,0.0,0.0,0.0,0.0,0.0,0.0,0.0,0.0,0.0,0.0,0.0,0.0,0.0,0.0,0.0,0.0,0.0,0.0,0.0,0.0,0.0,0.0,0.0,0.0,0.0,0.0,0.0,0.0,0.0,0.0,0.0,0.0,0.0,0.0,0.0,0.0,0.0,0.0,0.0,0.0,0.0,0.0,0.0,0.0,0.0,0.0,0.0,0.0,0.0,0.0,0.0,0.0,0.0,0.0,0.0,0.0,0.0,0.0,0.0,0.4475,0.6273,0.7282,0.7267,0.5435,0.4235,0.364,0.0,0.0,0.0,0.0,0.0,0.0,0.0,0.0,0.0,0.0,0.0,0.0,0.0,0.0,0.0,0.0,0.0,0.0,0.0,0.0,0.0,0.0,0.0,0.0,0.0,0.0,0.0,0.0,0.0,0.0,0.0,0.0,0.0,0.0,0.0,0.0,0.0,0.0,0.0,0.0,0.0,0.0,0.0,0.0,0.0,0.0,0.0,0.0,0.0,0.0,0.0,0.0,0.0,0.0,0.0,0.0,0.0,0.0,0.0,0.0,0.0,0.0,0.0,0.0,0.0,0.0,0.0,0.0,0.0,0.0,0.0,0.0,0.0,0.0,0.0,0.0,0.0,0.0,0.0,0.0,0.0,0.0,0.0,0.0,0.0,0.0,0.0,0.0,0.0,0.0,0.0,0.0,0.0,0.0,0.0,0.0,0.0,0.0,0.0,0.0,0.0,0.0,0.0,0.0,0.0,0.0,0.0,0.0,0.8673,1.0104,1.0233,0.9045,0.68,0.5223,0.0,0.0,0.0,0.0,0.0,0.0,0.0,0.0,0.0,0.0,0.0,0.0,0.0,0.0,0.0,0.0,0.0,0.0,0.0,0.0,0.0,0.0,0.0,0.0,0.0,0.0,0.0,0.0,0.0,0.0,0.0,0.0,0.0,0.0,0.0,0.0,0.0,0.0,0.0,0.0,0.0,0.0,0.0,0.0,0.0,0.0,0.0,0.0,0.0,0.0,0.0,0.0,0.0,0.0,0.0,0.0,0.0,0.0,0.0,0.0,0.0,0.0,0.0,0.0,0.0,0.0,0.0,0.0,0.0,0.0,0.0,0.0,0.0,0.0,0.0,0.0,0.0,0.0,0.0,0.0,0.0,0.0,0.0,0.0,0.0,0.0,0.0,0.0,0.0,0.0,0.0,0.0,0.0,0.0,0.0,0.0,0.0,0.0,0.0,0.0,0.0,0.0,0.0,0.0,0.0,0.0,0.0,0.0,0.0,0.9821,1.1568,1.201,1.09,0.8112,0.6222,0.0,0.0,0.0,0.0,0.0,0.0,0.0,0.0,0.0,0.0,0.0,0.0,0.0,0.0,0.0,0.0,0.0,0.0,0.0,0.0,0.0,0.0,0.0,0.0,0.0,0.0,0.0,0.0,0.0,0.0,0.0,0.0,0.0,0.0,0.0,0.0,0.0,0.0,0.0,0.0,0.0,0.0,0.0,0.0,0.0,0.0,0.0,0.0,0.0,0.0,0.0,0.0,0.0,0.0,0.0,0.0,0.0,0.0,0.0,0.0,0.0,0.0,0.0,0.0,0.0,0.0,0.0,0.0,0.0,0.0,0.0,0.0,0.0,0.0,0.0,0.0,0.0,0.0,0.0,0.0,0.0,0.0,0.0,0.0,0.0,0.0,0.0,0.0,0.0,0.0,0.0,0.0,0.0,0.0,0.0,0.0,0.0,0.0,0.0,0.0,0.0,0.0,0.0,0.0,0.0,0.0,0.0,0.0,0.9587,1.1915,1.3233,1.369,1.3136,0.9885,0.7243,0.0,0.0,0.0,0.0,0.0,0.0,0.0,0.0,0.0,0.0,0.0,0.0,0.0,0.0,0.0,0.0,0.0,0.0,0.0,0.0,0.0,0.0,0.0,0.0,0.0,0.0,0.0,0.0,0.0,0.0,0.0,0.0,0.0,0.0,0.0,0.0,0.0,0.0,0.0,0.0,0.0,0.0,0.0,0.0,0.0,0.0,0.0,0.0,0.0,0.0,0.0,0.0,0.0,0.0,0.0,0.0,0.0,0.0,0.0,0.0,0.0,0.0,0.0,0.0,0.0,0.0,0.0,0.0,0.0,0.0,0.0,0.0,0.0,0.0,0.0,0.0,0.0,0.0,0.0,0.0,0.0,0.0,0.0,0.0,0.0,0.0,0.0,0.0,0.0,0.0,0.0,0.0,0.0,0.0,0.0,0.0,0.0,0.0,0.0,0.0,0.0,0.0,0.0,0.0,0.0,0.0,0.0,0.0,1.0017,1.4379,1.4976,1.5206,1.5221,1.19,0.8455,0.0,0.0,0.0,0.0,0.0,0.0,0.0,0.0,0.0,0.0,0.0,0.0,0.0,0.0,0.0,0.0,0.0,0.0,0.0,0.0,0.0,0.0,0.0,0.0,0.0,0.0,0.0,0.0,0.0,0.0,0.0,0.0,0.0,0.0,0.0,0.0,0.0,0.0,0.0,0.0,0.0,0.0,0.0,0.0,0.0,0.0,0.0,0.0,0.0,0.0,0.0,0.0,0.0,0.0,0.0,0.0,0.0,0.0,0.0,0.0,0.0,0.0,0.0,0.0,0.0,0.0,0.0,0.0,0.0,0.0,0.0,0.0,0.0,0.0,0.0,0.0,0.0,0.0,0.0,0.0,0.0,0.0,0.0,0.0,0.0,0.0,0.0,0.0,0.0,0.0,0.0,0.0,0.0,0.0,0.0,0.0,0.0,0.0,0.0,0.0,0.0,0.0,0.0,0.0,0.0,0.0,0.0,0.0,1.1175,1.5132,1.6014,1.6515,1.6742,1.3509,1.0309,0.0,0.0,0.0,0.0,0.0,0.0,0.0,0.0,0.0,0.0,0.0,0.0,0.0,0.0,0.0,0.0,0.0,0.0,0.0,0.0,0.0,0.0,0.0,0.0,0.0,0.0,0.0,0.0,0.0,0.0,0.0,0.0,0.0,0.0,0.0,0.0,0.0,0.0,0.0,0.0,0.0,0.0,0.0,0.0,0.0,0.0,0.0,0.0,0.4361,0.0,0.0,0.0,0.0,0.0,0.0,0.0,0.0,0.0,0.0,0.0,0.0,0.0,0.0,0.0,0.0,0.0,0.0,0.0,0.0,0.0,0.0,0.0,0.0,0.0,0.0,0.0,0.0,0.0,0.0,0.0,0.0,0.0,0.0,0.0,0.0,0.0,0.0,0.0,0.0,0.0,0.0,0.0,0.0,0.0,0.0,0.0,0.0,0.0,0.0,0.0,0.0,0.0,0.0,0.0,0.0,0.0,0.0,0.0,1.3105,1.6625,1.7055,1.734,1.7721,1.5977,1.3131,0.0,0.0,0.0,0.0,0.0,0.0,0.0,0.0,0.0,0.0,0.0,0.0,0.0,0.0,0.0,0.0,0.0,0.0,0.0,0.0,0.0,0.0,0.0,0.0,0.0,0.0,0.0,0.0,0.0,0.0,0.0,0.0,0.0,0.0,0.0,0.0,0.0,0.0,0.0,0.0,0.0,0.0,0.0,0.0,0.0,0.0,0.0,0.0,0.0,0.0,0.0,0.0,0.0,0.0,0.0,0.0,0.0,0.0,0.0,0.0,0.0,0.0,0.0,0.0,0.0,0.0,0.0,0.0,0.0,0.0,0.0,0.0,0.0,0.0,0.0,0.0,0.0,0.0,0.0,0.0,0.0,0.0,0.0,0.0,0.0,0.0,0.0,0.0,0.0,0.0,0.0,0.0,0.0,0.0,0.0,0.0,0.0,0.0,0.0,0.0,0.0,0.0,0.0,0.0,0.0,0.0,0.0,1.166,1.4607,1.7994,1.8072,1.8177,1.8599,1.837,1.591,1.0953,0.0,0.0,0.0,0.0,0.0,0.0,0.0,0.0,0.0,0.0,0.0,0.0,0.0,0.0,0.0,0.0,0.0,0.0,0.0,0.0,0.0,0.0,0.0,0.0,0.0,0.0,0.0,0.0,0.0,0.0,0.0,0.0,0.0,0.0,0.0,0.0,0.0,0.0,0.2364,0.3488,0.0,0.0,0.0,0.0,0.0,0.0,0.0,0.0,0.5359,0.0,0.0,0.0,0.0,0.0,0.0,0.0,0.0,0.0,0.0,0.0,0.0,0.0,0.0,0.0,0.0,0.0,0.0,0.0,0.0,0.0,0.0,0.0,0.0,0.0,0.0,0.0,0.0,0.0,0.0,0.0,0.0,0.0,0.0,0.0,0.0,0.0,0.0,0.0,0.0,0.0,0.0,0.0,0.0,0.0,0.0,0.0,0.0,0.0,0.0,0.0,0.0,0.0,0.0,0.0,0.0,1.0417,1.1482,1.4127,1.8194,1.905,1.9417,1.9209,1.9222,1.6896,1.217,0.0,0.0,0.0,0.0,0.0,0.0,0.0,0.0,0.0,0.0,0.0,0.0,0.0,0.0,0.0,0.0,0.0,0.0,0.0,0.0,0.0,0.0,0.0,0.0,0.0,0.0,0.0,0.0,0.0,0.0,0.0,0.0,0.0,0.0,0.0,0.0,0.0,0.0,0.0,0.5393,0.5951,0.0,0.0,0.0,0.0,0.0,0.0,0.0,0.0,0.6446,0.0,0.0,0.0,0.0,0.0,0.0,0.0,0.0,0.0,0.0,0.0,0.0,0.0,0.0,0.0,0.0,0.0,0.0,0.0,0.0,0.0,0.0,0.0,0.0,0.0,0.0,0.0,0.0,0.0,0.0,0.0,0.0,0.0,0.0,0.0,0.0,0.0,0.0,0.0,0.0,0.0,0.0,0.0,0.0,0.0,0.0,0.0,0.0,0.0,0.0,0.0,0.0,0.0,0.0,0.0,1.1198,1.4021,1.6723,1.9063,1.9417,1.9611,1.9594,1.936,1.7091,0.0,0.0,0.0,0.0,0.0,0.0,0.0,0.0,0.0,0.0,0.0,0.0,0.0,0.0,0.0,0.0,0.0,0.0,0.0,0.0,0.0,0.0,0.0,0.0,0.0,0.0,0.0,0.0,0.0,0.0,0.0,0.0,0.0,0.0,0.0,0.0,0.0,0.0,0.0,0.0,0.6122,0.6795,0.7287,0.0,0.0,0.0,0.0,0.0,0.0,0.71,0.6939,0.0,0.0,0.0,0.0,0.0,0.0,0.0,0.0,0.0,0.0,0.0,0.0,0.0,0.0,0.0,0.0,0.0,0.0,0.0,0.0,0.0,0.0,0.0,0.0,0.0,0.0,0.0,0.0,0.0,0.0,0.0,0.0,0.0,0.0,0.0,0.0,0.0,0.0,0.0,0.0,0.0,0.0,0.0,0.0,0.0,0.0,0.0,0.0,0.0,0.0,0.0,0.0,0.0,0.0,0.0,1.1935,1.6074,1.881,1.9878,1.9625,1.9566,1.9909,1.9358,1.7088,0.0,0.0,0.0,0.0,0.0,0.0,0.0,0.0,0.0,0.0,0.0,0.0,0.0,0.0,0.0,0.0,0.0,0.0,0.0,0.0,0.0,0.0,0.0,0.0,0.0,0.0,0.0,0.0,0.0,0.0,0.0,0.0,0.0,0.0,0.0,0.0,0.0,0.0,0.0,0.0,0.0,0.7472,0.7893,0.7897,0.0,0.0,0.0,0.0,0.8369,0.8263,0.0,0.0,0.0,0.0,0.0,0.0,0.0,0.0,0.0,0.0,0.0,0.0,0.0,0.0,0.0,0.0,0.0,0.0,0.0,0.0,0.0,0.0,0.0,0.0,0.0,0.0,0.0,0.0,0.0,0.0,0.0,0.0,0.0,0.0,0.0,0.0,0.0,0.0,0.0,0.0,0.0,0.0,0.0,0.0,0.0,0.0,0.0,0.0,0.0,0.0,0.0,0.0,0.0,0.0,0.0,0.0,1.245,1.5022,1.7634,2.0074,2.0192,2.0128,2.0114,1.9575,1.7371,0.0,0.0,0.0,0.0,0.0,0.0,0.0,0.0,0.0,0.0,0.0,0.0,0.0,0.0,0.0,0.0,0.0,0.0,0.0,0.0,0.0,0.0,0.0,0.0,0.0,0.0,0.0,0.0,0.0,0.0,0.0,0.0,0.0,0.0,0.0,0.0,0.0,0.0,0.0,0.0,0.0,0.8427,0.6247,0.7821,0.8836,0.0,0.0,1.0272,1.1509,1.2016,0.0,0.0,0.0,0.0,0.0,0.0,0.0,0.0,0.0,0.0,0.0,0.0,0.0,0.0,0.0,0.0,0.0,0.0,0.0,0.0,0.0,0.0,0.0,0.0,0.0,0.0,0.0,0.0,0.0,0.0,0.0,0.0,0.0,0.0,0.0,0.0,0.0,0.0,0.0,0.0,0.0,0.0,0.0,0.0,0.0,0.0,0.0,0.0,0.0,0.0,0.0,0.0,0.0,0.0,0.0,1.154,1.3368,1.6704,1.9237,2.0759,2.0728,2.0706,2.0516,1.9671,1.7482,0.0,0.0,0.0,0.0,0.0,0.0,0.0,0.0,0.0,0.0,0.0,0.0,0.0,0.0,0.0,0.0,0.0,0.0,0.0,0.0,0.0,0.0,0.0,0.0,0.0,0.0,0.0,0.0,0.0,0.0,0.0,0.0,0.0,0.0,0.0,0.0,0.0,0.0,0.0,0.0,0.0,0.0,0.966,1.0339,0.0,0.0,0.0,1.1626,1.2213,0.0,0.0,0.0,0.0,0.0,0.0,0.0,0.0,0.0,0.0,0.0,0.0,0.0,0.0,0.0,0.0,0.0,0.0,0.0,0.0,0.0,0.0,0.0,0.0,0.0,0.0,0.0,0.0,0.0,0.0,0.0,0.0,0.0,0.0,0.0,0.0,0.0,0.0,0.0,0.0,0.0,0.0,0.0,0.0,0.0,0.0,0.0,0.0,0.0,0.0,0.0,0.0,0.0,0.0,0.0,0.0,0.0,1.3803,1.8225,2.0843,2.1306,2.1263,2.1145,2.0969,2.0048,0.0,0.0,0.0,0.0,0.0,0.0,0.0,0.0,0.0,0.0,0.0,0.0,0.0,0.0,0.0,0.0,0.0,0.0,0.0,0.0,0.0,0.0,0.0,0.0,0.0,0.0,0.0,0.2428,0.0,0.0,0.0,0.0,0.0,0.0,0.0,0.0,0.0,0.0,0.0,0.0,0.0,0.0,1.1122,1.2384,1.247,1.2652,0.0,0.0,1.3081,1.3375,1.4105,1.4097,0.0,0.0,0.0,0.0,0.0,0.0,0.0,0.0,0.0,0.0,0.0,0.0,0.0,0.0,0.0,0.0,0.0,0.0,0.0,0.0,0.0,0.0,0.0,0.0,0.0,0.0,0.0,0.0,0.0,0.0,0.0,0.0,0.0,0.0,0.0,0.0,0.0,0.0,0.0,0.0,0.0,0.0,0.0,0.0,0.0,0.0,0.0,0.0,0.0,0.0,0.0,0.0,0.0,0.0,0.0,1.3707,1.855,2.132,2.1686,2.1379,2.135,2.1598,2.0706,1.8377,0.0,0.0,0.0,0.0,0.0,0.0,0.0,0.0,0.0,0.0,0.0,0.0,0.0,0.0,0.0,0.0,0.0,0.0,0.0,0.0,0.0,0.0,0.0,0.0,0.0,0.0,0.0,0.0,0.0,0.0,0.0,0.0,0.0,0.0,0.0,0.0,0.0,0.0,0.0,0.0,0.0,1.1272,1.2068,1.3113,1.4395,0.0,0.0,1.5114,1.6315,1.6764,1.6339,1.4289,0.0,0.0,0.0,0.0,0.0,0.0,0.0,0.0,0.0,0.0,0.0,0.0,0.0,0.0,0.0,0.0,0.0,0.0,0.0,0.0,0.0,0.0,0.0,0.0,0.0,0.0,0.0,0.0,0.0,0.0,0.0,0.0,0.0,0.0,0.0,0.0,0.0,0.0,0.0,0.0,0.0,0.0,0.0,0.0,0.0,0.0,0.0,0.0,0.0,0.0,0.0,0.0,0.0,1.4251,1.4861,1.9594,2.2422,2.2857,2.2945,2.2857,2.2579,2.1832,1.9857,0.0,0.0,0.0,0.0,0.0,0.0,0.0,0.0,0.0,0.0,0.0,0.0,0.0,0.0,0.0,0.0,0.0,0.0,0.0,0.0,0.0,0.0,0.0,0.0,0.0,0.0,0.0,0.0,0.7491,0.9036,0.8884,0.0,0.0,0.0,0.0,0.0,0.0,0.0,0.0,0.0,0.0,1.3872,1.4655,1.506,0.0,0.0,1.6364,1.6108,1.7107,1.7114,1.6553,1.5591,1.4803,0.0,0.0,0.0,0.0,0.0,0.0,0.0,0.0,0.0,0.0,0.0,0.0,0.0,0.0,0.0,0.0,0.0,0.0,0.0,0.0,0.0,0.0,0.0,0.0,0.0,0.0,0.0,0.0,0.0,0.0,0.0,0.0,0.0,0.0,0.0,0.0,0.0,0.0,0.0,0.0,0.0,0.0,0.0,0.0,0.0,0.0,0.0,0.0,0.0,0.0,0.0,0.0,1.523,1.5944,2.1031,2.3747,2.397,2.4208,2.402,2.3398,2.2784,2.1191,0.0,0.0,0.0,0.0,0.0,0.0,0.0,0.0,0.0,0.0,0.0,0.0,0.0,0.0,0.0,0.0,0.0,0.0,0.0,0.0,0.0,0.0,0.0,0.0,0.0,0.0,0.0,0.0,0.8012,0.8179,0.7151,0.0,0.0,0.0,0.0,0.0,0.0,0.0,0.0,0.0,0.0,1.5862,1.699,1.6782,1.686,1.7596,1.7211,1.6985,1.7408,1.7468,1.7089,1.6246,0.0,0.0,0.0,0.0,0.0,0.0,0.0,0.0,0.0,0.0,0.0,0.0,0.0,0.0,0.0,0.0,0.0,0.0,0.0,0.0,0.0,0.0,0.0,0.0,0.0,0.0,0.0,0.0,0.0,0.0,0.6541,0.0,0.0,0.0,0.0,0.0,0.0,0.0,0.0,0.0,0.0,0.0,0.0,0.0,0.0,0.0,0.0,0.0,0.0,0.0,0.0,0.0,0.0,1.6594,1.6746,2.2559,2.5376,2.4792,2.465,2.4562,2.4157,2.3442,2.1929,1.9566,0.0,0.0,0.0,0.0,0.0,0.0,0.0,0.0,0.0,0.0,0.0,0.0,0.0,0.0,0.0,0.0,0.0,0.0,0.0,0.0,0.0,0.0,0.0,0.0,0.0,0.0,0.8381,0.8247,0.8153,0.0,0.0,0.0,0.0,0.0,0.0,0.0,0.0,0.0,0.0,1.5577,1.6605,1.8237,1.821,1.8023,1.805,1.7782,1.7488,1.7365,1.8163,1.8144,0.0,0.0,0.0,0.0,0.0,0.0,0.0,0.0,0.0,0.0,0.0,0.0,0.0,0.0,0.0,0.0,0.0,0.0,0.0,0.0,0.0,0.0,0.0,0.0,0.0,0.0,0.0,0.8918,0.8372,0.0,0.0,0.0,0.0,0.0,0.0,0.0,0.0,0.0,0.0,0.0,1.6966,1.8551,0.0,0.0,0.0,0.0,0.0,0.0,0.0,0.0,0.0,0.0,0.0,0.0,1.7612,1.8175,2.3777,2.6905,2.7166,2.713,2.7082,2.6842,2.6231,2.4423,2.1585,0.0,0.0,0.0,0.0,0.0,0.0,0.0,0.0,0.0,0.0,0.0,0.0,0.0,0.0,0.0,0.0,0.0,0.0,0.0,0.0,0.0,0.0,0.0,0.0,0.0,0.9593,0.0,0.0,0.0,0.0,0.0,0.0,0.0,0.0,0.0,0.0,0.0,1.4487,1.5621,1.6856,1.8104,1.9236,1.9667,2.0014,0.0,0.0,0.0,0.0,0.0,0.0,0.0,0.0,0.0,0.0,0.0,0.0,0.0,0.0,1.5921,1.3736,1.3037,1.2816,1.276,0.0,0.0,0.0,0.0,0.0,0.0,0.0,0.0,0.0,0.0,0.0,0.0,0.0,0.0,1.2318,0.0,1.0821,0.0,0.0,0.0,0.0,0.0,0.0,0.0,0.0,1.8651,2.0257,2.1221,2.2883,2.3148,0.0,2.302,2.1242,0.0,0.0,0.0,0.0,0.0,0.0,0.0,0.0,2.0082,2.1853,2.6802,2.9526,2.9641,2.9613,2.9512,2.902,2.824,2.6661,2.4302,2.1728,1.9775,0.0,0.0,0.0,0.0,0.0,0.0,0.0,0.0,0.0,0.0,0.0,0.0,0.0,0.0,0.0,0.0,0.0,0.0,0.0,0.0,0.0,0.0,0.0,1.0645,0.0,0.0,0.0,0.0,0.0,0.0,0.0,0.0,0.0,1.2294,1.4604,1.6447,1.6951,1.8279,1.9611,2.0573,0.0,0.0,0.0,0.0,0.0,0.0,0.0,2.0545,2.0758,1.9849,1.92,1.9548,2.0043,2.0145,1.915,0.0,0.0,1.6594,1.5776,1.5586,1.5879,1.6211,1.6525,1.643,1.7594,1.8541,0.0,0.0,0.0,0.0,0.0,0.0,0.0,0.0,1.6958,1.6844,0.0,1.455,0.0,0.0,0.0,0.0,0.0,1.6345,0.0,0.0,2.4637,2.6658,2.7651,2.7786,2.7822,2.7687,2.7427,2.6605,2.5158,2.3026,0.0,0.0,0.0,0.0,0.0,0.0,2.4032,2.7625,3.1193,3.2818,3.2266,3.215,3.1595,3.0597,2.9561,2.8501,2.7463,2.5189,2.3644,2.2822,1.811,0.0,0.0,0.0,0.0,0.0,0.0,0.0,0.0,0.0,0.0,0.0,0.0,0.0,0.0,0.0,0.0,0.0,0.0,0.0,0.0,1.0579,0.0,0.0,0.0,0.0,0.0,0.0,0.0,0.0,0.0,0.0,1.5389,1.6299,1.7526,1.8863,0.0,0.0,0.0,0.0,2.32,2.3809,2.3618,2.3407,2.3083,2.3891,2.4317,2.3553,0.0,0.0,2.3651,2.4089,2.4178,2.2792,2.3174,2.3065,2.053,1.9283,1.8998,1.9817,2.0234,2.0699,2.0988,2.173,2.2704,2.1508,0.0,0.0,0.0,0.0,1.8871,1.9478,2.0229,2.0509,2.0297,1.9681,1.9096,0.0,0.0,0.0,0.0,0.0,0.0,2.1472,2.4433,2.5492,2.7064,2.9297,3.0369,3.0618,3.0464,3.1531,3.1903,3.1424,3.1092,2.6509,1.8002,0.0,0.0,0.0,0.0,2.6775,2.8817,3.1653,3.3385,3.4069,3.3532,3.2998,3.2436,3.1271,3.0714,3.0592,2.8782,2.6984,2.536,2.3013,0.0,0.0,0.0,0.0,0.0,0.0,0.0,0.0,0.0,0.0,0.0,0.0,0.0,0.0,0.0,0.0,0.0,0.0,0.0,1.0818,1.266,1.3487,0.0,0.0,0.0,0.0,0.0,0.0,0.0,0.0,0.0,2.1295,2.1258,2.1033,0.0,0.0,2.3411,2.3863,2.5115,2.6234,2.6895,2.7487,0.0,0.0,2.627,2.6033,2.6337,2.6628,2.644,2.5058,2.5419,2.5583,2.4687,2.4875,2.5012,2.4268,2.2438,2.1467,2.1847,2.2127,2.229,2.263,2.3484,2.4215,2.6352,2.352,2.177,2.1648,2.2575,2.2929,2.3651,2.4686,2.5004,2.4736,2.4168,2.3366,2.2635,2.1977,2.1362,0.0,0.0,0.0,2.4863,2.7975,2.821,2.9483,3.18,3.2633,3.2944,3.2562,3.3553,3.4062,3.4062,3.4316,3.0661,2.3441,0.0,0.0,2.3945,2.7197,3.0087,3.218,3.3912,3.5198,3.6008,3.5027,3.4337,3.3804,3.3124,3.2656,3.2539,3.1727,3.0555,2.9108,2.6973,2.4984,0.0,0.0,0.0,0.0,0.0,0.0,0.0,0.0,0.0,0.0,0.0,1.0465,0.0,0.0,0.0,0.0,1.0852,1.1989,1.3939,1.5386,0.0,0.0,0.0,0.0,0.0,0.0,0.0,2.0867,2.2118,2.3262,2.5074,2.5288,2.4762,2.3242,2.4476,2.5616,2.5978,0.0,2.8254,2.8994,2.9689,2.9795,2.9172,2.8569,2.825,2.8606,2.8518,2.8237,2.7467,2.7693,2.7868,2.7429,2.7702,2.7815,2.7236,2.5772,2.4439,2.4161,2.4204,2.4356,2.4665,2.5227,2.5732,3.0054,2.9963,2.6683,2.5397,2.5793,2.6936,2.7976,2.903,2.9879,2.9761,2.8856,2.7495,2.6367,2.5613,2.4278,0.0,2.6149,2.6861,2.8928,3.2147,3.2185,3.3024,3.4746,3.4785,3.4609,3.4238,3.4238,3.4219,3.4238,3.4238,3.3223,3.1348,3.0934,3.1034,3.1344,3.1624,3.353,3.6922,3.731,3.7534,3.7482,3.6543,3.5593,3.4766,3.4746,3.4401,3.3714,3.3973,3.3863,3.3081,3.0211,2.8295,2.7791,0.0,0.0,0.0,0.0,0.0,0.0,0.0,0.0,0.0,0.0,0.0,0.0,0.0,0.0,0.0,1.5481,0.0,1.8413,1.8485,0.0,0.0,0.0,1.7919,1.9729,1.9909,2.1092,2.4199,0.0,0.0,2.7475,2.8674,2.8637,2.6493,2.7035,2.7758,2.8226,2.8797,2.9511,3.0281,3.0618,3.0742,3.0534,3.0567,3.0673,3.0354,3.0387,3.0299,3.0317,3.0536,3.0609,3.0372,3.0991,3.0956,2.9618,2.8898,2.8103,2.6825,2.6761,2.6953,2.7001,2.7258,2.7499,3.2343,3.2041,3.118,3.0504,3.0006,3.0335,3.0798,3.1353,3.1614,3.1614,3.1334,3.1026,3.0677,3.0447,3.018,3.0276,3.0638,3.0873,3.1623,3.3019,3.3386,3.4134,3.5215,3.5547,3.5664,3.5566,3.5547,3.5547,3.5547,3.5547,3.5293,3.4824,3.4673,3.3603,3.1503,3.3314,3.5107,3.6922,3.6718,3.679,3.7193,3.6689,3.6162,3.5613,3.5348,3.4863,3.3992,3.4394,3.4264,3.3824,3.3029,3.2169,3.1232,2.5908,0.0,0.0,0.0,0.0,0.0,0.0,0.0,0.0,0.0,1.4334,1.346,0.0,1.3918,0.0,1.8023,2.0057,1.9775,2.0345,0.0,0.0,2.1459,2.1809,2.3975,2.3933,2.4809,2.771,2.8169,2.8818,3.0265,3.0646,3.0665,3.0155,2.978,2.9457,2.9172,2.9816,3.0756,3.1414,3.1801,3.206,3.204,3.2019,3.2114,3.2019,3.2001,3.2038,3.2019,3.2093,3.2129,3.2038,3.2129,3.1902,3.121,3.0963,3.053,2.9696,2.9108,2.8854,2.9142,2.9479,2.9462,3.3848,3.3633,3.3906,3.3172,3.209,3.209,3.2324,3.2734,3.2734,3.2734,3.2734,3.2734,3.2715,3.2715,3.2734,3.2734,3.2734,3.2715,3.3184,3.4004,3.4453,3.5117,3.5976,3.6387,3.6582,3.6582,3.6582,3.6484,3.6328,3.6309,3.6348,3.6268,3.6268,3.5488,3.4021,3.5268,3.6395,3.7205,3.7369,3.7514,3.7622,3.7325,3.6475,3.5087,3.5309,3.4805,3.3555,3.4101,3.4141,3.3535,3.3144,3.2812,3.2215,2.8461,2.5841,0.0,0.0,0.0,0.0,0.0,0.0,0.0,0.0,0.0,0.0,0.0,1.7106,0.0,2.0587,2.2659,2.1958,2.3419,2.4553,2.4972,2.4678,2.5243,2.716,2.6653,2.7233,2.9846,2.9877,3.0036,3.1468,3.1653,3.1726,3.1891,3.1543,3.1066,3.0683,3.1341,3.2023,3.2467,3.2918,3.3256,3.3103,3.2855,3.2606,3.2606,3.2606,3.2606,3.2606,3.2758,3.2758,3.2606,3.2758,3.2625,3.2204,3.2052,3.1917,3.163,3.146,3.1085,3.0273,3.041,3.0412,3.4707,3.4838,3.51,3.4448,3.3172,3.3172,3.3066,3.2961,3.2961,3.3058,3.3233,3.3496,3.3594,3.3594,3.3574,3.3594,3.3594,3.3594,3.3984,3.4707,3.5176,3.5801,3.6523,3.6934,3.7129,3.7129,3.7129,3.6953,3.6601,3.6641,3.6602,3.6618,3.6658,3.6884,3.7014,3.7307,3.738,3.7508,3.8274,3.8466,3.8263,3.7763,3.6549,3.4407,3.4961,3.4629,3.3066,3.373,3.3789,3.2988,3.2305,3.207,3.2363,3.0663,2.8861,0.0,2.5146,0.0,0.0,0.0,0.0,0.0,0.0,0.0,0.0,2.1345,2.1384,2.0509,2.2792,2.4332,2.4146,2.6529,2.7899,2.7527,2.7654,2.8298,2.9247,2.869,2.9103,3.1285,3.071,3.0627,3.2019,3.2056,3.228,3.2519,3.2726,3.2633,3.2353,3.2559,3.284,3.3121,3.3709,3.3747,3.3519,3.3155,3.2826,3.2845,3.2918,3.2845,3.2991,3.3163,3.328,3.2973,3.32,3.3163,3.2918,3.2955,3.2955,3.2892,3.3367,3.3218,3.163,3.1286,3.1114,3.4838,3.523,3.525,3.5221,3.526,3.526,3.3579,3.0992,3.0734,3.1328,3.2719,3.3875,3.4453,3.4453,3.4453,3.4453,3.4453,3.4453,3.4551,3.4707,3.5176,3.5488,3.5644,3.6055,3.625,3.6269,3.625,3.6211,3.6152,3.6504,3.6897,3.7074,3.7431,3.7806,3.8085,0.0,0.0,0.0,3.7653,3.7534,3.7197,3.685,3.6202,3.5171,3.525,0.0,3.3906,3.4316,3.4355,3.3867,3.4004,0.0,0.0,0.0,0.0,0.0,0.0,0.0,0.0,0.0,0.0,0.0,2.43,2.3615,2.1984,2.3909,2.4101,2.1584,2.3886,2.5471,2.506,2.714,2.9067,3.0348,3.057,3.0388,2.9942,3.0615,3.1407,3.1742,3.2034,3.2253,3.284,3.2617,3.2581,3.303,3.3331,3.3614,3.3763,3.2951,3.2408,3.2666,3.336,3.3391,3.3373,3.3532,3.3688,3.3963,3.4055,3.4165,3.4403,3.4513,3.455,3.4495,3.4587,3.455,3.4532,3.4568,3.4458,3.455,3.4678,3.4408,3.3484,3.3689,3.3982,3.6654,0.0,3.7079,3.6696,0.0,3.5962,3.4437,3.2027,3.2455,3.3,3.3642,3.4414,3.4687,3.4668,3.3895,3.363,3.3785,3.3038,3.3328,3.4464,3.491,3.5685,3.666,3.707,3.7285,3.7285,3.7426,3.7308,3.6992,3.7328,3.7608,3.7788,3.8027,3.8445,3.8932,3.9137,3.9172,3.8854,3.8833,3.8664,3.832,3.8182,3.7248,3.5697,0.0,0.0,0.0,0.0,0.0,0.0,0.0,0.0,0.0,0.0,0.0,3.0351,2.8089,2.6626,2.6399,2.5943,2.6196,2.7314,2.7638,2.7233,2.5717,2.6931,2.6921,2.5203,2.6568,2.7491,2.7344,2.9248,3.0847,3.1289,3.172,3.1629,3.0889,3.1443,3.1909,3.1763,3.2056,3.2501,3.3121,3.3364,3.3666,3.4277,3.4501,3.4646,3.4815,3.4402,3.4158,3.4533,3.4381,3.4408,3.4408,3.4416,3.4458,3.4678,3.4715,3.4807,3.499,3.5027,3.5027,3.5027,3.5027,3.5027,3.5027,3.5027,3.5027,3.5045,3.5192,3.521,3.477,3.488,3.4883,3.8566,3.8566,3.8926,3.8275,3.7064,3.6857,3.595,3.4527,0.0,0.0,0.0,3.5059,3.5156,3.5078,3.3785,3.3386,3.3656,3.2401,3.2861,3.4795,3.5124,3.6169,3.7812,3.8184,3.8359,3.8504,3.8793,3.8616,3.7975,3.8339,3.8465,3.8567,3.8808,3.921,4.0013,4.0013,4.0158,4.0427,4.0116,3.9695,3.9352,3.9372,3.8246,3.6172,3.6562,3.6074,3.4609,3.4453,3.4062,3.3281,3.2851,3.2773,3.3086,3.2171,3.2081,3.3047,3.165,3.0686,3.0686,3.0162,2.99,2.99,3.0177,3.0229,2.9785,2.9585,2.9367,2.8723,2.9223,2.9791,3.0073,3.1497,3.2338,3.1907,3.2266,3.2459,3.2107,3.2144,3.2276,3.2001,3.2537,3.2929,3.3741,3.4383,3.501,3.561,3.58,3.583,3.5867,3.5736,3.5433,3.5641,3.5294,3.5272,3.5327,3.5078,3.5045,3.5119,3.5137,3.5155,3.5229,3.5302,3.5339,3.5449,3.5394,3.5504,3.5485,3.5577,3.5449,3.5449,3.5705,3.5944,3.5907,3.5687,3.5485,3.8705,3.9004,3.9391,3.9368,3.9151,3.9543,3.8942,3.7625,3.5838,3.4873,3.4931,3.6307,3.6934,3.6914,3.6738,3.6699,3.6738,3.6424,3.6521,0.0,3.6992,3.7148,3.7383,3.7441,3.7622,3.7924,3.7783,3.7744,3.7885,3.8363,3.8624,3.909,4.0022,4.1027,4.1855,4.1876,4.171,4.1358,3.9548,3.8377,3.8024,3.7768,3.7253,3.6621,3.6992,3.6934,3.6328,3.5937,3.5527,3.5039,3.459,3.4375,3.4414,3.3723,3.3387,3.3558,3.2726,3.229,3.229,3.2156,3.2156,3.2156,3.2211,3.1944,3.1354,3.0919,3.039,2.9389,3.0389,3.1689,3.2861,3.2673,3.2744,3.3289,3.2966,3.3058,3.4237,3.3861,3.3578,3.378,3.4611,3.5201,3.5444,3.5686,3.5927,3.6421,3.6514,3.679,3.7009,3.5878,3.4611,3.4371,3.4416,3.46,3.4876,3.4844,3.5247,3.5485,3.5595,3.5724,3.5999,3.6274,3.6457,3.6549,3.6732,3.6934,3.6989,3.7099,3.6952,3.6897,3.6989,3.7062,3.7026,3.6971,3.6787,4.072,4.0761,4.0946,4.107,4.1027,4.0801,4.0181,3.9525,3.8354,3.7266,3.6366,3.7051,3.7305,3.7226,3.6424,3.6092,3.6286,3.5684,3.5973,3.7003,3.7539,3.8171,3.8944,3.8983,3.9129,3.9294,3.9129,3.8983,3.9023,3.9639,4.0011,4.0323,4.1167,4.1895,4.2249,4.2249,4.1998,4.1624,4.0534,3.9739,3.8849,3.8624,3.8379,3.7715,3.7676,3.7559,3.7363,3.6934,3.6621,3.6445,3.623,3.6113,3.6094,3.5143,3.4623,3.4334,3.3516,3.2873,3.2588,3.3058,3.3527,3.4228,3.3991,3.3808,3.3733,3.2648,3.1612,3.0954,3.172,3.2618,3.3681,3.3898,3.39,3.3733,3.3769,3.4242,3.477,3.4668,3.4408,3.4408,3.5145,3.567,3.6093,3.6463,3.692,3.7222,3.7378,3.7518,3.7639,3.6826,3.5996,3.5824,3.5758,3.5705,3.5724,3.6072,3.6384,3.6567,3.6604,3.6659,3.6842,3.7062,3.7136,3.7154,3.7338,3.7411,3.7429,3.7429,3.7429,3.7429,3.7429,3.7429,3.7429,3.7429,3.7283,4.2249,4.2249,4.2373,4.2414,4.2245,4.1549,4.1062,4.0614,4.0594,3.9711,3.8275,3.8014,3.8034,3.7916,3.6677,3.6147,3.6321,3.5624,3.6066,3.7402,3.8223,3.92,4.0255,4.0334,4.0484,4.0464,4.0314,4.0164,4.0184,4.0764,4.1251,4.1481,4.2097,4.2456,4.2559,4.2559,4.222,4.182,4.1753,4.1218,3.9911,3.979,3.9515,3.8887,3.8555,3.8379,3.834,3.7871,3.7578,3.7578,3.7402,3.7305,3.7266,3.6402,3.562,3.5287,3.4327,3.3545,3.3292,3.3842,3.4703,3.5603,3.5398,3.5228,3.5414,3.4149,3.3083,3.2892,3.2947,3.3448,3.4121,3.4637,3.4917,3.427,3.4666,3.506,3.5253,3.5302,3.519,3.4967,3.5633,3.6322,3.6759,3.7364,3.7953,3.8273,3.8379,3.8116,3.7934,3.7708,3.7559,3.7558,3.7221,3.6879,3.6989,3.7154,3.7319,3.7429,3.7374,3.7319,3.7374,3.7448,3.7558,3.7576,3.7668,3.7759,3.7723,3.7723,3.7759,3.7778,3.7796,3.7759,3.7778,3.7778,3.7668,4.2269,4.2311,4.2704,4.257,4.2228,4.1861,4.14,4.1082,4.1062,4.1002,4.0632,4.0375,4.0187,4.0077,3.9582,3.9355,3.9414,3.9434,3.9434,3.957,3.9687,3.9785,4.0073,4.0073,4.0184,4.0334,4.0223,4.0112,4.0393,4.0953,4.1712,4.2658,4.2849,4.3056,4.3428,4.3166,4.2677,4.229,4.2353,4.1655,4.0405,4.0105,3.9805,3.9766,3.9726,3.9726,3.9609,3.8906,3.8457,3.8398,3.7734,3.7324,3.7305,3.6784,3.6605,3.6444,3.5784,3.5339,3.5321,3.5377,3.5698,3.6077,3.583,3.5563,3.5619,3.5185,3.4642,3.4348,3.4,3.4231,3.5041,3.4852,3.4788,3.5137,3.5155,3.5336,3.5996,3.616,3.6051,3.5999,3.7118,3.799,3.8368,3.867,3.9199,3.9453,3.9232,3.9198,3.9333,3.8595,3.8157,3.8387,3.7986,3.7374,3.7393,3.7393,3.7539,3.7503,3.7448,3.7521,3.7613,3.7778,3.7961,3.7998,3.8218,3.8383,3.8475,3.853,3.8511,3.853,3.853,3.853,3.853,3.853,3.842,4.3356,4.3805,4.3393,4.3174,4.3001,4.2686,4.2302,4.2302,4.215,4.215,4.215,4.1847,4.1263,4.0484,4.0334,4.0184,3.9922,4.0156,4.0425,4.0577,4.0813,4.1104,4.139,4.1085,4.1104,4.1237,4.0798,4.0798,4.0932,4.1542,4.2383,4.3153,4.3325,4.3277,4.331,4.3024,4.2616,4.1975,4.1982,4.1594,4.0951,4.0676,4.044,4.0203,4.0033,3.9883,3.9863,3.9531,3.9238,3.8965,3.8594,3.8301,3.8066,3.7669,3.7371,3.7066,3.6428,3.6123,3.6637,3.6656,3.6914,3.7595,3.7219,3.6783,3.6619,3.6404,3.6036,3.5815,3.5265,3.5134,3.5499,3.5502,3.554,3.5889,3.6238,3.6627,3.7147,3.7651,3.797,3.8084,3.874,3.9116,3.944,3.9479,3.9687,3.9863,3.9751,3.9697,3.9891,3.9472,3.9126,3.9024,3.8769,3.8328,3.7869,3.7998,3.8089,3.8126,3.8144,3.8144,3.8163,3.8236,3.8383,3.8401,3.8585,3.8786,3.8933,3.9006,3.9043,3.9171,3.9336,3.9355,3.9355,3.9355,3.9245,4.4884,4.5015,4.4169,4.3801,4.3648,4.3495,4.3423,4.3392,4.3546,4.3526,4.3546,4.3217,4.2564,4.1522,4.096,4.0538,4.0293,4.0837,4.1168,4.1515,4.1931,4.2285,4.2577,4.211,4.1973,4.1973,4.1837,4.1837,4.2149,4.2597,4.3371,4.3834,4.3987,4.3834,4.3371,4.3217,4.2907,4.2285,4.213,4.1973,4.1778,4.1657,4.1376,4.09,4.0538,4.0386,4.0538,4.042,4.0053,3.972,3.9602,3.9406,3.8945,3.8779,3.8457,3.8001,3.746,3.7257,3.7855,3.7874,3.8155,3.8759,3.8394,3.7949,3.767,3.7277,3.6989,3.6934,3.6457,3.6109,3.6146,3.6366,3.6531,3.6549,3.7126,3.7802,3.8368,3.9031,3.924,3.943,3.9503,3.9961,4.0059,4.0176,4.0293,4.0293,4.0121,4.016,4.0164,4.0163,3.9888,3.9858,3.9673,3.9226,3.8328,3.8365,3.8621,3.8676,3.864,3.8768,3.8841,3.8878,3.8988,3.908,3.9006,3.9043,3.9318,3.941,3.9465,3.9722,3.985,3.985,3.9722,3.9813,3.9813,4.6918,4.6039,4.4753,4.4122,4.3657,4.4122,4.4214,4.4229,4.4741,4.4898,4.4857,4.4721,4.4584,4.3929,4.205,4.1268,4.1327,4.2013,4.2328,4.2524,4.2922,4.3002,4.3002,4.2523,4.2344,4.2425,4.2724,4.324,4.4091,4.4269,4.4468,4.4898,4.4857,4.4721,4.4229,4.3873,4.3459,4.3081,4.2923,4.2962,4.2962,4.2942,4.2506,4.1793,4.1693,4.1828,4.2076,4.145,4.1059,4.1039,4.0643,4.0275,3.9955,4.0066,3.9857,3.9275,3.9125,3.9105,3.9105,3.9067,3.9275,3.9635,3.9144,3.8576,3.8482,3.7625,3.7203,3.7393,3.7338,3.7301,3.7301,3.7228,3.7093,3.7056,3.7662,3.8423,3.9223,3.9432,3.9317,3.9507,3.9868,4.0176,4.0469,4.0859,4.1035,4.1074,4.0763,4.0646,4.1055,4.0856,4.0731,4.0846,4.0556,4.0005,3.8823,3.8786,3.8768,3.8841,3.9098,3.9208,3.9336,3.9465,3.9612,3.9722,3.9612,3.963,3.9758,3.9832,3.9887,3.9997,4.0033,4.0015,4.0143,3.9942,3.9978,4.6961,4.6167,4.5708,4.5179,4.4597,4.4753,4.4679,4.4844,4.4981,4.5002,4.4981,4.4687,4.4529,4.4351,4.3218,4.2763,4.2941,4.308,4.3476,4.3674,4.3657,4.3718,4.3876,4.3241,4.3081,4.3221,4.3221,4.3559,4.4371,4.4371,4.4529,4.5002,4.5002,4.4844,4.4351,4.3856,4.3539,4.3061,4.2742,4.2582,4.2602,4.2602,4.2585,4.2605,4.2014,4.1914,4.1927,4.1768,4.1549,4.1423,4.1394,4.0893,4.0373,4.0184,4.0033,3.9751,3.9732,3.9732,3.9732,3.9732,3.9732,3.9902,3.9697,3.928,3.8728,3.8284,3.8006,3.7869,3.8071,3.8181,3.8089,3.7759,3.7257,3.7239,3.8093,3.9107,3.9529,4.0125,4.0549,4.0569,4.0703,4.0801,4.0976,4.1308,4.1562,4.1601,4.1639,4.1755,4.1814,4.181,4.1548,4.1246,4.1019,4.0553,3.9682,3.941,3.9428,3.9447,3.9557,3.9612,3.9703,3.9777,3.9887,3.9942,3.996,4.007,4.0143,4.04,4.0418,4.051,4.051,4.0437,4.0639,4.0455,4.0492,4.7948,4.7354,4.7044,4.6599,4.5995,4.5974,4.6079,4.6206,4.6206,4.6206,4.6206,4.5911,4.5911,4.5732,4.5553,4.5395,4.5374,4.4616,4.4237,4.4596,4.44,4.446,4.464,4.398,4.3819,4.414,4.398,4.43,4.4959,4.4959,4.5119,4.5436,4.5436,4.5119,4.464,4.43,4.3819,4.3336,4.2994,4.2851,4.2851,4.2851,4.2935,4.2939,4.2523,4.225,4.2186,4.2146,4.1927,4.1682,4.1775,4.1483,4.092,4.0597,4.0312,4.0312,4.0312,4.0312,4.0312,4.0312,4.0371,4.0508,4.0317,4.0048,3.9448,3.9262,3.8919,3.8835,3.8982,3.9185,3.9093,3.8845,3.8264,3.7943,3.8769,3.9869,4.0391,4.1093,4.1386,4.1562,4.1386,4.1562,4.1601,4.1836,4.1973,4.2012,4.2266,4.2402,4.2422,4.2558,4.2475,4.1666,4.1656,4.126,4.0711,4.0382,3.9887,3.985,3.9978,4.0033,4.007,4.0107,4.0162,4.0198,4.0272,4.04,4.0602,4.0877,4.0987,4.106,4.0969,4.0822,4.0932,4.1005,4.0932,4.9829,4.9272,4.8631,4.8187,4.8031,4.8031,4.8449,4.8597,4.8662,4.8439,4.8395,4.8662,4.8417,4.8662,4.8259,4.8662,4.8057,4.6267,4.5304,4.5345,4.5735,4.5758,4.59,4.5393,4.523,4.523,4.5474,4.5961,4.6384,4.6363,4.6384,4.6447,4.6384,4.6161,4.5169,4.523,4.4638,4.4087,4.3903,4.3778,4.3691,4.3613,4.3418,4.3125,4.3047,4.2978,4.2978,4.2584,4.2229,4.2047,4.1967,4.1793,4.1793,4.1483,4.1172,4.1172,4.1172,4.1172,4.1172,4.1172,4.1348,4.1425,4.1422,4.1043,4.0594,4.0223,3.9936,3.9792,4.0173,4.0428,4.0391,4.0621,4.0197,3.9043,3.9589,4.0826,4.1946,4.2062,4.2164,4.2305,4.2086,4.2164,4.2222,4.2402,4.2422,4.2441,4.2519,4.2598,4.2656,4.2891,4.2884,4.2491,4.2112,4.1729,4.1565,4.1304,4.0676,4.018,4.0345,4.0473,4.0529,4.0565,4.0657,4.0694,4.0675,4.0785,4.0785,4.1024,4.1024,4.106,4.106,4.106,4.106,4.106,4.106,5.052,4.9897,4.9585,4.9138,4.8667,4.8667,4.8776,4.8886,4.8907,4.8907,4.8907,4.8907,4.8907,4.8907,4.8907,4.8907,4.8886,4.8079,4.7697,4.774,4.7868,4.7794,4.7773,4.7432,4.7132,4.7272,4.7613,4.7954,4.7954,4.8114,4.8092,4.8092,4.8114,4.7773,4.7111,4.6951,4.6467,4.5982,4.5005,4.4678,4.4514,4.4021,4.3633,4.3535,4.3516,4.3549,4.3499,4.3022,4.2962,4.298,4.3158,4.3,4.2665,4.219,4.2031,4.2051,4.2031,4.2031,4.2031,4.2031,4.1892,4.1907,4.1824,4.1399,4.0809,4.0703,4.0558,4.0377,4.0665,4.099,4.099,4.1314,4.1019,3.9714,4.0631,4.1843,4.2876,4.2758,4.2422,4.2422,4.2242,4.2242,4.248,4.2637,4.2871,4.291,4.3086,4.3242,4.3301,4.334,4.3186,4.2563,4.2383,4.2068,4.1565,4.1229,4.0989,4.0565,4.0675,4.0749,4.0822,4.0895,4.1005,4.106,4.106,4.106,4.106,4.106,4.106,4.106,4.106,4.106,4.106,4.106,4.106,5.2,5.1516,5.1208,5.0743,5.0277,4.9987,4.9852,4.9852,4.9852,4.9852,4.9852,4.9852,4.983,4.9852,4.9852,4.9852,4.9852,4.9852,4.9852,4.9695,4.9065,4.8907,4.8907,4.8569,4.841,4.8569,4.8727,4.8907,4.8907,4.8907,4.8907,4.8907,4.8907,4.8569,4.8071,4.7752,4.7272,4.6629,4.582,4.5495,4.5332,4.5005,4.4514,4.4186,4.4186,4.4047,4.3771,4.3514,4.3398,4.348,4.34,4.3081,4.2902,4.2582,4.2422,4.2422,4.2422,4.2402,4.2422,4.2363,4.2359,4.2314,4.2048,4.1982,4.1569,4.1663,4.148,4.1297,4.1644,4.1934,4.1953,4.2279,4.2039,4.1436,4.1867,4.2689,4.3411,4.319,4.293,4.2949,4.293,4.291,4.2988,4.3086,4.3301,4.3359,4.3535,4.3691,4.3711,4.3526,4.3048,4.2569,4.2216,4.1733,4.1229,4.106,4.106,4.0987,4.0969,4.0969,4.0987,4.1005,4.106,4.106,4.106,4.106,4.106,4.106,4.106,4.106,4.106,4.106,4.106,4.106,4.106,5.3672,5.3672,5.2916,5.2307,5.2154,5.1562,5.1254,5.1277,5.1277,5.1254,5.1277,5.1099,5.1277,5.1277,5.1122,5.1122,5.1277,5.1122,5.1099,5.0789,5.0009,4.9381,4.9223,4.9201,4.9201,4.9223,4.9223,4.9223,4.9381,4.9381,4.9065,4.9201,4.9223,4.8727,4.823,4.7773,4.7432,4.679,4.6467,4.6306,4.6306,4.6144,4.582,4.5169,4.5005,4.4822,4.4291,4.3903,4.3588,4.3119,4.2939,4.2798,4.2539,4.25,4.2578,4.2617,4.2519,4.2578,4.2539,4.2637,4.2754,4.2903,4.2539,4.2269,4.2691,4.2525,4.2544,4.2416,4.2767,4.2972,4.3137,4.3283,4.3429,4.3613,4.3117,4.3281,4.3613,4.3633,4.3555,4.3594,4.3672,4.3672,4.3574,4.3613,4.3652,4.3652,4.3672,4.3691,4.3691,4.338,4.2902,4.2569,4.2216,4.1733,4.1229,4.106,4.106,4.106,4.106,4.106,4.106,4.106,4.106,4.106,4.106,4.106,4.106,4.106,4.106,4.106,4.106,4.106,4.106,4.106,4.106,5.2916,5.2764,5.2024,5.1716,5.1716,5.1431,5.1431,5.1431,5.1431,5.1431,5.1431,5.1431,5.1431,5.1431,5.1431,5.1431,5.1431,5.1431,5.1431,5.1431,5.0967,5.0811,5.0789,5.0789,5.0633,5.0633,5.0633,5.0789,5.0789,5.0633,5.0633,5.0789,5.0322,4.9987,4.9516,4.9044,4.8727,4.8251,4.7592,4.7272,4.7111,4.6629,4.6144,4.5982,4.5982,4.582,4.5495,4.5025,4.431,4.3582,4.3379,4.3379,4.332,4.332,4.3281,4.3301,4.332,4.334,4.334,4.332,4.3254,4.3041,4.2963,4.2729,4.2531,4.2678,4.2863,4.2882,4.3214,4.3546,4.3546,4.3711,4.3691,4.3691,4.3555,4.3535,4.3652,4.3691,4.3691,4.3691,4.3691,4.3691,4.3691,4.3691,4.3691,4.3691,4.3691,4.3691,4.3691,4.3546,4.3234,4.2735,4.2235,4.1733,4.1397,4.1229,4.106,4.106,4.106,4.106,4.106,4.106,4.106,4.106,4.106,4.106,4.106,4.106,4.106,4.106,4.106,4.106,4.106,4.106,4.106,5.3648,5.3497,5.2307,5.187,5.187,5.1562,5.1431,5.1431,5.1431,5.1431,5.1431,5.1431,5.1431,5.1431,5.1431,5.1431,5.1431,5.1431,5.1431,5.1431,5.1431,5.1277,5.1431,5.1431,5.1431,5.1431,5.1431,5.1431,5.1431,5.1431,5.1431,5.1277,5.1122,5.0789,5.0143,5.0009,4.9538,4.8886,4.841,4.8092,4.8092,4.7592,4.7111,4.6951,4.679,4.6629,4.582,4.5189,4.4698,4.4186,4.3856,4.3691,4.3691,4.3691,4.3691,4.3691,4.3691,4.3691,4.3691,4.3691,4.3546,4.338,4.338,4.3214,4.3048,4.3029,4.3195,4.338,4.3546,4.3691,4.3691,4.3691,4.3691,4.3691,4.3691,4.3691,4.3691,4.3691,4.3691,4.3691,4.3691,4.3691,4.3691,4.3691,4.3691,4.3691,4.3691,4.3691,4.3691,4.3546,4.338,4.2902,4.2402,4.19,4.1546,4.1378,4.1229,4.1229,4.1229,4.1229,4.106,4.106,4.106,4.106,4.106,4.106,4.106,4.106,4.106,4.106,4.106,4.106,4.106,4.106,4.106,5.4992,5.4843,5.3346,5.2612,5.2459,5.1716,5.1431,5.1431,5.1431,5.1431,5.1431,5.1431,5.1431,5.1431,5.1431,5.1431,5.1431,5.1431,5.1431,5.1431,5.1431,5.1431,5.1431,5.1431,5.1431,5.1431,5.1431,5.1431,5.1431,5.1431,5.1431,5.1431,5.1277,5.0967,5.0322,5.0143,4.9695,4.9065,4.8907,4.8727,4.8749,4.8569,4.8251,4.7752,4.7592,4.6951,4.5982,4.5332,4.5005,4.4534,4.4041,4.3691,4.3691,4.3691,4.3691,4.3691,4.3691,4.3691,4.3691,4.3711,4.3711,4.3711,4.3711,4.3691,4.3526,4.3526,4.3526,4.3711,4.3691,4.3691,4.3691,4.3691,4.3691,4.3691,4.3691,4.3691,4.3691,4.3691,4.3691,4.3691,4.3691,4.3691,4.3691,4.3691,4.3691,4.3691,4.3691,4.3691,4.3711,4.3546,4.3399,4.3068,4.2569,4.2235,4.1882,4.1714,4.1546,4.1378,4.1397,4.1229,4.106,4.106,4.106,4.106,4.106,4.106,4.106,4.106,4.106,4.106,4.106,4.106,4.106,4.106,4.106,5.4992,5.4843,5.3195,5.2612,5.2459,5.1716,5.1431,5.1431,5.1431,5.1431,5.1431,5.1431,5.1431,5.1431,5.1431,5.1431,5.1431,5.1431,5.1431,5.1431,5.1431,5.1431,5.1431,5.1431,5.1431,5.1431,5.1431,5.1431,5.1431,5.1431,5.1431,5.1431,5.1122,5.0789,5.0633,5.0009,4.9538,4.9381,4.9065,4.8907,4.8907,4.8907,4.8749,4.8569,4.8251,4.7773,4.7111,4.6467,4.5657,4.4862,4.4205,4.3691,4.3691,4.3691,4.3691,4.3691,4.3691,4.3691,4.3691,4.3691,4.3691,4.3691,4.3691,4.3691,4.3691,4.3691,4.3691,4.3691,4.3691,4.3691,4.3691,4.3691,4.3691,4.3691,4.3691,4.3691,4.3691,4.3691,4.3691,4.3691,4.3691,4.3691,4.3691,4.3691,4.3691,4.3691,4.3691,4.3691,4.3711,4.3546,4.338,4.3234,4.2902,4.255,4.2216,4.2049,4.1714,4.1546,4.1546,4.1378,4.1229,4.106,4.106,4.106,4.106,4.106,4.106,4.106,4.106,4.106,4.106,4.1229,4.1229,4.1229,4.1229,5.4843,5.4272,5.3044,5.2307,5.2024,5.1562,5.1431,5.1431,5.1431,5.1431,5.1431,5.1431,5.1431,5.1431,5.1431,5.1431,5.1431,5.1431,5.1431,5.1431,5.1431,5.1431,5.1431,5.1431,5.1431,5.1431,5.1431,5.1431,5.1431,5.1431,5.1431,5.1431,5.1122,5.0789,5.0633,5.0009,4.9695,4.9223,4.9065,4.8907,4.8907,4.8907,4.8907,4.8907,4.8749,4.8251,4.7592,4.6951,4.5982,4.5189,4.437,4.3876,4.3711,4.3691,4.3691,4.3691,4.3691,4.3691,4.3691,4.3691,4.3691,4.3691,4.3691,4.3691,4.3691,4.3691,4.3691,4.3691,4.3691,4.3691,4.3691,4.3691,4.3691,4.3691,4.3691,4.3691,4.3691,4.3691,4.3691,4.3691,4.3691,4.3691,4.3691,4.3691,4.3691,4.3691,4.3691,4.3691,4.3691,4.3711,4.3546,4.338,4.3214,4.2882,4.255,4.2383,4.2216,4.1882,4.1714,4.1714,4.1546,4.1229,4.106,4.106,4.106,4.106,4.106,4.106,4.1229,4.1229,4.1229,4.1378,4.1378,4.1565,4.19,5.5089,5.4364,5.3457,5.2694,5.1947,5.1839,5.1661,5.1569,5.1615,5.1707,5.1592,5.1592,5.1798,5.1707,5.173,5.1661,5.1661,5.1569,5.1638,5.1615,5.1477,5.1431,5.1431,5.1431,5.1431,5.1431,5.1431,5.1431,5.1431,5.1431,5.1431,5.1431,5.1431,5.0944,5.0478,5.0165,4.9852,4.9223,4.9065,4.8907,4.8907,4.8907,4.8907,4.8907,4.8749,4.8432,4.7613,4.7132,4.6488,4.5169,4.4862,4.437,4.3876,4.3691,4.3691,4.3691,4.3691,4.3691,4.3691,4.3691,4.3691,4.3691,4.3691,4.3691,4.3691,4.3691,4.3691,4.3691,4.3691,4.3691,4.3691,4.3691,4.3691,4.3691,4.3691,4.3691,4.3691,4.3691,4.3691,4.3691,4.3691,4.3691,4.3691,4.3691,4.3691,4.3691,4.3691,4.3691,4.3691,4.3691,4.3691,4.3546,4.338,4.3234,4.2882,4.2716,4.255,4.2383,4.2216,4.2049,4.1882,4.1714,4.1565,4.1229,4.1229,4.1229,4.1397,4.1565,4.1565,4.1397,4.1397,4.1714,4.1882,4.2235,4.2235,5.7325,5.7149,5.5606,5.4836,5.4503,5.3255,5.2395,5.2166,5.2441,5.2395,5.212,5.2441,5.2579,5.2602,5.2625,5.2625,5.2441,5.2212,5.2051,5.1982,5.173,5.1546,5.15,5.1523,5.1477,5.1431,5.1431,5.1585,5.1431,5.1431,5.1562,5.1431,5.1562,5.1254,5.0789,5.0322,5.0009,4.9381,4.9065,4.8907,4.8907,4.8907,4.8907,4.8907,4.8591,4.8251,4.7773,4.7153,4.6509,4.5698,4.5535,4.5046,4.437,4.3876,4.3691,4.3691,4.3691,4.3691,4.3691,4.3691,4.3691,4.3691,4.3691,4.3691,4.3691,4.3691,4.3691,4.3691,4.3691,4.3691,4.3691,4.3691,4.3691,4.3691,4.3691,4.3691,4.3691,4.3691,4.3691,4.3691,4.3691,4.3691,4.3691,4.3691,4.3691,4.3691,4.3691,4.3691,4.3691,4.3691,4.3691,4.3546,4.338,4.3234,4.3068,4.3068,4.2882,4.2882,4.2716,4.2569,4.2402,4.2235,4.2068,4.1733,4.1546,4.1546,4.1714,4.19,4.19,4.19,4.2068,4.2235,4.2402,4.2569,4.2735,5.7574,5.712,5.5872,5.5099,5.4609,5.3511,5.2763,5.2602,5.2786,5.2763,5.2671,5.2786,5.2878,5.2878,5.2878,5.2878,5.2832,5.2694,5.2556,5.2464,5.2304,5.2028,5.1821,5.1798,5.1924,5.194,5.2024,5.2024,5.2,5.2024,5.2024,5.2177,5.2307,5.2,5.1099,5.0789,5.0322,4.9695,4.9223,4.8907,4.8907,4.8907,4.8907,4.8749,4.8591,4.8251,4.7954,4.7314,4.667,4.6023,4.5535,4.5046,4.4534,4.4041,4.3691,4.3691,4.3691,4.3691,4.3691,4.3691,4.3691,4.3691,4.3691,4.3691,4.3691,4.3691,4.3691,4.3691,4.3691,4.3691,4.3691,4.3691,4.3691,4.3691,4.3691,4.3691,4.3691,4.3691,4.3691,4.3691,4.3691,4.3691,4.3691,4.3691,4.3691,4.3691,4.3691,4.3691,4.3691,4.3691,4.3691,4.3711,4.3546,4.338,4.338,4.338,4.3214,4.3214,4.3234,4.3068,4.2902,4.2735,4.2402,4.2068,4.2049,4.2216,4.2049,4.2235,4.2402,4.2402,4.2569,4.2735,4.2735,4.2902,4.3068,5.7899,5.7265,5.6342,5.5542,5.4917,5.3836,5.3472,5.322,5.3176,5.3176,5.3061,5.3176,5.3245,5.3222,5.3222,5.3222,5.3176,5.3153,5.3061,5.3015,5.2855,5.2602,5.2281,5.2432,5.2488,5.2483,5.2764,5.2916,5.2892,5.2916,5.2916,5.2963,5.3593,5.3139,5.1739,5.1701,5.0857,5.0143,4.9359,4.9044,4.8907,4.8907,4.8907,4.8907,4.8569,4.8273,4.7954,4.7314,4.6832,4.6165,4.5678,4.5209,4.4698,4.4205,4.3856,4.3856,4.3711,4.3691,4.3691,4.3691,4.3691,4.3691,4.3691,4.3691,4.3691,4.3691,4.3691,4.3691,4.3691,4.3691,4.3691,4.3691,4.3691,4.3691,4.3691,4.3691,4.3691,4.3691,4.3691,4.3691,4.3691,4.3691,4.3691,4.3691,4.3691,4.3691,4.3691,4.3691,4.3691,4.3691,4.3691,4.3691,4.3691,4.3691,4.3546,4.3546,4.3546,4.3546,4.338,4.3214,4.3214,4.3048,4.2716,4.255,4.2716,4.2716,4.2735,4.2569,4.2902,4.3068,4.3068,4.3234,4.3214,4.338,4.338,5.9307,5.9128,5.8172,5.7883,5.7364,5.5913,5.5061,5.4597,5.4303,5.398,5.3635,5.4003,5.414,5.4117,5.414,5.4186,5.4072,5.3773,5.3589,5.3543,5.3382,5.2967,5.2461,5.2969,5.327,5.3352,5.3665,5.3672,5.3918,5.3918,5.3672,5.372,5.4135,5.3671,5.2353,5.241,5.2419,5.1145,5.0299,4.956,4.9131,4.8995,4.8995,4.8836,4.8677,4.82,4.788,4.7399,4.6894,4.6347,4.6185,4.5861,4.5535,4.5046,4.4698,4.437,4.4041,4.3691,4.3691,4.3691,4.3691,4.3691,4.3691,4.3691,4.3691,4.3691,4.3691,4.3691,4.3691,4.3691,4.3691,4.3691,4.3691,4.3691,4.3691,4.3691,4.3691,4.3691,4.3691,4.3691,4.3691,4.3691,4.3691,4.3691,4.3691,4.3691,4.3691,4.3691,4.3691,4.3691,4.3691,4.3691,4.3691,4.3691,4.3691,4.3691,4.3691,4.3691,4.3711,4.3546,4.338,4.338,4.3546,4.338,4.338,4.3214,4.3048,4.3214,4.338,4.3546,4.338,4.3546,4.3711,4.3691,4.3691,5.9508,5.9483,5.8525,5.7898,5.7449,5.6174,5.5251,5.465,5.4464,5.4301,5.4163,5.4301,5.4416,5.4416,5.4416,5.4393,5.437,5.4163,5.4094,5.4234,5.4279,5.4092,5.4083,5.4547,5.4908,5.4913,5.5321,5.5873,5.5652,5.5013,5.4397,5.4644,5.4964,5.434,5.2905,5.2823,5.1855,5.0724,4.994,4.9751,4.9789,4.9694,4.9694,4.9694,4.9211,4.8737,4.806,4.7694,4.7062,4.643,4.6185,4.5881,4.5698,4.5209,4.4882,4.4698,4.4554,4.4205,4.3876,4.3711,4.3691,4.3691,4.3691,4.3691,4.3691,4.3691,4.3691,4.3691,4.3691,4.3691,4.3691,4.3691,4.3691,4.3691,4.3691,4.3691,4.3691,4.3691,4.3691,4.3691,4.3691,4.3691,4.3691,4.3691,4.3691,4.3691,4.3691,4.3691,4.3691,4.3691,4.3691,4.3691,4.3691,4.3691,4.3691,4.3691,4.3691,4.3691,4.3691,4.3711,4.3711,4.3691,4.3691,4.3691,4.3546,4.3546,4.3399,4.3546,4.3546,4.3711,4.3691,4.3691,4.3691,4.3691,4.3691,5.9508,5.9508,5.8862,5.8055,5.729,5.6334,5.553,5.4719,5.4393,5.4416,5.4416,5.4416,5.4416,5.4416,5.4416,5.4416,5.4416,5.4416,5.4579,5.4905,5.5322,5.5315,5.5391,5.5902,5.6464,5.6816,5.6643,5.7123,5.7099,5.6551,5.5831,5.5732,5.6477,5.5505,5.3999,5.3531,5.2961,5.0748,5.0206,5.0037,4.9978,5.0174,5.024,5.0121,4.9958,4.936,4.8571,4.8159,4.7622,4.6844,4.6455,4.6496,4.6311,4.6003,4.5673,4.5508,4.5177,4.4747,4.4277,4.3994,4.3896,4.3711,4.3691,4.3691,4.3691,4.3691,4.3691,4.3691,4.3691,4.3691,4.3691,4.3691,4.3691,4.3691,4.3691,4.3691,4.3691,4.3691,4.3691,4.3691,4.3691,4.3691,4.3691,4.3691,4.3691,4.3691,4.3691,4.3691,4.3691,4.3691,4.3691,4.3691,4.3691,4.3691,4.3691,4.3691,4.3691,4.3691,4.3691,4.3691,4.3691,4.3691,4.3691,4.3691,4.3691,4.3848,4.3799,4.3828,4.3691,4.3691,4.3691,4.3691,4.3691,4.3711,4.3691,5.9508,5.9508,5.9483,5.8862,5.7898,5.729,5.6334,5.5368,5.4719,5.4416,5.4416,5.4416,5.4416,5.4416,5.4416,5.4416,5.4416,5.4416,5.4905,5.5368,5.5644,5.6049,5.6419,5.6829,5.7253,5.7166,5.752,5.7951,5.7951,5.785,5.7625,5.765,5.7549,5.7067,5.6026,5.4956,5.3748,5.1854,5.0925,5.0329,5.0227,5.024,5.0436,5.0415,5.0208,4.9816,4.8975,4.881,4.8375,4.7444,4.7237,4.7237,4.7175,4.6864,4.6532,4.6386,4.5904,4.543,4.471,4.4336,4.408,4.3876,4.3691,4.3691,4.3691,4.3691,4.3691,4.3691,4.3691,4.3691,4.3691,4.3691,4.3691,4.3691,4.3691,4.3691,4.3691,4.3691,4.3691,4.3691,4.3691,4.3691,4.3691,4.3691,4.3691,4.3691,4.3691,4.3691,4.3691,4.3691,4.3691,4.3691,4.3691,4.3691,4.3691,4.3691,4.3691,4.3691,4.3691,4.3691,4.3691,4.3691,4.3711,4.3691,4.373,4.3965,4.4121,4.3906,4.375,4.3711,4.373,4.3808,4.3828,4.3828,4.3769,5.9508,5.9508,5.9508,5.8706,5.7449,5.7132,5.6174,5.5044,5.4579,5.4416,5.4416,5.4416,5.4416,5.4416,5.4416,5.4416,5.4416,5.4416,5.5044,5.5691,5.6126,5.6828,5.7448,5.8179,5.8594,5.8395,5.8702,5.888,5.893,5.878,5.888,5.8855,5.8376,5.7013,5.6172,5.4893,5.3061,5.2213,5.1316,5.0938,5.1147,5.1092,5.1223,5.1223,5.1223,5.0552,4.9694,4.9464,4.8796,4.8129,4.7901,4.7755,4.7775,4.7609,4.7441,4.7127,4.6811,4.6165,4.546,4.4877,4.419,4.3896,4.3691,4.373,4.3769,4.3711,4.3711,4.3691,4.3691,4.3711,4.3711,4.3711,4.3691,4.3691,4.375,4.3789,4.3828,4.3887,4.3887,4.3965,4.3808,4.3691,4.3691,4.3691,4.3691,4.3691,4.3691,4.3691,4.3691,4.3691,4.3691,4.3691,4.3691,4.3691,4.3691,4.3691,4.3691,4.3691,4.3691,4.3691,4.3691,4.3711,4.3711,4.3711,4.3828,4.4101,4.416,4.3926,4.3906,4.4101,4.4082,4.4023,4.4004,4.4004,4.3984,6.001,5.9985,5.9985,5.9003,5.7473,5.7132,5.6174,5.4882,5.4556,5.4416,5.4416,5.4416,5.4416,5.4416,5.4416,5.4416,5.4579,5.4719,5.5368,5.6174,5.6973,5.7765,5.855,5.8993,5.9228,5.9508,5.9508,5.9433,5.9382,5.9483,5.9408,5.9156,5.8805,5.774,5.6357,5.3813,5.2187,5.1945,5.1257,5.1201,5.1507,5.1682,5.1747,5.1725,5.1703,5.1405,5.0666,5.0413,4.9805,4.9112,4.8672,4.8295,4.8107,4.8107,4.8086,4.7918,4.7581,4.7203,4.6325,4.5331,4.4453,4.4258,4.418,4.4101,4.3945,4.3906,4.3945,4.3691,4.3711,4.3769,4.3848,4.3984,4.4141,4.4238,4.4297,4.4336,4.4316,4.4336,4.4277,4.4258,4.416,4.4199,4.4219,4.4238,4.3965,4.3887,4.3711,4.3711,4.3691,4.3691,4.3691,4.3691,4.3691,4.3691,4.3691,4.3711,4.373,4.3691,4.3691,4.3691,4.3691,4.3769,4.3906,4.4023,4.418,4.4336,4.4492,4.4648,4.4648,4.4648,4.4512,4.4297,4.4473,4.4492,4.4433,6.109,6.114,6.109,5.9989,5.8202,5.729,5.6518,5.553,5.4742,5.4416,5.4416,5.4416,5.4416,5.4416,5.4416,5.4416,5.4719,5.5206,5.6013,5.6973,5.7607,5.855,5.9173,5.9508,5.9508,5.9508,5.9508,5.9508,5.9508,5.9508,5.9508,5.9508,5.9282,5.8744,5.8402,5.574,5.4117,5.3497,5.1915,5.151,5.1664,5.1971,5.227,5.2292,5.2292,5.2204,5.1949,5.1594,5.1173,5.0752,5.0081,4.9765,4.9469,4.949,4.9172,4.851,4.8551,4.7874,4.7017,4.5746,4.5019,4.4844,4.4687,4.4648,4.4453,4.4355,4.4258,4.4043,4.3906,4.4062,4.4238,4.4621,4.4629,4.4707,4.4746,4.4746,4.4707,4.4687,4.4629,4.459,4.4805,4.4961,4.4961,4.4844,4.4433,4.4141,4.3828,4.373,4.3808,4.3808,4.3848,4.3691,4.3711,4.3828,4.3848,4.3789,4.3769,4.373,4.3828,4.4004,4.4082,4.4219,4.4316,4.4394,4.4551,4.4726,4.5156,4.5586,4.5332,4.5039,4.4766,4.4629,4.4824,4.4941,4.4863,6.119,6.119,6.119,6.0487,5.9109,5.7943,5.6828,5.5715,5.4882,5.4416,5.4416,5.4416,5.4416,5.4416,5.4579,5.4719,5.5206,5.5368,5.6334,5.774,5.8237,5.8706,5.9328,5.9508,5.9508,5.9508,5.9508,5.9508,5.9508,5.9508,5.9508,5.9508,5.9483,5.8706,5.7558,5.5617,5.4627,5.4001,5.3183,5.2712,5.3205,5.3341,5.3431,5.3266,5.3266,5.3408,5.3221,5.2913,5.2559,5.237,5.187,5.1536,5.1368,5.1368,5.0864,5.004,4.9551,4.829,4.7115,4.6052,4.5586,4.5293,4.5078,4.5039,4.4824,4.4824,4.4687,4.4382,4.4246,4.459,4.4785,4.5052,4.515,4.515,4.515,4.4961,4.4941,4.4941,4.4922,4.4902,4.5019,4.5117,4.5137,4.5293,4.5,4.4844,4.4629,4.4297,4.4258,4.418,4.4141,4.3828,4.373,4.3926,4.4023,4.4101,4.4258,4.4375,4.4512,4.4668,4.4726,4.4668,4.4746,4.4824,4.498,4.5156,4.5508,4.5762,4.5605,4.5351,4.5195,4.5039,4.5117,4.5234,4.5273,6.1743,6.1768,6.1743,6.1135,5.9918,5.8596,5.719,5.5766,5.5086,5.4852,5.4737,5.4691,5.4577,5.4485,5.4742,5.5044,5.5691,5.647,5.6789,5.8212,5.855,5.9018,5.9328,5.9508,5.9508,5.9508,5.9508,5.9508,5.9508,5.9508,5.9508,5.9508,5.9508,5.8862,5.7582,5.6446,5.5322,5.4673,5.367,5.2868,5.3386,5.3596,5.376,5.3925,5.4089,5.4416,5.4393,5.4207,5.3879,5.3692,5.3505,5.3176,5.3176,5.268,5.2037,5.1054,4.9891,4.8695,4.7295,4.6619,4.6111,4.5625,4.5469,4.5391,4.5293,4.5254,4.5117,4.5019,4.4849,4.5137,4.5425,4.5674,4.5523,4.5523,4.5621,4.5449,4.5449,4.5488,4.5469,4.543,4.541,4.541,4.5391,4.5508,4.5547,4.5508,4.5449,4.5098,4.4746,4.4629,4.4512,4.4238,4.4101,4.4355,4.4512,4.457,4.4746,4.498,4.5078,4.5156,4.5117,4.5019,4.5137,4.5293,4.5508,4.5683,4.5801,4.5898,4.584,4.584,4.584,4.5683,4.5508,4.5719,4.5817,6.2822,6.2822,6.2822,6.1982,6.067,5.9225,5.7456,5.5885,5.5885,5.561,5.5243,5.522,5.5155,5.4858,5.5438,5.59,5.615,5.7424,5.8055,5.8525,5.9018,5.9328,5.9483,5.9508,5.9508,5.9508,5.9508,5.9508,5.9508,5.9508,5.9508,5.9508,5.9508,5.9198,5.8393,5.7266,5.631,5.5691,5.4556,5.3902,5.423,5.3902,5.423,5.4393,5.4719,5.523,5.5206,5.5044,5.5044,5.4719,5.437,5.3856,5.3176,5.237,5.2059,5.1222,5.0061,4.8544,4.7508,4.6832,4.6638,4.6074,4.6152,4.6016,4.582,4.5683,4.5586,4.543,4.5371,4.5738,4.6068,4.5954,4.584,4.5957,4.6113,4.6133,4.6152,4.6152,4.6152,4.6113,4.6094,4.6074,4.6016,4.6074,4.5918,4.5957,4.5879,4.5703,4.5351,4.5098,4.498,4.4824,4.4766,4.4902,4.5,4.5039,4.5234,4.5449,4.5371,4.541,4.5371,4.543,4.5586,4.5781,4.6055,4.6191,4.6133,4.6152,4.6211,4.6211,4.6152,4.6113,4.5879,4.6477,4.6769,6.2822,6.2822,6.2822,6.2231,6.1071,5.9404,5.7612,5.5977,5.5931,5.5817,5.5725,5.6392,5.6255,5.5976,5.6743,5.7149,5.757,5.8055,5.8525,5.9043,5.9453,5.9533,5.9508,5.9508,5.9508,5.9533,5.9533,5.9583,5.9558,5.9533,5.9558,5.9508,5.9659,5.9453,5.9117,5.8261,5.7838,5.7204,5.6084,5.5506,5.5691,5.6013,5.5852,5.5852,5.6013,5.6518,5.6358,5.6197,5.6197,5.6197,5.6197,5.5852,5.5852,5.553,5.4859,5.1682,4.987,4.8007,4.6987,4.6658,4.6483,4.6308,4.6308,4.6269,4.6152,4.6074,4.6016,4.584,4.5762,4.6111,4.6189,4.6074,4.6094,4.6191,4.6308,4.6308,4.6308,4.6308,4.6308,4.6308,4.6308,4.6308,4.6308,4.6269,4.6152,4.625,4.623,4.6074,4.5918,4.5644,4.5449,4.5312,4.5273,4.5351,4.5449,4.5488,4.5703,4.5879,4.5781,4.5762,4.5859,4.5957,4.6074,4.6152,4.623,4.6269,4.6269,4.6308,4.6308,4.6308,4.625,4.6269,4.6483,4.6987,4.7661,6.2822,6.2822,6.2822,6.2331,6.1316,5.9618,5.8056,5.7083,5.6698,5.6436,5.6399,5.7215,5.7266,5.7008,5.8055,5.874,5.8791,5.9316,5.979,6.0054,5.991,5.9885,5.9809,5.9659,5.9659,5.9709,5.9859,6.0035,6.001,6.0136,6.0211,6.0236,6.0161,6.0136,6.0054,5.9815,5.9607,5.8802,5.7947,5.7228,5.7339,5.7655,5.7314,5.7156,5.7314,5.7339,5.7021,5.7021,5.7021,5.7021,5.7021,5.7021,5.6933,5.6685,5.5672,5.268,5.0826,4.9183,4.7895,4.6638,4.6464,4.6308,4.6328,4.6289,4.6289,4.623,4.623,4.6191,4.623,4.6289,4.6289,4.6308,4.6289,4.6308,4.6308,4.6308,4.6308,4.6308,4.6308,4.6308,4.6308,4.6308,4.6308,4.6308,4.6308,4.6308,4.6308,4.625,4.6152,4.6035,4.5898,4.5781,4.5723,4.5723,4.5801,4.5859,4.5996,4.6113,4.6113,4.6152,4.6308,4.6289,4.623,4.623,4.6289,4.6308,4.6464,4.6483,4.6308,4.6638,4.7161,4.7661,4.7661,4.7661,4.8179,6.2822,6.2822,6.2822,6.2331,6.1316,5.9787,5.9087,5.8794,5.8042,5.7366,5.7121,5.7897,5.8284,5.8352,5.9423,5.9996,6.0143,6.0413,6.0705,6.114,6.0613,6.0387,6.0236,5.996,6.0136,6.0311,6.0437,6.0537,6.0964,6.0964,6.0889,6.1165,6.0914,6.0763,6.0688,6.0555,6.0247,5.9815,5.8545,5.746,5.7276,5.7069,5.6997,5.6813,5.7156,5.7497,5.718,5.7021,5.7021,5.7021,5.7021,5.7021,5.7005,5.6691,5.5391,5.4229,5.2293,5.0719,4.9217,4.7983,4.7089,4.6699,4.6406,4.6543,4.6641,4.6387,4.6308,4.6308,4.6308,4.6308,4.6308,4.6308,4.6308,4.6308,4.6308,4.6308,4.6308,4.6308,4.6308,4.6308,4.6308,4.6308,4.6308,4.6308,4.6308,4.6308,4.6308,4.6308,4.6289,4.625,4.6211,4.6133,4.6055,4.5996,4.6074,4.6152,4.6211,4.6289,4.6308,4.6308,4.6308,4.6308,4.6308,4.6483,4.6638,4.6638,4.6813,4.7161,4.7661,4.8179,4.8675,4.9188,4.9188,4.9017,4.9188,6.2822,6.2822,6.2822,6.2306,6.1457,6.0983,6.0482,5.9787,5.9642,5.9063,5.8606,5.9715,6.033,6.0032,6.0799,6.116,6.1021,6.1256,6.1215,6.124,6.104,6.0989,6.0964,6.0713,6.0814,6.0914,6.1014,6.1115,6.1316,6.1316,6.1215,6.1165,6.1014,6.0889,6.0864,6.0864,6.0738,6.0563,5.9831,5.8974,5.8766,5.896,5.9044,5.8276,5.8129,5.7838,5.7521,5.7204,5.7045,5.7021,5.7021,5.7021,5.7045,5.6709,5.5952,5.4848,5.3963,5.2255,5.0628,4.922,4.8345,4.7445,4.7148,4.7207,4.709,4.6601,4.6348,4.6348,4.6348,4.6367,4.6348,4.6348,4.6348,4.6348,4.6348,4.6348,4.6348,4.6308,4.6308,4.6308,4.6308,4.6308,4.6308,4.6308,4.6308,4.6308,4.6308,4.6308,4.6308,4.6289,4.6269,4.623,4.625,4.623,4.6308,4.6308,4.6308,4.6308,4.6308,4.6308,4.6308,4.6308,4.6308,4.6638,4.6987,4.7141,4.7834,4.9038,4.9551,4.97,5.004,5.0379,5.0886,5.1054,5.1054,6.2822,6.2822,6.2822,6.2495,6.2167,6.1647,6.115,6.0817,6.0817,6.0458,6.0147,6.0959,6.1309,6.1203,6.202,6.2245,6.1893,6.1943,6.2019,6.1943,6.1617,6.1567,6.1492,6.1366,6.1391,6.1466,6.1818,6.1943,6.1843,6.1943,6.1943,6.1818,6.1492,6.1316,6.1341,6.1366,6.119,6.109,6.1165,6.1006,6.0572,6.0305,5.9623,5.878,5.8467,5.8384,5.8289,5.802,5.8166,5.8006,5.8031,5.7726,5.7566,5.7293,5.6861,5.6233,5.5311,5.3862,5.2024,5.0555,4.9527,4.8393,4.7087,4.6931,4.7441,4.7031,4.6855,4.6855,4.6756,4.6795,4.6836,4.6797,4.6542,4.6503,4.6385,4.6265,4.6249,4.6231,4.6367,4.6308,4.6308,4.6308,4.6308,4.6308,4.6308,4.6308,4.6308,4.6308,4.6308,4.6308,4.6308,4.6308,4.6308,4.6308,4.6308,4.6308,4.6308,4.6308,4.6308,4.6308,4.6308,4.6308,4.6483,4.6813,4.7314,4.7834,4.8675,5.004,5.0886,5.1201,5.139,5.1725,5.2226,5.2747,5.2725,6.2822,6.2822,6.2822,6.2822,6.2659,6.1977,6.1647,6.1647,6.1647,6.1647,6.1647,6.1647,6.1647,6.1977,6.2331,6.2659,6.2747,6.2546,6.2672,6.2596,6.227,6.2169,6.1969,6.1743,6.1893,6.2119,6.2446,6.2596,6.2621,6.2621,6.2621,6.2797,6.2772,6.2672,6.2722,6.2647,6.2295,6.2044,6.2044,6.2144,6.1492,6.0613,6.0004,5.9416,5.9135,5.9177,5.9182,5.9244,5.9466,5.9281,5.9047,5.8604,5.8394,5.8096,5.8084,5.7596,5.6889,5.5466,5.3735,5.1766,5.036,4.8763,4.7366,4.7048,4.7656,4.7856,4.7679,4.7402,4.732,4.7223,4.7266,4.7207,4.6931,4.6656,4.6574,4.6415,4.6481,4.6347,4.6231,4.6328,4.6308,4.6308,4.6328,4.6328,4.6308,4.6308,4.6308,4.6308,4.6308,4.6308,4.6308,4.6308,4.6308,4.6308,4.6308,4.6308,4.6308,4.6308,4.6308,4.6308,4.6308,4.6308,4.6464,4.6987,4.7661,4.8675,4.9679,5.0886,5.1725,5.2392,5.2725,5.2913,5.3243,5.3738,5.4066,6.2822,6.2822,6.2822,6.2822,6.2822,6.2659,6.2495,6.2495,6.252,6.2495,6.252,6.2495,6.2495,6.2495,6.2659,6.2822,6.2822,6.2822,6.2822,6.2747,6.2621,6.2647,6.2546,6.232,6.2546,6.2672,6.2747,6.2797,6.2822,6.2822,6.2822,6.2822,6.2345,6.2245,6.222,6.222,6.2195,6.2119,6.2144,6.2119,6.1843,6.1291,6.1291,6.0906,6.0363,6.0253,6.0168,5.9872,5.9761,5.9785,5.9785,5.9414,5.9179,5.9041,5.8983,5.9037,5.8307,5.7285,5.5654,5.3902,5.2388,5.0682,4.9431,4.8307,4.8764,4.866,4.8424,4.7949,4.791,4.7676,4.7558,4.7598,4.7359,4.7402,4.7204,4.7067,4.7031,4.668,4.6406,4.6367,4.6367,4.6367,4.6387,4.6367,4.6308,4.6308,4.6308,4.6308,4.6308,4.6308,4.6308,4.6308,4.6308,4.6308,4.6308,4.6308,4.6308,4.6308,4.6308,4.6308,4.6308,4.6308,4.6638,4.7314,4.8846,5.021,5.1222,5.187,5.289,5.3573,5.3902,5.4089,5.4416,5.4416,5.4416]}]]